     2              OBSERVATION DATA    GPS                 RINEX VERSION / TYPE
srx/v1.8.1.4 seismo 02/07/17 22:35:32                       PGM / RUN BY / DATE
                                                            COMMENT
sig: 9 8 7 6 5 4 1 0                                        COMMENT
sig: 9 8 7 6 5 4 1 0                                        COMMENT
sig: 9 8 7 6 5 4 1 0                                        COMMENT
sig: 9 8 7 6 5 4 1 0                                        COMMENT
sig: 9 8 7 6 5 4 1 0                                        COMMENT
Original Marker Name: SANO                                  COMMENT
Campaign Name: CSUSB 2002-2003                              COMMENT
4-Character Station Name: SANO                              COMMENT
6-Character Antenna Code: DMRCHT                            COMMENT
Vertical Measurement Point: BCR                             COMMENT
Vertical Offset to Rinex Ref. Point: 0.0348                 COMMENT
Radial Measurement Point: ECF                               COMMENT
Radial Offset to Rinex Ref. Point: 0.1897                   COMMENT
Antenna Height from Field Measurement: 1.4160 m             COMMENT
Additional Antenna Identification Info.:                    COMMENT
Turborogue and Ashtech Choke Ring                           COMMENT
Original XYZ: -2434327.2697 -4700226.4622 3546901.1164      COMMENT
New XYZ position is based on association with SCEC monument COMMENT
E1D0Q5S9+0011. Position of that monument is believed to be  COMMENT
valid to within 1 m horizontally; vertical accuracy         COMMENT
should be no worse than 3-times this value.                 COMMENT
                                                            COMMENT
Revised Rinex header created by UCSD GPS archive for        COMMENT
GSAC on 09-Nov-2004 (2004:314) 22:03:39 GMT                 COMMENT
For assistance contact dagnew@ucsd.edu                      COMMENT
or anderson@python.ucsd.edu                                 COMMENT
                                                            COMMENT
SANO                                                        MARKER NAME
SANO                                                        MARKER NUMBER
DRM CAL STATE SAN BERNARDINO                                OBSERVER / AGENCY
T260 TURBOROGUE SNR-8000 98.12.27                           REC # / TYPE / VERS
329 DORNE-MARGOL. TYPE T                                    ANT # / TYPE
 -2444783.0000 -4693771.0000  3548233.0000                  APPROX POSITION XYZ
        1.3684        0.0000        0.0000                  ANTENNA: DELTA H/E/N
     1     1     0                                          WAVELENGTH FACT L1/2
     5    L1    L2    P1    P2    C1                        # / TYPES OF OBSERV
    30                                                      INTERVAL
  2002     7     5    15    24   30.000000                  TIME OF FIRST OBS
  2002     7     5    23    58   30.000000                  TIME OF LAST OBS
    20                                                      # OF SATELLITES
          01   217   217     0   217   217                  PRN / # OF OBS
          02   112   112     0   112   112                  PRN / # OF OBS
          03   600   600     0   600   600                  PRN / # OF OBS
          06   361   361     0   361   361                  PRN / # OF OBS
          09   120   120     0   120   120                  PRN / # OF OBS
          11   437   437     0   437   437                  PRN / # OF OBS
          13    25    25     0    25    25                  PRN / # OF OBS
          14   764   764     0   764   764                  PRN / # OF OBS
          15   710   710     0   710   710                  PRN / # OF OBS
          17   634   634     0   634   634                  PRN / # OF OBS
          18   780   780     0   780   780                  PRN / # OF OBS
          20   295   295     0   295   295                  PRN / # OF OBS
          21   932   932     0   932   932                  PRN / # OF OBS
          22   322   322     0   322   322                  PRN / # OF OBS
          23   402   402     0   402   402                  PRN / # OF OBS
          25   497   497     0   497   497                  PRN / # OF OBS
          26   249   249     0   249   249                  PRN / # OF OBS
          29    21    21     0    21    21                  PRN / # OF OBS
          30   132   132     0   132   132                  PRN / # OF OBS
                                                            END OF HEADER
 02 07 05 15 24 30.0000000  0  6 15 17 18 23 26 29
        -0.78858        -0.72656         0.00051  22316597.29156  22316589.39158
        -0.40459         0.09056         0.00051  21666055.09456  21666048.62759
        -0.87758        -0.84856         0.00051  23032445.12656  23032437.57658
        -0.38159         0.55957         0.00051  20616066.81957  20616062.17259
        -1.00458        -0.67855         0.00051  22905842.27355  22905834.95258
        -0.63258         0.13256         0.00051  23094553.32256  23094547.41458
 02 07 05 15 25 00.0000000  0  7 06 15 17 18 23 26 29
        -0.25259         0.82057         0.00051  20354026.93857  20354022.52559
    -59776.46848    -46579.15346         0.00041  22305222.40746  22305214.78348
    -41032.48249    -31972.93346         0.00041  21658247.00146  21658240.27249
    -99416.99348    -77467.85846         0.00041  23013527.71246  23013519.02548
      8602.45949      6704.07947         0.00041  20617703.97847  20617699.20149
    -72702.00248    -56650.67045         0.00041  22892007.74145  22892000.13548
    -49551.32748    -38610.72246         0.00041  23085124.44446  23085117.42748
 02 07 05 15 25 30.0000000  0  8 06 15 17 18 22 23 26 29
    -21040.50749    -16394.17847         0.00041  20350023.00447  20350018.68049
   -119287.12548    -92951.06046         0.00041  22293897.83846  22293889.95548
    -81807.06649    -63745.31346         0.00041  21650487.99946  21650481.47549
   -198512.31348   -154684.87946         0.00041  22994669.10346  22994661.79248
        -0.84358        -0.60954         0.00051  24445703.78654  24445697.31858
     17803.64249     13873.84147         0.00041  20619454.99047  20619450.07049
   -144988.00148   -112977.29545         0.00041  22878251.67445  22878244.19648
    -98647.25448    -76867.21846         0.00041  23075781.78146  23075774.64048
 02 07 05 15 26 00.0000000  0  8 06 15 17 18 22 23 26 29
    -41811.53449    -32579.38847         0.00041  20346070.27747  20346066.02649
   -178734.01448   -139273.27246         0.00041  22282585.68146  22282577.49048
   -122525.63949    -95474.04346         0.00041  21642739.96446  21642733.04349
   -297485.17648   -231806.48246         0.00041  22975835.23246  22975828.15948
    -68161.14248    -53112.53644         0.00041  24432733.97244  24432725.78148
     27401.37849     21352.60547         0.00041  20621281.26747  20621276.78349
   -217056.56448   -169134.49745         0.00041  22864537.72645  22864529.82948
   -147487.00648   -114924.09146         0.00041  23066488.16246  23066481.24048
 02 07 05 15 26 30.0000000  0  8 06 15 17 18 22 23 26 29
    -62232.66949    -48491.95547         0.00041  20342184.50247  20342180.06749
   -238038.21148   -185484.29846         0.00041  22271299.77446  22271292.35048
   -163109.41449   -127097.74046         0.00041  21635016.76946  21635009.75849
   -396254.63348   -308769.57746         0.00041  22957039.89046  22957032.80248
   -135938.72348   -105926.21644         0.00041  24419838.30744  24419827.88248
     37473.67849     29201.16347         0.00041  20623198.08147  20623193.40749
   -288825.36948   -225058.11845         0.00041  22850880.09445  22850872.35048
   -195989.02148   -152717.79046         0.00041  23057257.41246  23057251.51648
 02 07 05 15 27 00.0000000  0  8 06 15 17 18 22 23 26 29
    -82279.06449    -64112.52047         0.00041  20338369.90447  20338365.31049
   -297176.55848   -231566.09246         0.00041  22260046.34046  22260038.52148
   -203535.66249   -158598.69146         0.00041  21627323.68246  21627317.01449
   -494795.36148   -385554.43546         0.00041  22938288.83146  22938280.39248
   -203308.54848   -158422.23144         0.00041  24407018.29844  24407007.37648
     48042.66349     37436.74547         0.00041  20625209.21347  20625204.23049
   -360267.67548   -280727.31545         0.00041  22837285.93145  22837277.74048
   -244127.46748   -190228.19046         0.00041  23048097.27146  23048090.46648
 02 07 05 15 27 30.0000000  0  8 06 15 17 18 22 23 26 29
   -102139.00549    -79587.79947         0.00041  20334590.47747  20334586.07649
   -356338.93448   -277666.61246         0.00041  22248788.69046  22248780.25148
   -243994.34149   -190124.89846         0.00041  21619624.85446  21619618.14149
   -593295.42548   -462307.61046         0.00041  22919543.99346  22919536.16648
   -270458.08248   -210746.54644         0.00041  24394238.37244  24394229.43648
     58917.61449     45910.74347         0.00041  20627278.59747  20627273.93849
   -431569.91348   -336287.37345         0.00041  22823715.78045  22823709.49348
   -292089.73348   -227601.31446         0.00041  23038970.41446  23038963.57048
 02 07 05 15 28 00.0000000  0  8 06 15 17 18 22 23 26 29
   -121755.63049    -94873.48347         0.00041  20330857.70447  20330853.17449
   -415470.27548   -323742.95046         0.00041  22237536.72946  22237527.54548
   -284430.84349   -221633.83246         0.00041  21611929.89246  21611923.33449
   -691697.35848   -538984.29946         0.00041  22900818.87246  22900811.18348
   -337330.40248         0.00041         0.00041         0.00041  24381503.54948
     70152.40649     54665.13947         0.00041  20629416.40247  20629411.81249
   -502673.64648   -391692.75245         0.00041  22810186.17745  22810178.84948
   -339818.21348   -264792.27146         0.00041  23029887.85946  23029881.36048
 02 07 05 15 28 30.0000000  0  8 06 15 17 18 22 23 26 29
   -140730.07849   -109658.77047         0.00041  20327246.97347  20327242.53849
   -474173.05848   -369485.35946         0.00041  22226365.37946  22226356.94048
   -324447.83849   -252815.87846         0.00041  21604314.88946  21604308.24949
   -789601.62848   -615273.20446         0.00041  22882187.61546  22882180.64148
   -403526.05248   -314435.91144         0.00041  24368917.43744  24368907.26048
     82143.53449     64008.88847         0.00041  20631698.41347  20631693.55749
   -573178.01048   -446631.10845         0.00041  22796769.40945  22796761.98648
   -386913.08948   -301489.50546         0.00041  23020925.88946  23020919.47248
 02 07 05 15 29 00.0000000  0  8 06 15 17 18 22 23 26 29
   -159146.16649   -124008.97247         0.00041  20323742.56047  20323738.14849
   -532532.81248   -414960.46346         0.00041  22215260.18946  22215251.74948
   -364131.06349   -283737.84846         0.00041  21596762.91246  21596757.11949
   -887091.37648   -691239.10346         0.00041  22863635.27946  22863628.61548
   -469128.32148   -365554.57344         0.00041  24356431.03744  24356423.20548
     94804.61349     73874.67547         0.00041  20634107.63547  20634102.82949
   -643164.90048   -501166.22846         0.00041  22783451.59246  22783443.66348
   -433457.14548   -337757.52146         0.00041  23012067.90846  23012063.00448
 02 07 05 15 29 30.0000000  0  8 06 15 17 18 22 23 26 29
   -177253.34649   -138118.47147         0.00041  20320296.58147  20320292.32849
   -590801.15048   -460364.33546         0.00041  22204171.74846  22204163.55748
   -403732.20249   -314595.84846         0.00041  21589227.33746  21589221.05349
   -984415.75748   -767076.15346         0.00041  22845115.84646  22845109.05248
   -534386.63548   -416405.24844         0.00041  24344009.86344  24344004.41148
    107883.10849     84065.71947         0.00041  20636596.26847  20636591.66249
   -712882.42748   -555491.44745         0.00041  22770183.85945  22770176.98348
   -479699.36348   -373790.35746         0.00041  23003269.09546  23003262.86248
 02 07 05 15 30 00.0000000  0  8 06 15 17 18 22 23 26 29
   -195023.27749   -151965.17747         0.00041  20316915.25847  20316910.93849
   -648951.25248   -505676.08546         0.00041  22193106.08546  22193097.64648
   -443224.62649   -345369.13946         0.00041  21581711.93246  21581705.54649
  -1081546.07648   -842761.97946         0.00041  22826633.18946  22826625.85748
   -599272.17848         0.00041         0.00041         0.00041  24331657.50348
    121404.72349     94602.05247         0.00041  20639169.44747  20639164.84649
   -782300.25048   -609583.14545         0.00041  22756974.49645  22756967.06448
   -525610.21648   -409564.99446         0.00041  22994532.17246  22994526.24748
 02 07 05 15 30 30.0000000  0  8 06 15 17 18 22 23 26 29
   -212392.43749   -165499.59347         0.00041  20313609.91247  20313605.74549
   -706921.32248   -550847.55246         0.00041  22182074.36846  22182066.56948
   -482546.57349   -376009.59146         0.00041  21574229.37146  21574222.92049
  -1178418.35848   -918246.74146         0.00041  22808198.26446  22808191.25148
   -663720.96348   -517185.33144         0.00041  24319401.36744  24319395.43448
    135430.15349    105530.96547         0.00041  20641838.39147  20641833.76149
   -851353.07548   -663390.42645         0.00041  22743834.19145  22743826.00048
   -571125.65048   -445031.49846         0.00041  22985870.71246  22985865.33548
 02 07 05 15 31 00.0000000  0  8 06 15 17 18 22 23 26 29
   -229323.27549   -178692.45747         0.00041  20310388.19747  20310383.96449
   -764675.38948   -595850.68846         0.00041  22171084.83146  22171076.64048
   -521662.57949   -406489.57146         0.00041  21566785.86246  21566779.51349
  -1274994.57048   -993500.80546         0.00041  22789819.62046  22789813.20548
   -727695.12648   -567035.39544         0.00041  24307224.45044  24307221.78448
    149994.16749    116879.55347         0.00041  20644609.79947  20644605.31849
   -920001.55748   -716882.63546         0.00041  22730771.18146  22730763.52748
   -616207.10548   -480159.83946         0.00041  22977291.64946  22977286.66248
 02 07 05 15 31 30.0000000  0  8 06 15 17 18 22 23 26 29
   -245877.00749   -191591.47847         0.00041  20307238.15247  20307233.87949
   -822276.13748   -640734.36046         0.00041  22160123.23446  22160115.62048
   -560635.52749   -436858.07746         0.00041  21559369.93946  21559363.09349
  -1371335.40248  -1068571.46646         0.00041  22771486.52446  22771480.39748
   -791255.35548   -616562.88444         0.00041  24295132.41944  24295126.53448
    165033.20649    128598.28947         0.00041  20647471.63047  20647467.33049
   -988305.03548   -770106.01346         0.00041  22717771.08646  22717765.80048
   -660914.76248   -514996.90646         0.00041  22968784.01146  22968778.78048
 02 07 05 15 32 00.0000000  0  8 06 15 17 18 22 23 26 29
   -261997.44149   -204152.86747         0.00041  20304170.68747  20304166.36749
   -879669.12748   -685456.15146         0.00041  22149202.32546  22149193.88648
   -599411.15349   -467072.82746         0.00041  21551991.04846  21551984.20749
  -1467384.22148  -1143414.58246         0.00041  22753209.75846  22753202.59848
   -854345.16248   -665723.81744         0.00041  24283129.11244  24283120.17748
    180600.38149    140728.55947         0.00041  20650434.02347  20650429.59449
  -1056205.63248   -823015.45246         0.00041  22704851.58446  22704844.20548
   -705191.86248   -549498.48146         0.00041  22960358.47546  22960352.82648
 02 07 05 15 32 30.0000000  0  8 06 15 17 18 22 23 26 29
   -277589.50349   -216302.53847         0.00041  20301203.44347  20301199.22249
   -936761.09248   -729943.36246         0.00041  22138337.42446  22138329.59548
   -637896.25549   -497061.19046         0.00041  21544667.28446  21544660.88749
  -1563045.68748  -1217955.86646         0.00041  22735005.22846  22734998.69848
   -916869.14548         0.00041         0.00041         0.00041  24271220.28148
    196788.28149    153342.50747         0.00041  20653514.57047  20653509.81349
  -1123606.41548   -875535.43246         0.00041  22692024.75546  22692018.51148
   -748942.37648   -583589.72946         0.00041  22952033.41546  22952027.33048
 02 07 05 15 33 00.0000000  0  8 06 15 17 18 22 23 26 29
   -292849.15649   -228193.18247         0.00041  20298299.88047  20298295.55149
   -993749.45148   -774349.85446         0.00041  22127492.85746  22127485.25548
   -676288.52849   -526977.22246         0.00041  21537361.44146  21537355.11349
  -1658515.18948  -1292347.57746         0.00041  22716838.53246  22716831.95348
   -979023.08348         0.00041         0.00041         0.00041  24259390.91148
    213398.06949    166285.20147         0.00041  20656675.13247  20656670.62249
  -1190701.74948   -927817.39246         0.00041  22679257.24946  22679250.70148
   -792361.56748   -617422.79846         0.00041  22943770.49846  22943765.00648
 02 07 05 15 33 30.0000000  0  8 06 15 17 18 22 23 26 29
   -307722.24649   -239782.61047         0.00041  20295469.58347  20295465.26649
  -1050581.40948   -818634.46446         0.00041  22116678.25946  22116670.74248
   -714535.93049   -556780.36946         0.00041  21530083.55246  21530076.82149
  -1753737.76248  -1366546.87146         0.00041  22698717.87746  22698711.52448
  -1040752.18248         0.00041         0.00041         0.00041  24247645.00348
    230481.29049    179596.80847         0.00041  20659925.94747  20659921.60249
  -1257435.55148   -979817.64246         0.00041  22666558.09446  22666551.49148
   -835394.32348   -650954.73946         0.00041  22935581.31246  22935576.10248
 02 07 05 15 34 00.0000000  0  8 06 15 17 18 22 23 26 29
   -322180.54049   -251048.82347         0.00041  20292718.23047  20292713.81149
  -1107230.43948   -862776.54346         0.00041  22105897.85846  22105890.46748
   -752611.71049   -586449.79446         0.00041  21522838.17046  21522831.43249
  -1848684.97648  -1440531.61346         0.00041  22680649.07346  22680642.82448
  -1102028.02848         0.00041         0.00041         0.00041  24235985.96848
    248063.22349    193297.02147         0.00041  20663271.65747  20663267.24449
  -1323777.91348  -1031512.88646         0.00041  22653933.08246  22653926.97148
   -878011.80648   -684163.11346         0.00041  22927472.55846  22927466.33648
 02 07 05 15 34 30.0000000  0  8 06 15 17 18 22 23 26 29
   -336273.80249   -262030.59047         0.00041  20290036.36247  20290031.89349
  -1163748.09448   -906816.24846         0.00041  22095143.52646  22095135.08748
   -790567.51049   -616025.72046         0.00041  21515615.15146  21515608.77549
  -1943406.02948  -1514340.12446         0.00041  22662623.61646  22662617.29348
  -1162899.99848   -906156.24144         0.00041  24224411.15144  24224402.96048
    266091.23549    207344.83147         0.00041  20666702.47047  20666697.75549
  -1389776.71848  -1082940.42046         0.00041  22641375.58946  22641367.39848
   -920262.74048   -717085.85346         0.00041  22919431.93446  22919426.00648
 02 07 05 15 35 00.0000000  0  7 06 15 17 18 22 23 26
   -350014.62349   -272737.72547         0.00041  20287421.57147  20287417.16049
  -1220148.37548   -950764.49146         0.00041  22084410.39146  22084402.63848
   -828417.90049   -645519.51046         0.00041  21508412.26746  21508406.14049
  -2037913.14548  -1587981.92946         0.00041  22644640.13246  22644633.52748
  -1223380.51048         0.00041         0.00041         0.00041  24212895.10248
    284549.93349    221728.23947         0.00041  20670214.83747  20670210.25549
  -1455442.98248  -1134108.83146         0.00041  22628877.82246  22628871.82448
 02 07 05 15 35 30.0000000  0  7 06 15 17 18 22 23 26
   -363250.00149   -283051.00947         0.00041  20284903.01947  20284898.58849
  -1276279.88448   -994503.29746         0.00041  22073729.51346  22073721.32148
   -866011.41449   -674813.13346         0.00041  21501258.38346  21501252.00449
  -2132052.82548  -1661337.43346         0.00041  22626726.25746  22626719.53748
  -1283316.18048   -999987.09544         0.00041  24201498.19944  24201487.77448
    303589.52649    236564.29447         0.00041  20673838.12647  20673833.35649
  -1520621.78148  -1184897.41346         0.00041  22616474.55346  22616468.43348
 02 07 05 15 36 00.0000000  0  7 06 15 17 18 22 23 26
   -375967.36049   -292960.64247         0.00041  20282483.08447  20282478.58449
  -1332131.92048  -1038024.32846         0.00041  22063100.52546  22063093.01248
   -903337.41549   -703898.30946         0.00041  21494155.82046  21494149.05549
  -2225811.98748  -1734396.42246         0.00041  22608884.90546  22608877.94048
  -1342694.12548  -1046255.65844         0.00041  24190200.62044  24190190.19548
    323219.83049    251860.64147         0.00041  20677573.63647  20677568.73849
  -1585298.90148  -1235295.07146         0.00041  22604166.85946  22604160.74048
 02 07 05 15 36 30.0000000  0  7 06 15 17 18 22 23 26
   -388317.35749   -302584.02147         0.00041  20280132.84947  20280128.41949
  -1387856.55248  -1081446.08246         0.00041  22052496.98946  22052488.79848
   -940548.28449   -732893.76846         0.00041  21487074.51046  21487068.01449
  -2319340.50848  -1807275.69546         0.00041  22591086.65546  22591080.03648
  -1401664.63548  -1092206.70544         0.00041  24178978.99244  24178970.30548
    343287.28949    267497.62747         0.00041  20681392.26747  20681387.48249
  -1649622.97448  -1285417.64246         0.00041  22591927.25246  22591919.84548
 02 07 05 15 37 00.0000000  0  7 06 15 17 18 22 23 26
   -400293.00749   -311915.70047         0.00041  20277854.09447  20277849.53849
  -1443448.32348  -1124764.30746         0.00041  22041918.08146  22041909.89048
   -977638.47949   -761795.19546         0.00041  21480016.52646  21480009.59849
  -2412631.15348  -1879969.60946         0.00041  22573333.90646  22573326.64348
  -1460220.31048  -1137834.53545         0.00041  24167835.71045  24167827.51948
    363796.10849    283478.52847         0.00041  20685294.94447  20685290.16949
  -1713585.32148  -1335258.34046         0.00041  22579755.45146  22579748.36848
 02 07 05 15 37 30.0000000  0  8 06 15 17 18 21 22 23 26
   -411837.11149   -320911.11147         0.00041  20275657.15847  20275652.65649
  -1498851.38648  -1167935.49046         0.00041  22031374.58946  22031366.67948
  -1014552.74349   -790559.53346         0.00041  21472991.60146  21472984.98249
  -2505626.03548  -1952433.06246         0.00041  22555637.19046  22555630.01648
         0.15458         0.00051         0.00051         0.00051  25329145.11558
  -1518303.67248  -1183094.33745         0.00041  24156783.64445  24156775.20448
    384800.76049    299845.79547         0.00041  20689292.20147  20689287.32549
  -1777126.86748  -1384771.14346         0.00041  22567663.47146  22567657.26748
 02 07 05 15 38 00.0000000  0  7 06 15 17 18 22 23 26
   -422965.40549   -329582.51147         0.00041  20273539.43447  20273534.89549
  -1554083.16948  -1210973.19746         0.00041  22020864.65946  22020856.46848
  -1051308.53549   -819200.38946         0.00041  21465997.36746  21465990.80849
  -2598340.70548  -2024678.16046         0.00041  22537994.83246  22537987.64748
  -1575930.41448  -1227998.32644         0.00041  24145813.94644  24145807.54248
    406282.77649    316585.03047         0.00041  20693379.96647  20693375.15349
  -1840261.85248  -1433967.15646         0.00041  22555649.18546  22555642.39948
 02 07 05 15 38 30.0000000  0  7 06 15 17 18 22 23 26
   -433727.44849   -337968.52447         0.00041  20271491.45947  20271487.11749
  -1609194.58748  -1253917.13546         0.00041  22010376.79346  22010369.39848
  -1087957.11849   -847757.70346         0.00041  21459023.38446  21459016.95949
  -2690823.96748  -2096742.95546         0.00041  22520395.13746  22520389.24148
  -1633149.47148  -1272584.63044         0.00041  24134927.08444  24134918.64548
    428189.71449    333655.37447         0.00041  20697548.75347  20697543.86149
  -1903037.86148  -1482883.43646         0.00041  22543703.73746  22543696.63848
 02 07 05 15 39 00.0000000  0  7 06 15 17 18 22 23 26
   -444084.31549   -346038.81647         0.00041  20269520.85147  20269516.33849
  -1664148.21649  -1296738.10246         0.00041  21999920.09046  21999912.49549
  -1124461.25249   -876202.46546         0.00041  21452076.73146  21452070.24349
  -2783036.52748  -2168596.80246         0.00041  22502847.42446  22502841.43348
  -1689921.95348  -1316822.97045         0.00041  24124125.66545  24124115.98448
    450557.54749    351084.85347         0.00041  20701805.15447  20701800.45149
  -1965414.21848  -1531488.31146         0.00041  22531833.80146  22531826.78248
 02 07 05 15 39 30.0000000  0  7 06 15 17 18 22 23 26
   -453957.80749   -353732.45447         0.00041  20267641.93647  20267637.37449
  -1718867.41449  -1339376.39046         0.00041  21989506.84446  21989499.73649
  -1160744.38249   -904475.02046         0.00041  21445172.20346  21445165.69149
  -2874899.70048  -2240178.40746         0.00041  22485366.40246  22485360.61648
  -1746169.23248  -1360652.06745         0.00041  24113418.28545  24113412.05648
    473461.62149    368932.17747         0.00041  20706163.57447  20706158.91149
  -2027310.89648  -1579719.40646         0.00041  22520054.78346  22520048.18748
 02 07 05 15 40 00.0000000  0  7 06 15 17 18 22 23 26
   -463408.87849   -361096.93647         0.00041  20265843.36847  20265839.01949
  -1773414.62649  -1381880.66746         0.00041  21979126.97046  21979119.89149
  -1196869.17649   -932624.19346         0.00041  21438297.85046  21438291.48449
  -2966473.83048  -2311534.78846         0.00041  22467939.82846  22467933.55148
  -1801952.08448  -1404119.28145         0.00041  24102806.73145  24102796.05848
    496838.06449    387147.58147         0.00041  20710611.98547  20710607.36749
  -2088787.25048  -1627622.98146         0.00041  22508355.79246  22508349.86248
 02 07 05 15 40 30.0000000  0  8 06 15 17 18 21 22 23 26
   -472445.72449   -368138.64547         0.00041  20264123.69547  20264119.43949
  -1827799.35848  -1424258.33646         0.00041  21968777.65146  21968770.24248
  -1232845.42849   -960657.62046         0.00041  21431451.67046  21431445.60749
  -3057766.73348  -2382672.02746         0.00041  22450568.19646  22450560.49748
        -0.43457         0.00051         0.00051         0.00051  25218100.05057
  -1857278.35748         0.00041         0.00041         0.00041  24092267.19148
    520675.87549    405722.49147         0.00041  20715148.09447  20715143.41649
  -2149849.61048  -1675203.96446         0.00041  22496736.79746  22496729.89548
 02 07 05 15 41 00.0000000  0  8 06 15 17 18 21 22 23 26
   -481053.75149   -374846.21147         0.00041  20262485.72447  20262481.35749
  -1882008.57448  -1466499.24246         0.00041  21958462.44846  21958454.25748
  -1268660.19849   -988565.20746         0.00041  21424636.49546  21424630.31449
  -3148763.01848  -2453578.14446         0.00041  22433252.52446  22433245.13748
    -96900.46647         0.00041         0.00041         0.00041  25199656.99647
  -1912133.19448  -1489974.80044         0.00041  24081840.50544  24081828.83948
    544986.80349    424666.05947         0.00041  20719774.54947  20719769.71449
  -2210481.65948  -1722449.63946         0.00041  22485198.56846  22485191.41348
 02 07 05 15 41 30.0000000  0  8 06 15 17 18 21 22 23 26
   -489211.27749   -381202.73847         0.00041  20260933.46147  20260929.08549
  -1936022.11848  -1508587.68246         0.00041  21948183.78146  21948175.93348
  -1304293.42749  -1016331.33546         0.00041  21417855.47246  21417849.72449
  -3239440.59548  -2524235.92046         0.00041  22415996.99846  22415990.30848
   -193674.47348         0.00041         0.00041         0.00041  25181240.51348
  -1966494.76048  -1532334.78544         0.00041  24071490.50844  24071484.33048
    569789.60549    443992.91047         0.00041  20724494.44347  20724489.65949
  -2270659.96648  -1769341.74846         0.00041  22473746.72546  22473740.02348
 02 07 05 15 42 00.0000000  0  7 06 15 17 18 22 23 26
   -496948.36749   -387231.65447         0.00041  20259460.98347  20259456.75849
  -1989871.58348  -1550548.26346         0.00041  21937936.31746  21937928.89048
  -1339777.03549  -1043980.87746         0.00041  21411103.60946  21411097.49949
  -3329829.21648  -2594668.54246         0.00041  22398796.04346  22398789.45948
  -2020392.92848  -1574333.24745         0.00041  24061235.34845  24061227.73548
    595051.37149    463677.39147         0.00041  20729301.54947  20729296.79949
  -2330412.90548  -1815902.40146         0.00041  22462374.96146  22462369.52448
 02 07 05 15 42 30.0000000  0  7 06 15 17 18 22 23 26
   -504280.52349   -392945.03747         0.00041  20258065.83647  20258061.68449
  -2043573.70049  -1592394.03946         0.00041  21927717.03146  21927709.99749
  -1375127.78149  -1071526.89146         0.00041  21404376.43746  21404370.58549
  -3419943.74148  -2664887.57746         0.00041  22381647.85246  22381641.42948
  -2073842.82748  -1615981.40544         0.00041  24051064.70944  24051057.30148
    620753.84549    483705.27947         0.00041  20734192.53647  20734187.74749
  -2389754.12348  -1862142.22646         0.00041  22451083.03546  22451077.02148
 02 07 05 15 43 00.0000000  0  7 06 15 17 18 22 23 26
   -511161.69749   -398307.00747         0.00041  20256756.39347  20256752.19349
  -2097083.96149  -1634090.30346         0.00041  21917533.95646  21917527.41049
  -1410301.31649  -1098934.82546         0.00041  21397683.33146  21397677.00349
  -3509737.80148  -2734856.90346         0.00041  22364560.88146  22364554.39448
  -2126798.18648  -1657245.40244         0.00041  24040988.34044  24040981.04848
    646940.10449    504110.14447         0.00041  20739175.58247  20739170.80449
  -2448635.72848  -1908023.90846         0.00041  22439878.91146  22439872.21348
 02 07 05 15 43 30.0000000  0  7 06 15 17 18 22 23 26
   -517578.62749   -403307.22747         0.00041  20255535.38247  20255531.10649
  -2150390.53749  -1675627.85346         0.00041  21907389.76746  21907383.29149
  -1445286.07949  -1126195.66246         0.00041  21391026.07646  21391019.69349
  -3599197.48448  -2804565.66846         0.00041  22347536.66046  22347530.29248
  -2179245.78548  -1698113.74444         0.00041  24031009.53344  24031001.60348
    673620.44749    524900.01147         0.00041  20744252.67447  20744248.03249
  -2507043.04448  -1953536.02746         0.00041  22428762.99746  22428757.55848
 02 07 05 15 44 00.0000000  0  7 06 15 17 18 22 23 26
   -523548.74049   -407959.27547         0.00041  20254399.43547  20254395.09749
  -2203512.22449  -1717021.33646         0.00041  21897281.52146  21897274.44849
  -1480101.11649  -1153324.24246         0.00041  21384400.90046  21384394.77049
  -3688339.68349  -2874027.05046         0.00041  22330574.01246  22330567.28549
  -2231202.57048  -1738599.63344         0.00041  24021124.15544  24021114.47448
    700774.59149    546059.06947         0.00041  20749419.95947  20749415.17949
  -2564991.60048  -1998690.66346         0.00041  22417736.45546  22417730.77048
 02 07 05 15 44 30.0000000  0  8 06 15 17 18 21 22 23 26
   -529096.42249   -412282.16047         0.00041  20253343.79147  20253339.45649
  -2256474.67749  -1758290.74046         0.00041  21887203.02546  21887195.83349
  -1514772.09849  -1180340.57346         0.00041  21377802.94446  21377796.94449
  -3777188.32049  -2943259.68746         0.00041  22313665.95946  22313659.59349
        -1.02758         0.00051         0.00051         0.00051  25071178.32858
  -2282692.79048  -1778721.92844         0.00041  24011324.22144  24011315.53348
    728375.33049    567566.12647         0.00041  20754672.37147  20754667.72049
  -2622504.05248  -2043505.49346         0.00041  22406792.44146  22406786.26548
 02 07 05 15 45 00.0000000  0  8 06 15 17 18 21 22 23 26
   -534235.50949   -416286.65847         0.00041  20252365.78147  20252361.44849
  -2309293.06949  -1799447.89646         0.00041  21877152.04146  21877144.80249
  -1549314.30849  -1207256.56346         0.00041  21371229.87846  21371223.50149
  -3865756.25348  -3012273.58846         0.00041  22296811.83746  22296805.16948
    -96017.96948         0.00041         0.00041         0.00041  25052905.54848
  -2333730.01448  -1818491.25244         0.00041  24001611.88544  24001603.69448
    756406.00349    589408.19647         0.00041  20760006.28247  20760001.61049
  -2679592.32248  -2087989.78246         0.00041  22395928.19046  22395922.74348
 02 07 05 15 45 30.0000000  0  8 06 15 17 18 21 22 23 26
   -538918.59249   -419935.82647         0.00041  20251474.78447  20251470.27749
  -2361921.44649  -1840456.98046         0.00041  21867137.46446  21867129.83249
  -1583682.14249  -1234036.67746         0.00041  21364689.98846  21364683.48149
  -3953996.07249  -3081031.81946         0.00041  22280020.50946  22280014.05449
   -191900.31547         0.00041         0.00041         0.00041  25034658.19647
  -2384266.66148  -1857870.52844         0.00041  23991996.00344  23991987.56348
    784911.05149    611619.90747         0.00041  20765430.68147  20765425.93249
  -2736207.46248  -2132105.39346         0.00041  22385155.04346  22385149.16948
 02 07 05 15 46 00.0000000  0  8 06 15 17 18 21 22 23 26
   -543136.25049   -423222.32747         0.00041  20250672.09947  20250667.78149
  -2414351.56349  -1881311.58346         0.00041  21857160.74546  21857152.99249
  -1617867.31349  -1260674.45746         0.00041  21358184.94046  21358178.01449
  -4041897.56649  -3149526.42346         0.00041  22263293.33546  22263287.10549
   -287638.34348         0.00041         0.00041         0.00041  25016441.78548
  -2434293.03348  -1896852.15344         0.00041  23982475.16944  23982468.60248
    813897.01849    634206.35947         0.00041  20770946.51147  20770941.96249
  -2792338.12948  -2175843.50946         0.00041  22374474.63146  22374467.51048
 02 07 05 15 46 30.0000000  0  8 06 15 17 18 21 22 23 26
   -546941.95549   -426187.82947         0.00041  20249947.86647  20249943.56349
  -2466638.48949  -1922054.60746         0.00041  21847210.90846  21847203.20649
  -1651925.15749  -1287213.02646         0.00041  21351703.79946  21351697.14149
  -4129513.75549  -3217798.70746         0.00041  22246619.90246  22246613.65849
   -383285.68848         0.00041         0.00041         0.00041  24998240.87148
  -2483862.69548  -1935477.93444         0.00041  23973041.98444  23973035.51248
    843307.44349    657123.55847         0.00041  20776543.06747  20776538.54849
  -2848036.19548  -2219244.53246         0.00041  22363874.95246  22363868.25948
 02 07 05 15 47 00.0000000  0  8 06 15 17 18 21 22 23 26
   -550313.91449   -428815.34447         0.00041  20249306.08047  20249301.96849
  -2518761.59049  -1962669.98946         0.00041  21837291.83746  21837284.58949
  -1685835.12649  -1313636.36646         0.00041  21345250.74646  21345244.24349
  -4216822.34549  -3285831.30146         0.00041  22230005.88546  22229999.52749
   -478819.66648         0.00041         0.00041         0.00041  24980059.99848
  -2532953.49648  -1973730.59844         0.00041  23963699.21544  23963693.43748
    873161.31449    680386.30047         0.00041  20782224.19947  20782219.41649
  -2903278.21748  -2262290.18446         0.00041  22353362.64346  22353356.21148
 02 07 05 15 47 30.0000000  0  8 06 15 17 18 21 22 23 26
   -553260.25049   -431111.20547         0.00041  20248745.39847  20248741.35449
  -2570730.35349  -2003165.09946         0.00041  21827402.24746  21827394.93849
  -1719606.91349  -1339952.03746         0.00041  21338824.35346  21338817.69749
  -4303830.82249  -3353630.04446         0.00041  22213449.22246  22213442.71049
   -574247.77647         0.00041         0.00041         0.00041  24961898.60047
  -2581573.31948  -2011616.21344         0.00041  23954451.60044  23954440.67848
    903447.74949    703986.10447         0.00041  20787987.42247  20787982.67649
  -2958070.27248  -2304985.22646         0.00041  22342935.55346  22342929.97348
 02 07 05 15 48 00.0000000  0  7 06 15 18 21 22 23 26
   -555759.10849   -433058.38147         0.00041  20248269.87847  20248265.72949
  -2622524.12449  -2043523.86146         0.00041  21817546.12446  21817538.80849
  -4390516.68949  -3421177.40246         0.00041  22196953.12846  22196946.88049
   -669548.00147         0.00041         0.00041         0.00041  24943763.92847
  -2629700.17948  -2049117.70244         0.00041  23945291.01144  23945282.32448
    934185.64649    727937.69847         0.00041  20793836.89647  20793832.04949
  -3012389.06748  -2347311.49746         0.00041  22332598.73446  22332592.89548
 02 07 05 15 48 30.0000000  0  7 06 15 18 21 22 23 26
   -557791.84849   -434642.35147         0.00041  20247883.08447  20247878.96549
  -2674125.49749  -2083732.69846         0.00041  21807726.60846  21807719.72749
  -4476860.87949  -3488458.51146         0.00041  22180522.78746  22180516.13549
   -764701.06648         0.00041         0.00041         0.00041  24925658.25548
  -2677315.16248  -2086220.34944         0.00041  23936230.65144  23936222.21248
    965390.81149    752253.39847         0.00041  20799774.87247  20799770.38849
  -3066213.94848  -2389252.88646         0.00041  22322355.82446  22322350.23148
 02 07 05 15 49 00.0000000  0  8 06 15 17 18 21 22 23 26
   -559353.29349   -435859.07847         0.00041  20247586.10247  20247581.87249
  -2725530.56149  -2123788.55646         0.00041  21797944.48146  21797937.56249
        -0.39159        -0.67756         0.00051  21319736.29656  21319729.63959
  -4562857.68349  -3555468.93446         0.00041  22164157.37046  22164151.26649
   -859701.53648   -669896.57041         0.00041         0.00041  24907580.81048
  -2724413.14148  -2122920.12844         0.00041  23927265.75644  23927259.21048
    997065.54049    776934.99247         0.00041  20805802.44647  20805797.58249
  -3119538.37048  -2430804.31446         0.00041  22312208.99146  22312203.32148
 02 07 05 15 49 30.0000000  0  8 06 15 17 18 21 22 23 26
   -560492.32549   -436746.64947         0.00041  20247369.29547  20247365.19049
  -2776789.54949  -2163730.59146         0.00041  21788190.43746  21788183.23849
    -33128.48949    -25814.77646         0.00041  21313432.37646  21313426.10849
  -4648555.42849  -3622246.31746         0.00041  22147849.48946  22147843.19349
   -954597.77948         0.00041         0.00041         0.00041  24889523.67548
  -2771042.87648  -2159255.08044         0.00041  23918392.60844  23918385.11148
   1029157.91549    801942.02647         0.00041  20811909.45747  20811904.52249
  -3172409.49648  -2472002.52046         0.00041  22302147.92646  22302142.28048
 02 07 05 15 50 00.0000000  0  8 06 15 17 18 21 22 23 26
   -561191.87749   -437291.76647         0.00041  20247236.23947  20247232.04549
  -2827886.66049  -2203546.48646         0.00041  21778466.92646  21778459.53949
    -66111.52649    -51515.83146         0.00041  21307155.71646  21307149.86049
  -4733936.46649  -3688776.91546         0.00041  22131602.25146  22131596.59349
  -1049372.47848   -817691.98141         0.00041         0.00041  24871489.34148
  -2817187.12048         0.00041         0.00041         0.00041  23909602.46248
   1061682.15349    827285.57947         0.00041  20818098.64047  20818093.92649
  -3224808.47448  -2512832.82746         0.00041  22292176.67046  22292170.79348
 02 07 05 15 50 30.0000000  0  8 06 15 17 18 21 22 23 26
   -561448.29349   -437491.58247         0.00041  20247187.45247  20247183.05749
  -2878819.47249  -2243234.35846         0.00041  21768774.64046  21768767.73549
    -98947.25749    -77102.10646         0.00041  21300907.21946  21300900.81649
  -4818996.73749  -3755057.56646         0.00041  22115416.07546  22115410.25549
  -1144021.55348         0.00041         0.00041         0.00041  24853478.19848
  -2862842.11848         0.00041         0.00041         0.00041  23900913.68448
   1094639.04349    852966.26347         0.00041  20824369.95147  20824365.43049
  -3276729.95248  -2553291.04646         0.00041  22282296.28546  22282290.56948
 02 07 05 15 51 00.0000000  0  8 06 15 17 18 21 22 23 26
   -561250.55449   -437337.51047         0.00041  20247225.22847  20247220.68349
  -2929578.02649  -2282786.45146         0.00041  21759115.74346  21759108.42249
   -131625.85749   -102565.94946         0.00041  21294688.78146  21294682.31649
  -4903724.57749  -3821079.18146         0.00041  22099292.23246  22099286.01349
  -1238533.01648         0.00041         0.00041         0.00041  24835491.91848
  -2907996.75648  -2265972.54544         0.00041  23892333.58644  23892321.92048
   1128036.53349    878990.27547         0.00041  20830725.47547  20830720.82049
  -3328161.21948  -2593367.29046         0.00041  22272508.85846  22272503.46348
 02 07 05 15 51 30.0000000  0  8 06 15 17 18 21 22 23 26
   -560634.48849   -436857.47247         0.00041  20247342.67347  20247338.01449
  -2980199.49049  -2322231.72946         0.00041  21749482.61946  21749475.20949
   -164184.64749   -127936.43446         0.00041  21288493.23846  21288486.93549
  -4988155.41149  -3886869.36146         0.00041  22083225.50846  22083219.19149
  -1332942.90248         0.00041         0.00041         0.00041  24817525.94348
  -2952686.57948  -2300795.88044         0.00041  23883826.97744  23883819.86548
   1161836.04249    905327.54047         0.00041  20837157.35847  20837152.52249
  -3379136.47548  -2633088.20346         0.00041  22262808.92246  22262802.80948
 02 07 05 15 52 00.0000000  0  8 06 15 17 18 21 22 23 26
   -559546.10949   -436009.39647         0.00041  20247549.60947  20247545.08049
  -3030630.88249  -2361528.87846         0.00041  21739885.83946  21739878.31349
   -196570.94049   -153172.50446         0.00041  21282330.15646  21282323.78549
  -5072234.59549  -3952385.52046         0.00041  22067225.98146  22067219.87649
  -1427196.58948         0.00041         0.00041         0.00041  24799590.05648
  -2996857.58848  -2335214.92444         0.00041  23875421.45344  23875414.93848
   1196088.76649    932017.96547         0.00041  20843675.40547  20843670.71849
  -3429599.90448  -2672410.29546         0.00041  22253206.05446  22253199.94448
 02 07 05 15 52 30.0000000  0  8 06 15 17 18 21 22 23 26
   -557956.21149   -434770.52247         0.00041  20247852.17247  20247847.75249
  -3080844.15549  -2400656.08646         0.00041  21730330.85846  21730323.24349
   -228756.42149   -178252.09446         0.00041  21276205.23146  21276199.33849
  -5155932.15949  -4017604.31346         0.00041  22051299.01246  22051293.00249
  -1521264.12748         0.00041         0.00041         0.00041  24781689.63448
  -3040480.27148  -2369206.70844         0.00041  23867122.35444  23867114.16348
   1230820.99549    959082.03547         0.00041  20850284.70147  20850280.10249
  -3479520.53348  -2711309.39646         0.00041  22243706.04246  22243700.25348
 02 07 05 15 53 00.0000000  0  7 06 15 18 21 22 23 26
   -555921.37249   -433184.94747         0.00041  20248239.35647  20248235.01249
  -3130896.89649  -2439658.19046         0.00041  21720805.99846  21720798.41149
  -5239304.02149  -4082569.31246         0.00041  22035433.46446  22035427.69849
  -1615201.52348         0.00041         0.00041         0.00041  24763813.85548
  -3083611.22548  -2402815.28344         0.00041  23858915.89844  23858906.21748
   1265973.28749    986473.42147         0.00041  20856973.99147  20856969.40049
  -3528953.35948  -2749828.41446         0.00041  22234299.31946  22234293.46248
 02 07 05 15 53 30.0000000  0  7 06 15 18 21 22 23 26
   -553393.48349   -431215.17447         0.00041  20248720.42847  20248716.06449
  -3180741.78249  -2478498.33646         0.00041  21711321.06846  21711313.63149
  -5322301.42649  -4147242.53146         0.00041  22019638.99946  22019633.43749
  -1708960.52448         0.00041         0.00041         0.00041  24745970.95548
  -3126202.13548  -2436003.03544         0.00041  23850808.18044  23850801.73748
   1301591.18549   1014227.61447         0.00041  20863751.86347  20863747.14049
  -3577848.33748  -2787928.33046         0.00041  22224994.81546  22224989.27448
 02 07 05 15 54 00.0000000  0  7 06 15 18 21 22 23 26
   -550376.72449   -428864.46647         0.00041  20249294.48847  20249290.15849
  -3230384.38149  -2517180.85346         0.00041  21701874.31746  21701867.04149
  -5404927.94949  -4211626.75446         0.00041  22003915.50946  22003910.18949
  -1802544.35448         0.00041         0.00041         0.00041  24728161.88748
  -3168256.93048  -2468773.05645         0.00041  23842808.51245  23842799.82448
   1337667.54749   1042339.05347         0.00041  20870617.00347  20870612.48949
  -3626208.03248  -2825611.14646         0.00041  22215791.74546  22215786.51748
 02 07 05 15 54 30.0000000  0  8 06 15 17 18 21 22 23 26
   -546880.90049   -426140.45847         0.00041  20249959.75047  20249955.28549
  -3279835.51849  -2555714.17846         0.00041  21692464.62546  21692456.18649
        -0.70359        -0.30156         0.00051  21252026.75956  21252020.66059
  -5487193.11149  -4275729.39346         0.00041  21988261.21646  21988256.14149
  -1895962.43948         0.00041         0.00041         0.00041  24710386.55548
  -3209785.62048  -2501133.13545         0.00041  23834905.57045  23834897.37848
   1374189.40449   1070797.63047         0.00041  20877566.88647  20877562.44749
  -3674040.74948  -2862883.32246         0.00041  22206689.93946  22206684.54748
 02 07 05 15 55 00.0000000  0  8 06 15 17 18 21 22 23 26
   -542949.47549   -423077.02847         0.00041  20250707.82647  20250703.40649
  -3329139.80449  -2594133.08346         0.00041  21683082.17046  21683073.97949
    -31367.52049    -24441.97346         0.00041  21246057.94746  21246051.95049
  -5569139.91549  -4339583.96846         0.00041  21972667.22246  21972661.96449
  -1989257.88548         0.00041         0.00041         0.00041  24692632.14748
  -3250831.46348  -2533116.94845         0.00041  23827095.54945  23827086.61448
   1411110.49049   1099567.29347         0.00041  20884592.77947  20884587.82149
  -3721388.21748  -2899777.39546         0.00041  22197679.91446  22197674.38648
 02 07 05 15 55 30.0000000  0  8 06 15 17 18 21 22 23 26
   -538586.54749   -419677.35947         0.00041  20251538.11447  20251533.75949
  -3378302.38849  -2632441.56046         0.00041  21673726.22346  21673718.90149
    -62611.05949    -48787.58146         0.00041  21240112.47746  21240106.13249
  -5650771.68149  -4403193.05346         0.00041  21957132.92846  21957127.38849
  -2082433.93948         0.00041         0.00041         0.00041  24674900.62748
  -3291398.65148  -2564727.82245         0.00041  23819375.33545  23819366.39948
   1448423.89249   1128642.65447         0.00041  20891693.40347  20891688.51049
  -3768253.00348  -2936295.35746         0.00041  22188762.03046  22188756.14048
 02 07 05 15 56 00.0000000  0  8 06 15 17 18 21 22 23 26
   -533772.78649   -415926.40047         0.00041  20252454.34747  20252449.95449
  -3427305.01849  -2670625.39546         0.00041  21664401.24246  21664394.14649
    -93713.11049    -73022.94346         0.00041  21234194.18146  21234187.55349
  -5732068.44849  -4466541.10346         0.00041  21941662.65346  21941657.23849
  -2175471.14648         0.00041         0.00041         0.00041  24657195.54648
  -3331467.57348  -2595950.43145         0.00041  23811750.73645  23811741.30448
   1486145.99049   1158036.48447         0.00041  20898871.82547  20898867.12849
  -3814614.00748  -2972420.77146         0.00041  22179940.05346  22179934.03948
 02 07 05 15 56 30.0000000  0  8 06 15 17 18 21 22 23 26
   -528479.12049   -411801.48647         0.00041  20253461.61847  20253457.24549
  -3476119.55449  -2708662.66846         0.00041  21655112.28946  21655104.93349
   -124645.64949    -97126.21646         0.00041  21228308.03446  21228301.48449
  -5813000.37849  -4529604.87446         0.00041  21926262.31846  21926256.60049
  -2268339.75948         0.00041         0.00041         0.00041  24639524.68448
  -3371009.17448  -2626762.12345         0.00041  23804226.66145  23804216.48448
   1524303.14049   1187769.31747         0.00041  20906132.72347  20906128.01749
  -3860440.59648  -3008129.76046         0.00041  22171218.78146  22171213.67648
 02 07 05 15 57 00.0000000  0  8 06 15 17 18 21 22 23 26
   -522708.55449   -407304.96747         0.00041  20254559.82447  20254555.46049
  -3524750.24649  -2746556.68746         0.00041  21645857.65946  21645850.94849
   -155412.99449   -121100.76746         0.00041  21222453.23046  21222446.57449
  -5893569.95549  -4592386.28946         0.00041  21910930.50746  21910924.52349
  -2361042.25648         0.00041         0.00041         0.00041  24621881.81848
  -3410026.33348  -2657165.17745         0.00041  23796803.48445  23796792.56248
   1562889.47849   1217836.58047         0.00041  20913475.50047  20913470.70049
  -3905734.08748  -3043423.35046         0.00041  22162600.14146  22162594.60548
 02 07 05 15 57 30.0000000  0  8 06 15 17 18 21 22 23 26
   -516475.08749   -402447.74847         0.00041  20255745.94547  20255741.70749
  -3573211.94649  -2784319.02046         0.00041  21636635.70646  21636629.10349
   -186030.12049   -144958.26446         0.00041  21216626.91046  21216620.35449
  -5973790.85249  -4654896.00746         0.00041  21895665.12646  21895658.74249
  -2453592.05548         0.00041         0.00041         0.00041  24604271.93748
  -3448533.15448  -2687170.57645         0.00041  23789475.40545  23789464.73248
   1601888.20449   1248225.18447         0.00041  20920897.12647  20920892.07449
  -3950506.82848  -3078311.16146         0.00041  22154080.19546  22154074.16548
 02 07 05 15 58 00.0000000  0  8 06 15 17 18 21 22 23 26
   -509802.23049   -397248.14947         0.00041  20257015.78547  20257011.54349
  -3621529.26949  -2821968.84946         0.00041  21627440.94646  21627434.33049
   -216521.55049   -168717.81146         0.00041  21210824.67746  21210818.14049
  -6053685.77149  -4717151.71946         0.00041  21880460.91846  21880454.95949
  -2546012.13648         0.00041         0.00041         0.00041  24586685.19548
  -3486552.97248  -2716796.49645         0.00041  23782239.16545  23782229.73348
   1641273.00549   1278914.62947         0.00041  20928391.50847  20928386.62349
  -3994780.61048  -3112810.17946         0.00041  22145654.64346  22145649.28048
 02 07 05 15 58 30.0000000  0  8 06 15 17 18 21 22 23 26
   -502642.14649   -391668.88947         0.00041  20258378.39147  20258374.01949
  -3669654.96349  -2859469.36046         0.00041  21618283.25046  21618276.27549
   -246840.61449   -192343.05246         0.00041  21205055.27146  21205048.45049
  -6133206.28049  -4779115.68246         0.00041  21865329.09846  21865323.19749
  -2638253.59448  -2055778.96144         0.00041  24569145.27944  24569133.61348
  -3524037.84548  -2746005.56745         0.00041  23775107.80145  23775096.38348
   1681089.10149   1309940.14947         0.00041  20935968.04847  20935963.26049
  -4038505.96148  -3146881.84146         0.00041  22137334.19246  22137328.94848
 02 07 05 15 59 00.0000000  0  8 06 15 17 18 21 22 23 26
   -495023.91949   -385732.63747         0.00041  20259828.18147  20259823.66049
  -3717618.88949  -2896843.81946         0.00041  21609156.07246  21609148.92949
   -277017.22449   -215857.28646         0.00041  21199312.78746  21199305.90349
  -6212380.63749  -4840809.92346         0.00041  21850261.92346  21850256.61849
  -2730344.94848         0.00041         0.00041         0.00041  24551608.47248
  -3561016.86148         0.00041         0.00041         0.00041  23768059.34748
   1721304.45849   1341276.78147         0.00041  20943621.05847  20943616.28849
  -4081710.38848  -3180547.59346         0.00041  22129112.46746  22129107.40048
 02 07 05 15 59 30.0000000  0  8 06 15 17 18 21 22 23 26
   -486953.83649   -379444.28947         0.00041  20261363.89447  20261359.43549
  -3765428.66049  -2934098.15446         0.00041  21600057.99046  21600051.20349
   -307058.97349   -239266.44046         0.00041  21193596.15146  21193589.12349
  -6291214.73849  -4902239.02646         0.00041  21835260.57346  21835254.62949
  -2822292.47448         0.00041         0.00041         0.00041  24534111.62548
  -3597496.34648  -2803246.09645         0.00041  23761128.68045  23761117.51148
   1761909.92749   1372917.39447         0.00041  20951347.69147  20951342.88849
  -4124398.76548  -3213811.23846         0.00041  22120989.28146  22120983.95648
 02 07 05 16 00 00.0000000  0  8 06 15 17 18 21 22 23 26
   -478458.31449   -372824.43447         0.00041  20262980.51547  20262976.20349
  -3813111.48549  -2971253.56746         0.00041  21590984.37446  21590977.27249
   -336992.95849   -262591.61646         0.00041  21187899.57446  21187892.94949
  -6369734.37249  -4963423.09846         0.00041  21820318.77546  21820312.55949
  -2914121.59148         0.00041         0.00041         0.00041  24516636.15748
  -3633502.62548         0.00041         0.00041         0.00041  23754265.68048
   1802876.33649   1404839.25947         0.00041  20959143.44847  20959138.68549
  -4166595.51248  -3246691.79746         0.00041  22112959.82246  22112954.07348
 02 07 05 16 00 30.0000000  0  8 06 15 17 18 21 22 23 26
   -469496.72749   -365841.41047         0.00041  20264685.86447  20264681.45149
  -3860627.70449  -3008279.16846         0.00041  21581942.71346  21581935.13249
   -366779.84349   -285802.16946         0.00041  21182231.37946  21182224.73949
  -6447898.23249  -5024329.94546         0.00041  21805444.06846  21805438.52149
  -3005790.90948         0.00041         0.00041         0.00041  24499191.76448
  -3668995.06448         0.00041         0.00041         0.00041  23747512.14948
   1844241.42449   1437071.78247         0.00041  20967015.27847  20967010.47349
  -4208258.63048  -3279156.54046         0.00041  22105031.56646  22105026.16248
 02 07 05 16 01 00.0000000  0  8 06 15 17 18 21 22 23 26
   -460056.93349   -358485.75947         0.00041  20266482.19747  20266477.61049
  -3907965.99649  -3045166.12146         0.00041  21572934.04546  21572926.96749
   -396408.29649   -308889.27246         0.00041  21176593.41146  21176586.68849
  -6525693.46849  -5084949.55546         0.00041  21790640.31246  21790635.02549
  -3097287.74448         0.00041         0.00041         0.00041  24481780.30548
  -3703961.61648         0.00041         0.00041         0.00041  23740857.82048
   1886014.47049   1469622.19347         0.00041  20974964.29547  20974959.31349
  -4249374.34348  -3311194.73246         0.00041  22097206.70146  22097201.91548
 02 07 05 16 01 30.0000000  0  8 06 15 17 18 21 22 23 26
   -450143.23649   -350760.83047         0.00041  20268368.81247  20268364.19849
  -3955131.63449  -3081918.53846         0.00041  21563958.44746  21563951.65049
   -425883.65749   -331857.07446         0.00041  21170984.31546  21170977.73749
  -6603124.08949  -5145285.04846         0.00041  21775906.02746  21775900.59549
  -3188616.18948         0.00041         0.00041         0.00041  24464400.68048
  -3738406.42348         0.00041         0.00041         0.00041  23734303.27048
   1928188.54949   1502485.09547         0.00041  20982989.82147  20982984.73049
  -4289945.48848  -3342808.58346         0.00041  22089486.83646  22089481.05648
 02 07 05 16 02 00.0000000  0  8 06 15 17 18 21 22 23 26
   -439730.82649   -342647.30047         0.00041  20270350.20847  20270345.65149
  -4002100.61549  -3118517.72046         0.00041  21555020.63346  21555013.60149
   -455182.10549   -354687.02546         0.00041  21165408.96846  21165402.46449
  -6680164.41749  -5205316.41546         0.00041  21761245.82646  21761240.02849
  -3279750.40448         0.00041         0.00041         0.00041  24447058.10448
  -3772304.83148         0.00041         0.00041         0.00041  23727852.33548
   1970785.65749   1535677.63147         0.00041  20991095.63747  20991091.10049
  -4329945.55548  -3373977.44046         0.00041  22081875.19846  22081869.65948
 02 07 05 16 02 30.0000000  0  8 06 15 17 18 21 22 23 26
   -428825.26449   -334149.49347         0.00041  20272425.52247  20272421.11349
  -4048879.13349  -3154968.49346         0.00041  21546118.82246  21546112.08649
   -484309.71449   -377383.85146         0.00041  21159866.15946  21159859.63349
  -6756819.27949  -5265047.42346         0.00041  21746658.46046  21746652.86049
  -3370695.36748         0.00041         0.00041         0.00041  24429750.54048
  -3805662.16948  -2965453.70345         0.00041  23721515.91645  23721504.49848
   2013797.54849   1569193.37647         0.00041  20999280.65047  20999276.02949
  -4369378.41748  -3404704.32246         0.00041  22074370.67546  22074365.33448
 02 07 05 16 03 00.0000000  0  8 06 15 17 18 21 22 23 26
   -417456.97149   -325291.11647         0.00041  20274588.87047  20274584.45849
  -4095498.32349  -3191295.10246         0.00041  21537247.63546  21537241.07649
   -513298.16149   -399972.24446         0.00041  21154349.78746  21154343.10949
  -6833118.74749  -5324501.50046         0.00041  21732139.29046  21732133.62549
  -3461481.25648         0.00041         0.00041         0.00041  24412475.17848
  -3838509.26448         0.00041         0.00041         0.00041  23715253.96048
   2057190.90249   1603006.36447         0.00041  21007538.17747  21007533.37049
  -4408273.07648  -3435011.81446         0.00041  22066970.52446  22066963.87648
 02 07 05 16 03 30.0000000  0  8 06 15 17 18 21 22 23 26
   -405657.45749   -316096.72347         0.00041  20276834.17947  20276829.80549
  -4141990.36649  -3227522.64346         0.00041  21528400.60546  21528393.58949
   -542179.58549   -422477.24846         0.00041  21148853.71446  21148847.30449
  -6909093.35549  -5383702.43846         0.00041  21717681.32846  21717676.09849
  -3552138.65048         0.00041         0.00041         0.00041  24395224.32548
  -3870877.21948         0.00041         0.00041         0.00041  23709095.22648
   2100931.62849   1637090.02747         0.00041  21015862.07147  21015856.98049
  -4446659.36748  -3464923.18246         0.00041  22059664.70846  22059659.40248
 02 07 05 16 04 00.0000000  0  8 06 15 17 18 21 22 23 26
   -393430.18149   -306569.00747         0.00041  20279160.90247  20279156.54749
  -4188359.47149  -3263654.38646         0.00041  21519577.21446  21519569.81849
   -570958.27249   -444902.18746         0.00041  21143377.18846  21143371.17949
  -6984746.09849  -5442652.57346         0.00041  21703285.33446  21703279.99249
  -3642670.46148         0.00041         0.00041         0.00041  24377996.93748
  -3902769.68748  -3041122.09845         0.00041  23703037.64945  23703027.22448
   2145013.38549   1671439.43047         0.00041  21024250.15747  21024245.45549
  -4484539.17948  -3494439.89546         0.00041  22052456.36346  22052451.53448
 02 07 05 16 04 30.0000000  0  8 06 15 17 18 21 22 23 26
   -380719.40349   -296664.53547         0.00041  20281579.84247  20281575.47549
  -4234550.77649  -3299647.58546         0.00041  21510787.06446  21510779.68949
   -599579.43249   -467204.38246         0.00041  21137930.74046  21137924.69049
  -7060020.36549  -5501307.79546         0.00041  21688961.14146  21688955.40549
  -3733019.81048         0.00041         0.00041         0.00041  24360803.52748
  -3934130.85748  -3065559.43345         0.00041  23697069.97845  23697059.80148
   2189489.04449   1706095.77247         0.00041  21032713.54447  21032708.84849
  -4521855.38848  -3523517.43046         0.00041  22045355.93746  22045350.07748
 02 07 05 16 05 00.0000000  0  8 06 15 17 18 21 22 23 26
   -367519.20249   -286378.69347         0.00041  20284091.75547  20284087.29149
  -4280559.06349  -3335498.17446         0.00041  21502032.01046  21502024.90049
   -628037.65749   -489379.61546         0.00041  21132515.30046  21132509.18649
  -7134909.53049  -5559662.93446         0.00041  21674710.10446  21674704.46749
  -3823180.45548         0.00041         0.00041         0.00041  24343646.57948
  -3964954.96948  -3089578.30845         0.00041  23691203.25845  23691193.82548
   2234361.98249   1741061.68347         0.00041  21041252.61047  21041247.88649
  -4558600.16248  -3552149.70046         0.00041  22038363.54246  22038357.94848
 02 07 05 16 05 30.0000000  0  8 06 15 17 18 21 22 23 26
   -353803.67749   -275691.30147         0.00041  20286701.94747  20286697.39849
  -4326359.15349  -3371186.52646         0.00041  21493316.33646  21493309.47349
   -656308.11549   -511408.53546         0.00041  21127135.62046  21127129.51449
  -7209387.32749  -5617697.53246         0.00041  21660537.31046  21660531.99949
  -3913125.77848         0.00041         0.00041         0.00041  24326531.01248
  -3995215.99148         0.00041         0.00041         0.00041  23685433.79348
   2279655.34249   1776355.19447         0.00041  21049871.69647  21049866.98849
  -4594746.30148  -3580315.50346         0.00041  22031485.27746  22031479.59548
 02 07 05 16 06 00.0000000  0  8 06 15 17 18 21 22 23 26
   -339600.88149   -264624.21647         0.00041  20289404.47447  20289400.00449
  -4371979.77449  -3406735.03146         0.00041  21484635.31346  21484627.96849
   -684419.33049   -533313.37146         0.00041  21121786.30346  21121779.97449
  -7283481.05449  -5675432.85346         0.00041  21646437.36446  21646432.67549
  -4002882.53348         0.00041         0.00041         0.00041  24309450.83948
  -4024942.07648         0.00041         0.00041         0.00041  23679776.94348
   2325338.35349   1811952.32647         0.00041  21058565.05847  21058560.09749
  -4630320.27148  -3608035.45746         0.00041  22024715.08546  22024710.08248
 02 07 05 16 06 30.0000000  0  8 06 15 17 18 21 22 23 26
   -324894.41149   -253164.65947         0.00041  20292203.12347  20292198.51049
  -4417404.94849  -3442131.23846         0.00041  21475991.07846  21475983.40249
   -712355.83249   -555082.06346         0.00041  21116469.86546  21116463.64549
  -7357173.47149  -5732855.46646         0.00041  21632414.69346  21632409.32049
  -4092433.98748  -3188904.42245         0.00041  24292421.64845  24292409.98248
  -4054116.97948         0.00041         0.00041         0.00041  23674225.38348
   2371424.82849   1847863.84447         0.00041  21067334.96447  21067330.05449
  -4665304.32248  -3635295.73846         0.00041  22018058.13646  22018053.04348
 02 07 05 16 07 00.0000000  0  8 06 15 17 18 21 22 23 26
   -309695.00549   -241320.99747         0.00041  20295095.42847  20295090.85049
  -4462645.91649  -3477383.91446         0.00041  21467381.71346  21467374.20349
   -740129.07049   -576723.54346         0.00041  21111184.99746  21111178.62249
  -7430474.90749  -5789973.41946         0.00041  21618466.11146  21618460.10549
  -4181789.89248  -3258532.30845         0.00041  24275418.04445  24275406.37848
  -4082751.44048         0.00041         0.00041         0.00041  23668776.15948
   2417901.45549   1884079.37947         0.00041  21076179.29447  21076174.38549
  -4699707.34648  -3662103.25946         0.00041  22011511.41246  22011506.09148
 02 07 05 16 07 30.0000000  0  8 06 15 17 18 21 22 23 26
   -294005.05249   -229095.09147         0.00041  20298081.14247  20298076.87249
  -4507705.96949  -3512495.61346         0.00041  21458806.95746  21458799.76249
   -767742.02349   -598240.11946         0.00041  21105930.45446  21105924.44849
  -7503386.85749  -5846787.88546         0.00041  21604591.21446  21604585.32349
  -4270952.56348         0.00041         0.00041         0.00041  24258439.52648
  -4110847.89448  -3203263.03745         0.00041  23663435.78145  23663430.85648
   2464763.00049   1920594.84447         0.00041  21085096.67447  21085091.63749
  -4733530.45448  -3688458.89646         0.00041  22005075.70746  22005069.51548
 02 07 05 16 08 00.0000000  0  8 06 15 17 18 21 22 23 26
   -277840.81849   -216499.61847         0.00041  20301157.19147  20301152.71449
  -4552601.88049  -3547479.40946         0.00041  21450263.39546  21450256.65149
   -795211.65349   -619645.01646         0.00041  21100702.96646  21100697.23149
  -7575924.87049  -5903310.96846         0.00041  21590787.23646  21590781.88449
  -4359936.69448  -3397347.79345         0.00041  24241518.07145  24241506.40548
  -4138422.56948  -3224753.75946         0.00041  23658190.16146  23658184.82748
   2511990.68749   1957395.61447         0.00041  21094083.97947  21094078.91349
  -4766788.21048  -3714374.00146         0.00041  21998746.28246  21998741.12148
 02 07 05 16 08 30.0000000  0  8 06 15 17 18 21 22 23 26
   -261228.92049   -203555.31347         0.00041  20304318.38347  20304313.83349
  -4597360.63749  -3582356.33646         0.00041  21441746.59146  21441739.16349
   -822565.07349   -640959.35846         0.00041  21095497.81946  21095491.70449
  -7648114.98149  -5959562.95646         0.00041  21577049.92346  21577044.52049
  -4448768.16948  -3466567.03045         0.00041  24224613.00545  24224601.33948
  -4165502.10048  -3245853.15144         0.00041  23653043.05144  23653032.37848
   2559555.25349   1994458.89047         0.00041  21103135.05747  21103130.23749
  -4799505.89548  -3739868.27446         0.00041  21992520.00546  21992515.19248
 02 07 05 16 09 00.0000000  0  8 06 15 17 18 21 22 23 26
   -244152.67849   -190249.18347         0.00041  20307567.93647  20307563.38649
  -4641966.53449  -3617114.15246         0.00041  21433258.49246  21433251.17949
   -849786.39349   -662170.77046         0.00041  21090317.96346  21090311.77249
  -7719939.81449  -6015530.31246         0.00041  21563382.02146  21563376.60249
  -4537430.13648         0.00041         0.00041         0.00041  24207728.93248
  -4192070.15448  -3266555.67744         0.00041  23647985.57844  23647976.39448
   2607470.67649   2031795.56047         0.00041  21112253.01247  21112248.16749
  -4831665.19848  -3764927.44546         0.00041  21986400.52146  21986395.15548
 02 07 05 16 09 30.0000000  0  8 06 15 17 18 21 22 23 26
   -226602.53749   -176573.78247         0.00041  20310907.45047  20310902.96449
  -4686410.20949  -3651745.56146         0.00041  21424800.59946  21424793.90649
   -876866.60349   -683272.22046         0.00041  21085164.84246  21085158.79549
  -7791389.04849  -6071204.99546         0.00041  21549785.86646  21549780.59049
  -4625911.99348         0.00041         0.00041         0.00041  24190892.12448
  -4218117.06948         0.00041         0.00041         0.00041  23643018.84048
   2655743.90949   2069411.03947         0.00041  21121439.16247  21121434.41649
  -4863255.18048  -3789542.98546         0.00041  21980389.00446  21980383.86648
 02 07 05 16 10 00.0000000  0  8 06 15 17 18 21 22 23 26
   -208540.49449   -162499.49647         0.00041  20314344.75947  20314340.27649
  -4730654.44249  -3686221.55946         0.00041  21416381.56546  21416374.30349
   -903768.26149   -704234.54246         0.00041  21080045.87746  21080039.31049
  -7862424.01249  -6126556.87846         0.00041  21536268.30546  21536262.94249
  -4714174.90148  -3673377.13845         0.00041  24174107.55445  24174096.63248
  -4243604.98848         0.00041         0.00041         0.00041  23638168.09548
   2704410.33449   2107332.90547         0.00041  21130700.21447  21130695.33449
  -4894236.35248  -3813684.13146         0.00041  21974493.41546  21974487.98648
 02 07 05 16 10 30.0000000  0  8 06 15 17 18 21 22 23 26
   -189992.53649   -148046.57647         0.00041  20317874.47047  20317869.63549
  -4774725.34849  -3720562.49846         0.00041  21407995.13246  21407987.73849
   -930517.74849   -725078.29146         0.00041  21074955.49046  21074948.81349
  -7933069.78749  -6181605.49446         0.00041  21522824.81746  21522819.81749
  -4802244.10948         0.00041         0.00041         0.00041  24157336.97148
  -4268559.99348         0.00041         0.00041         0.00041  23633419.20048
   2753441.42249   2145538.92147         0.00041  21140030.42347  21140025.50149
  -4924633.23448  -3837369.97846         0.00041  21968709.69346  21968704.01448
 02 07 05 16 11 00.0000000  0  8 06 15 17 18 21 22 23 26
   -170967.33449   -133221.77547         0.00041  20321494.74347  20321490.05249
  -4818632.29749  -3754775.67746         0.00041  21399639.66146  21399632.65449
   -957124.51149   -745810.82946         0.00041  21069892.04546  21069885.78949
  -8003334.63449  -6236357.28446         0.00041  21509453.67046  21509448.68349
  -4890127.46248  -3810482.77845         0.00041  24140624.26945  24140613.84448
  -4292991.02348  -3345195.65044         0.00041  23628779.52344  23628770.33948
   2802825.61949   2184020.08847         0.00041  21149428.21047  21149423.34149
  -4954453.15248  -3860606.24246         0.00041  21963034.61046  21963029.44048
 02 07 05 16 11 30.0000000  0  8 06 15 17 18 21 22 23 26
   -151465.35549   -118025.45647         0.00041  20325205.94447  20325201.19749
  -4862376.09149  -3788861.71846         0.00041  21391315.57446  21391308.65549
   -983589.42249   -766432.82646         0.00041  21064855.79046  21064849.85449
  -8073218.36449  -6290812.09946         0.00041  21496154.86346  21496149.96149
  -4977824.90648         0.00041         0.00041         0.00041  24123924.76648
  -4316898.30948  -3363824.72544         0.00041  23624230.94744  23624221.51548
   2852560.01049   2222774.13147         0.00041  21158892.13447  21158887.36149
  -4983694.98848  -3883392.06346         0.00041  21957470.23746  21957464.69348
 02 07 05 16 12 00.0000000  0  8 06 15 17 18 21 22 23 26
   -131473.46649   -102447.39747         0.00041  20329010.19447  20329005.63249
  -4905944.03949  -3822810.73946         0.00041  21383024.60346  21383017.60249
  -1009899.82849   -786934.43246         0.00041  21059849.20246  21059843.06949
  -8142707.08549  -6344959.11746         0.00041  21482931.88146  21482927.05549
  -5065322.30048  -3946997.97244         0.00041  24107285.89544  24107274.47748
  -4340268.99248  -3382035.70444         0.00041  23619783.55644  23619774.62048
   2902655.27149   2261809.37147         0.00041  21168425.03047  21168420.21949
  -5012344.19948  -3905716.09046         0.00041  21952017.96846  21952012.90448
 02 07 05 16 12 30.0000000  0  8 06 15 17 18 21 22 23 26
   -110987.37149    -86484.23947         0.00041  20332908.67447  20332904.05749
  -4949332.41349  -3856619.83546         0.00041  21374768.32546  21374761.01949
  -1036051.92849   -807312.68646         0.00041  21054872.46146  21054866.46849
  -8211795.72949  -6398794.38346         0.00041  21469784.54246  21469779.66149
  -5152614.17448  -4015017.44845         0.00041  24090674.38445  24090663.95948
  -4363098.68948  -3399825.15645         0.00041  23615438.93745  23615430.49848
   2953113.11349   2301127.14547         0.00041  21178026.68447  21178022.00349
  -5040395.06648  -3927573.87246         0.00041  21946680.06746  21946675.38548
 02 07 05 16 13 00.0000000  0  8 06 15 17 18 21 22 23 26
    -90031.77849    -70155.23547         0.00041  20336896.35547  20336891.83749
  -4992566.07649  -3890308.37646         0.00041  21366541.21046  21366534.08049
  -1062070.59249   -827586.96246         0.00041  21049921.42346  21049915.50149
  -8280508.16849  -6452336.50946         0.00041  21456709.12146  21456703.68849
  -5239724.33648  -4082895.33644         0.00041  24074096.64744  24074086.71848
  -4385412.56548  -3417212.66745         0.00041  23611193.78245  23611183.85348
   3003906.27249   2340706.20247         0.00041  21187692.26247  21187687.49849
  -5067870.80348  -3948983.51546         0.00041  21941452.55046  21941446.59848
 02 07 05 16 13 30.0000000  0  8 06 15 17 18 21 22 23 26
    -68599.21849    -53454.56947         0.00041  20340974.82547  20340970.22649
  -5035637.72149  -3923870.67546         0.00041  21358345.23346  21358337.89549
  -1087948.84849   -847751.82946         0.00041  21044996.91446  21044991.04649
  -8348836.14449  -6505579.05146         0.00041  21443706.79846  21443701.63949
  -5326644.64848         0.00041         0.00041         0.00041  24057545.43348
  -4407203.10048         0.00041         0.00041         0.00041  23607036.26248
   3055039.76249   2380550.44547         0.00041  21197422.89647  21197417.95649
  -5094762.40948  -3969937.98546         0.00041  21936335.20846  21936329.22948
 02 07 05 16 14 00.0000000  0  8 06 15 17 18 21 22 23 26
    -46682.11349    -36376.33947         0.00041  20345145.71547  20345141.05549
  -5078540.40849  -3957301.32246         0.00041  21350180.46546  21350173.77349
  -1113679.77349   -867801.89346         0.00041  21040100.68546  21040094.56249
  -8416771.55749  -6558515.69846         0.00041  21430779.22946  21430773.99949
  -5413367.05648  -4218200.99945         0.00041  24041054.79745  24041043.37948
  -4428462.78048         0.00041         0.00041         0.00041  23602990.27748
   3106518.59249   2420663.78347         0.00041  21207218.97747  21207214.23349
  -5121061.15948  -3990430.50346         0.00041  21931329.98946  21931324.68948
 02 07 05 16 14 30.0000000  0  8 06 15 17 18 21 22 23 26
    -24290.54649    -18928.39647         0.00041  20349406.64447  20349402.12549
  -5121284.49149  -3990608.37546         0.00041  21342046.66146  21342039.92949
  -1139273.84149   -887745.32447         0.00041  21035230.34147  21035224.20649
  -8484323.64949  -6611153.65546         0.00041  21417923.89046  21417919.18749
  -5499900.60348         0.00041         0.00041         0.00041  24024575.38148
  -4449202.12948         0.00041         0.00041         0.00041  23599044.36948
   3158330.12949   2461036.37547         0.00041  21217078.22947  21217073.61949
  -5146775.78848  -4010467.80746         0.00041  21926436.41846  21926431.31048
 02 07 05 16 15 00.0000000  0  8 06 15 17 18 21 22 23 26
     -1424.08549     -1110.40947         0.00041  20353758.02347  20353753.38549
  -5163869.74149  -4023791.65946         0.00041  21333943.11646  21333935.96649
  -1164730.64949   -907581.78846         0.00041  21030386.06446  21030379.93249
  -8551491.35649  -6663492.09146         0.00041  21405142.95346  21405137.40249
  -5586243.41648         0.00041         0.00041         0.00041  24008144.49748
  -4469420.64248  -3482673.73645         0.00041  23595207.33345  23595197.90048
   3210472.42649   2501666.70347         0.00041  21227000.62447  21226996.13549
  -5171904.29848  -4030048.45846         0.00041  21921654.48046  21921649.37848
 02 07 05 16 15 30.0000000  0  8 06 15 17 18 21 22 23 26
     21953.91749     17106.17947         0.00041  20358206.78347  20358202.13549
  -5206259.70149  -4056822.76646         0.00041  21325876.46246  21325869.14549
  -1190013.92449   -927283.03546         0.00041  21025574.38346  21025568.41249
  -8618237.22449  -6715501.82446         0.00041  21392441.06546  21392436.08649
  -5672358.24948  -4420011.77945         0.00041  23991769.51545  23991757.84848
  -4489081.59548  -3497994.06145         0.00041  23591465.21745  23591456.77848
   3262979.66549   2542581.40047         0.00041  21236992.28647  21236987.61949
  -5196408.71048  -4049142.78246         0.00041  21916991.64146  21916986.33248
 02 07 05 16 16 00.0000000  0  8 06 15 17 18 21 22 23 26
     45855.85049     35731.02847         0.00041  20362755.25147  20362750.53049
  -5248442.41449  -4089692.38246         0.00041  21317848.95246  21317842.07849
  -1215111.72549   -946839.76146         0.00041  21020798.49646  21020792.24449
  -8684548.15849  -6767172.64646         0.00041  21379822.74146  21379817.37349
  -5758232.03748         0.00041         0.00041         0.00041  23975415.23048
  -4508173.11248  -3512870.62245         0.00041  23587833.18445  23587824.74448
   3315861.84449   2583788.25247         0.00041  21247055.88747  21247050.86949
  -5220275.35848  -4067740.14046         0.00041  21912449.97146  21912444.81148
 02 07 05 16 16 30.0000000  0  8 06 15 17 18 21 22 23 26
     70260.99349     54747.98547         0.00041  20367399.40647  20367394.60449
  -5290438.71849  -4122416.74446         0.00041  21309857.14746  21309850.54449
  -1240044.91949   -966268.21746         0.00041  21016054.06246  21016047.80449
  -8750443.85849  -6818519.91246         0.00041  21367282.87646  21367277.76649
  -5843884.41148         0.00041         0.00041         0.00041  23959116.22348
  -4526715.84348  -3527319.60945         0.00041  23584307.20345  23584296.28148
   3369095.90749   2625269.30347         0.00041  21257186.11847  21257181.28049
  -5243523.39248  -4085855.47046         0.00041  21908026.09946  21908020.88948
 02 07 05 16 17 00.0000000  0  8 06 15 17 18 21 22 23 26
     95151.49249     74143.14147         0.00041  20372135.98947  20372131.27749
  -5332266.59749  -4155009.86046         0.00041  21301897.75446  21301890.72149
  -1264831.56949   -985582.48146         0.00041  21011337.35146  21011331.38049
  -8815941.62449  -6869557.09046         0.00041  21354819.45446  21354814.04349
  -5929332.91548         0.00041         0.00041         0.00041  23942856.29048
  -4544727.72648  -3541354.90745         0.00041  23580877.38545  23580868.20148
   3422661.51549   2667008.70247         0.00041  21267379.17447  21267374.44149
  -5266169.36948  -4103501.66546         0.00041  21903716.97246  21903711.38948
 02 07 05 16 17 30.0000000  0  8 06 15 17 18 21 22 23 26
    120527.36549     93916.51147         0.00041  20376964.77047  20376960.04649
  -5373926.54349  -4187472.12546         0.00041  21293970.32946  21293963.13349
  -1289471.88049  -1004782.71346         0.00041  21006648.40046  21006642.27649
  -8881040.90049  -6920283.76446         0.00041  21342431.25046  21342426.16049
  -6014576.00448         0.00041         0.00041         0.00041  23926635.60648
  -4562209.11648  -3554976.83145         0.00041  23577552.12845  23577541.20748
   3476556.05949   2709004.41747         0.00041  21277634.98947  21277630.16649
  -5288211.94648  -4120677.67746         0.00041  21899521.78646  21899516.78748
 02 07 05 16 18 00.0000000  0  8 06 15 17 18 21 22 23 26
    146407.18249    114082.56647         0.00041  20381889.72347  20381884.89649
  -5415399.82649  -4219788.93546         0.00041  21286078.16946  21286071.14849
  -1313947.55449  -1023854.65646         0.00041  21001990.69046  21001984.57349
  -8945721.97849  -6970684.56746         0.00041  21330122.95646  21330117.79349
  -6099594.29948  -4752922.08645         0.00041  23910466.92045  23910456.99148
  -4579141.61748         0.00041         0.00041         0.00041  23574318.88448
   3530795.83849   2751269.14547         0.00041  21287956.41447  21287951.63649
  -5309631.32648  -4137368.07846         0.00041  21895445.84546  21895440.94548
 02 07 05 16 18 30.0000000  0  8 06 15 17 18 21 22 23 26
    172798.79349    134647.42347         0.00041  20386912.04147  20386907.06949
  -5456678.72349  -4251954.27846         0.00041  21278223.00446  21278216.05649
  -1338250.78449  -1042792.22446         0.00041  20997366.02746  20997359.97149
  -9009976.35249  -7020752.87646         0.00041  21317895.80046  21317890.74149
  -6184378.46748  -4818987.51745         0.00041  23894333.75145  23894323.82348
  -4595517.48148  -3580931.55945         0.00041  23571213.17845  23571202.25748
   3585386.25949   2793807.10347         0.00041  21298344.81447  21298339.92849
  -5330418.22648  -4153565.63746         0.00041  21891490.67746  21891485.58948
 02 07 05 16 19 00.0000000  0  8 06 15 17 18 21 22 23 26
    199654.53649    155573.94247         0.00041  20392022.26547  20392017.55049
  -5497810.83849  -4284005.24346         0.00041  21270395.57446  21270388.76449
  -1362429.48349  -1061632.75246         0.00041  20992764.98046  20992759.06349
  -9073851.05549  -7070525.33946         0.00041  21305740.99446  21305735.69649
  -6268975.81948  -4884907.37045         0.00041  23878234.65445  23878224.97348
  -4611384.45448         0.00041         0.00041         0.00041  23568182.59848
   3640277.26149   2836579.28347         0.00041  21308790.10147  21308785.55449
  -5350618.98148  -4169306.47146         0.00041  21887646.48646  21887641.19748
 02 07 05 16 19 30.0000000  0  8 06 15 17 18 21 22 23 26
    226942.23749    176837.04847         0.00041  20397215.23547  20397210.20749
  -5538828.61349  -4315967.11346         0.00041  21262590.38346  21262583.42949
  -1386515.86849  -1080401.35346         0.00041  20988181.68246  20988175.42949
  -9137377.38649  -7120026.34546         0.00041  21293651.76646  21293646.69849
  -6353417.06248         0.00041         0.00041         0.00041  23862155.14948
  -4626775.04748         0.00041         0.00041         0.00041  23565253.88548
   3695434.41349   2879558.85247         0.00041  21319286.51447  21319281.44749
  -5370264.59448  -4184614.72846         0.00041  21883908.01646  21883902.86248
 02 07 05 16 20 00.0000000  0  8 06 15 17 18 21 22 23 26
    254799.97849    198544.34447         0.00041  20402516.23547  20402511.56949
  -5579593.97649  -4347732.29346         0.00041  21254833.10846  21254826.23149
  -1410371.95549  -1098990.50146         0.00041  20983641.90946  20983635.77249
  -9200416.43049  -7169147.64446         0.00041  21281656.00746  21281651.14149
  -6437563.56248         0.00041         0.00041         0.00041  23846143.67148
  -4641551.14448  -3616802.08845         0.00041  23562453.86245  23562442.44448
   3750993.69249   2922851.75747         0.00041  21329859.16047  21329853.95749
  -5389215.42549  -4199381.60046         0.00041  21880301.81246  21880296.66149
 02 07 05 16 20 30.0000000  0  8 06 15 17 18 21 22 23 26
    283158.21149    220641.63447         0.00041  20407912.54247  20407907.84349
  -5620176.77949  -4379355.21846         0.00041  21247110.14146  21247103.37449
  -1434067.55149  -1117454.58546         0.00041  20979132.58046  20979126.67349
  -9263037.22849  -7217943.04146         0.00041  21269739.62746  21269734.54549
  -6521483.60748         0.00041         0.00041         0.00041  23830173.33448
  -4655782.68748         0.00041         0.00041         0.00041  23559734.55448
   3806882.82749   2966401.69647         0.00041  21340494.41047  21340489.35349
  -5407540.01648  -4213660.48846         0.00041  21876814.66946  21876809.61548
 02 07 05 16 21 00.0000000  0  8 06 15 17 18 21 22 23 26
    311806.47449    242964.92147         0.00041  20413364.54647  20413359.59849
  -5660787.40749  -4410999.82446         0.00041  21239381.80046  21239375.46249
  -1457813.07649  -1135957.56846         0.00041  20974614.12246  20974608.10449
  -9325449.23149  -7266575.73646         0.00041  21257862.83446  21257857.57749
  -6605387.20748         0.00041         0.00041         0.00041  23814207.32948
  -4669680.42448  -3638721.14145         0.00041  23557099.95745  23557090.02848
   3862889.07349   3010042.89347         0.00041  21351151.99347  21351147.05349
  -5425447.49848  -4227614.35046         0.00041  21873406.97146  21873401.70948
 02 07 05 16 21 30.0000000  0  8 06 15 17 18 21 22 23 26
    340930.10549    265658.62547         0.00041  20418906.31147  20418901.60449
  -5701240.63949  -4442521.78346         0.00041  21231683.78146  21231677.60649
  -1481423.17649  -1154355.02746         0.00041  20970121.27746  20970115.03849
  -9387466.31149  -7314900.69946         0.00041  21246061.43746  21246056.48049
  -6689087.17548  -5212266.23745         0.00041  23798291.60545  23798280.68448
  -4683059.05748         0.00041         0.00041         0.00041  23554543.77648
   3919195.58549   3053918.06347         0.00041  21361866.82847  21361862.01749
  -5442751.19548  -4241097.73946         0.00041  21870114.26446  21870108.81848
 02 07 05 16 22 00.0000000  0  8 06 15 17 18 21 22 23 26
    370641.27949    288810.15547         0.00041  20424560.31247  20424555.34049
  -5741424.06249  -4473833.49846         0.00041  21224037.32046  21224030.55249
  -1504785.76949  -1172559.62446         0.00041  20965675.43846  20965669.32849
  -9448975.38749  -7362829.81246         0.00041  21234356.71446  21234351.65949
  -6772470.64848         0.00041         0.00041         0.00041  23782411.68248
  -4695806.50848  -3659079.23645         0.00041  23552129.64845  23552118.23048
   3975912.38349   3098112.93547         0.00041  21372659.66347  21372654.87449
  -5459337.70348  -4254022.28046         0.00041  21866957.54046  21866952.22448
 02 07 05 16 22 30.0000000  0  8 06 15 17 18 21 22 23 26
    400886.45949    312377.78947         0.00041  20430315.84847  20430310.87449
  -5781391.25749  -4504976.72746         0.00041  21216432.03346  21216425.11249
  -1527954.28849  -1190612.99646         0.00041  20961266.48046  20961260.63649
  -9510029.34449  -7410404.29046         0.00041  21222738.47946  21222733.61649
  -6855590.25448         0.00041         0.00041         0.00041  23766594.01948
  -4707976.79848  -3668562.65145         0.00041  23549813.82245  23549802.65248
   4032983.72049   3142584.06847         0.00041  21383520.36047  21383515.10049
  -5475259.35949  -4266428.74246         0.00041  21863927.64346  21863922.84049
 02 07 05 16 23 00.0000000  0  8 06 15 17 18 21 22 23 26
    431637.70449    336339.76047         0.00041  20436167.76147  20436162.76249
  -5821170.10349  -4535973.18946         0.00041  21208862.44246  21208855.64849
  -1550956.49649  -1208536.77247         0.00041  20956889.44447  20956883.51649
  -9570655.23449  -7457645.20646         0.00041  21211201.60246  21211196.90149
  -6938473.05248         0.00041         0.00041         0.00041  23750823.17448
  -4719597.94748  -3677618.12245         0.00041  23547601.99645  23547590.82648
   4090379.42549   3187307.95647         0.00041  21394442.09447  21394437.10349
  -5490542.82149  -4278337.91846         0.00041  21861019.63246  21861014.75149
 02 07 05 16 23 30.0000000  0  8 06 15 17 18 21 22 23 26
    462897.44849    360697.96147         0.00041  20442116.09347  20442111.42049
  -5860757.92549  -4566820.80146         0.00041  21201329.03846  21201322.59849
  -1573789.97049  -1226329.06847         0.00041  20952544.56147  20952538.31649
  -9630849.84549  -7504550.06346         0.00041  21199746.94946  21199742.11249
  -7021115.39648         0.00041         0.00041         0.00041  23735096.16948
  -4730667.70248         0.00041         0.00041         0.00041  23545484.80548
   4148099.59749   3232284.67947         0.00041  21405426.15347  21405420.93049
  -5505184.39849  -4289746.92946         0.00041  21858233.52946  21858228.47349
 02 07 05 16 24 00.0000000  0  8 06 15 17 18 21 22 23 26
    494656.72149    385445.40847         0.00041  20448159.79147  20448154.82549
  -5900163.61449  -4597526.48946         0.00041  21193830.15046  21193823.66749
  -1596463.86849  -1243997.02047         0.00041  20948229.87747  20948223.48249
  -9690621.43349  -7551125.29646         0.00041  21188372.94046  21188367.92749
  -7103525.16748         0.00041         0.00041         0.00041  23719413.90948
  -4741195.31348  -3694447.30245         0.00041  23543492.81545  23543481.39748
   4206133.07649   3277505.54247         0.00041  21416469.48347  21416464.37849
  -5519191.89449  -4300661.84746         0.00041  21855568.15846  21855562.63849
 02 07 05 16 24 30.0000000  0  8 06 15 17 18 21 22 23 26
    526908.21349    410576.39947         0.00041  20454297.23247  20454292.29449
  -5939394.29249  -4628095.80246         0.00041  21186364.71246  21186358.06549
  -1618985.06949  -1261545.98847         0.00041  20943944.12247  20943937.88749
  -9749976.30649  -7597375.81246         0.00041  21177077.90146  21177073.08349
  -7185708.85848         0.00041         0.00041         0.00041  23703775.17548
  -4751188.44248  -3702234.17345         0.00041  23541591.68945  23541581.01648
   4264470.37049   3322963.13847         0.00041  21427570.60147  21427565.40649
  -5532571.46949  -4311087.47846         0.00041  21853022.33646  21853016.62749
 02 07 05 16 25 00.0000000  0  8 06 15 17 18 21 22 23 26
    559624.38849    436069.47947         0.00041  20460522.86047  20460518.12449
  -5978477.36549  -4658550.10746         0.00041  21178927.27846  21178920.64149
  -1641381.05049  -1278997.37546         0.00041  20939682.19046  20939676.13049
  -9808941.24449  -7643322.47647         0.00041  21165857.02847  21165852.37349
  -7267692.75648         0.00041         0.00041         0.00041  23688173.04948
  -4760674.61548  -3709626.03645         0.00041  23539787.29445  23539776.37248
   4323081.82949   3368634.37147         0.00041  21438724.29047  21438719.09549
  -5545349.49048  -4321044.36346         0.00041  21850590.93646  21850585.16348
 02 07 05 16 25 30.0000000  0  8 06 15 17 18 21 22 23 26
    592788.15149    461911.32947         0.00041  20466833.60247  20466828.84649
  -6017429.80049  -4688902.61046         0.00041  21171514.83046  21171508.25949
  -1663668.62549  -1296364.29046         0.00041  20935440.55546  20935434.93649
  -9867532.62049  -7688978.05347         0.00041  21154707.86747  21154702.85849
  -7349492.47748  -5726867.00445         0.00041  23672619.35045  23672608.67648
  -4769671.29248  -3716636.49645         0.00041  23538073.54645  23538064.36248
   4381948.30949   3414504.32947         0.00041  21449926.02547  21449921.09549
  -5557541.70948  -4330544.78046         0.00041  21848269.93046  21848264.89548
 02 07 05 16 26 00.0000000  0  8 06 15 17 18 21 22 23 26
    626404.94349    488106.18947         0.00041  20473230.84347  20473225.96249
  -6056245.70149  -4719148.72546         0.00041  21164128.30446  21164121.80249
  -1685842.13449  -1313642.31946         0.00041  20931221.08346  20931215.56749
  -9925744.06049  -7734337.58247         0.00041  21143630.55447  21143625.43249
  -7431101.97748  -5790458.71845         0.00041  23657089.25345  23657080.56548
  -4778173.28748  -3723261.44945         0.00041  23536455.21845  23536446.03448
   4441073.00549   3460575.49247         0.00041  21461177.05247  21461172.08049
  -5569141.51349  -4339583.56546         0.00041  21846062.73246  21846057.66549
 02 07 05 16 26 30.0000000  0  8 06 15 17 18 21 22 23 26
    660543.89849    514707.92847         0.00041  20479727.23347  20479722.31349
  -6094855.98149  -4749234.61746         0.00041  21156781.14146  21156774.40249
  -1707832.35849  -1330777.52846         0.00041  20927036.45846  20927030.90949
  -9983505.69049  -7779346.60747         0.00041  21132638.87447  21132633.47049
  -7512450.53048  -5853847.10045         0.00041  23641607.51745  23641598.08548
  -4786111.68348  -3729447.24145         0.00041  23534944.19545  23534935.25948
   4500522.99249   3506900.13246         0.00041  21472490.03546  21472485.01549
  -5580078.71248  -4348106.03946         0.00041  21843981.19946  21843976.14748
 02 07 05 16 27 00.0000000  0  8 06 15 17 18 21 22 23 26
    695224.89749    541732.03547         0.00041  20486327.07847  20486322.02149
  -6133240.33849  -4779144.46846         0.00041  21149476.94146  21149470.27849
  -1729619.02349  -1347754.12646         0.00041  20922890.93346  20922885.08449
 -10040796.84949  -7823989.02947         0.00041  21121736.37947  21121731.64749
  -7593517.20948         0.00041         0.00041         0.00041  23626170.97048
  -4793466.89748  -3735178.63845         0.00041  23533543.57845  23533534.64248
   4560316.14549   3553492.17046         0.00041  21483868.34446  21483863.30449
  -5590332.17348  -4356095.72846         0.00041  21842030.23346  21842025.06648
 02 07 05 16 27 30.0000000  0  8 06 15 17 18 21 22 23 26
    730441.94849    569173.85047         0.00041  20493028.75447  20493023.62649
  -6171404.54349  -4808882.76846         0.00041  21142214.21046  21142207.86949
  -1751207.97349  -1364576.65746         0.00041  20918782.58346  20918776.83449
 -10097622.62549  -7868268.81047         0.00041  21110922.95547  21110918.06449
  -7674307.12048  -5979968.90745         0.00041  23610809.79045  23610798.37248
  -4800245.09048  -3740460.38245         0.00041  23532256.66545  23532245.24748
   4620444.38749   3600345.32046         0.00041  21495310.45046  21495305.50149
  -5599906.75749  -4363556.42246         0.00041  21840208.02646  21840203.16549
 02 07 05 16 28 00.0000000  0  8 06 15 17 18 21 22 23 26
    766133.55649    596985.44547         0.00041  20499820.74547  20499815.60249
  -6209409.87249  -4838497.27046         0.00041  21134982.20346  21134975.69649
  -1772660.28449  -1381292.71746         0.00041  20914700.36346  20914694.52249
 -10154043.26749  -7912232.90447         0.00041  21100186.15447  21100180.89649
  -7754880.51248         0.00041         0.00041         0.00041  23595465.57848
  -4806507.95448  -3745340.59445         0.00041  23531064.01245  23531054.08348
   4680844.25749   3647410.12846         0.00041  21506803.95346  21506799.14049
  -5608862.93248  -4370535.23646         0.00041  21838504.23546  21838498.76148
 02 07 05 16 28 30.0000000  0  8 06 15 17 18 21 22 23 26
    802304.54849    625170.58347         0.00041  20506703.65847  20506698.60649
  -6247251.01549  -4867983.83846         0.00041  21127781.29346  21127774.69349
  -1793971.01649  -1397898.45746         0.00041  20910644.64646  20910639.21449
 -10210053.69549  -7955877.35547         0.00041  21089528.00247  21089522.66149
  -7835231.69948  -6105364.46145         0.00041  23580186.43845  23580175.02048
  -4812251.15948  -3749815.87545         0.00041  23529971.01145  23529961.33048
   4741518.28849   3694688.56346         0.00041  21518350.17246  21518345.12749
  -5617194.85749  -4377027.61546         0.00041  21836918.44646  21836913.15749
 02 07 05 16 29 00.0000000  0  8 06 15 17 18 21 22 23 26
    838967.97849    653739.43547         0.00041  20513680.52447  20513675.72049
  -6284914.48449  -4897331.95946         0.00041  21120613.96746  21120607.48549
  -1815126.64349  -1414383.33447         0.00041  20906619.27147  20906613.43649
 -10265639.84949  -7999191.19647         0.00041  21078950.12147  21078945.35249
  -7915346.01648         0.00041         0.00041         0.00041  23564929.18748
  -4817461.88248  -3753876.22245         0.00041  23528979.76345  23528969.09048
   4802477.58749   3742189.28346         0.00041  21529950.59546  21529945.25449
  -5624888.25149  -4383022.43446         0.00041  21835453.78546  21835449.37149
 02 07 05 16 29 30.0000000  0  8 06 15 17 18 21 22 23 26
    876124.77849    682692.73047         0.00041  20520751.41247  20520746.22949
  -6322399.15449  -4926540.75246         0.00041  21113481.01746  21113474.34849
  -1836125.84749  -1430746.32746         0.00041  20902622.87546  20902617.37149
 -10320799.97649  -8042173.07147         0.00041  21068453.19947  21068448.35249
  -7995222.00348         0.00041         0.00041         0.00041  23549728.49848
  -4822139.31148  -3757521.00145         0.00041  23528089.88345  23528078.96248
   4863721.19449   3789911.54346         0.00041  21541604.62946  21541599.55049
  -5631941.10349  -4388518.13646         0.00041  21834112.37346  21834107.24949
 02 07 05 16 30 00.0000000  0  8 06 15 17 18 21 22 23 26
    913755.14149    712015.03447         0.00041  20527912.20647  20527907.24949
  -6359724.48249  -4955625.38246         0.00041  21106378.07446  21106371.47849
  -1856987.97349  -1447002.50247         0.00041  20898653.22047  20898647.70849
 -10375552.93149  -8084837.66747         0.00041  21058034.20347  21058029.27149
  -8074877.71948  -6292101.28145         0.00041  23534582.82945  23534571.16348
  -4826303.69148  -3760766.01645         0.00041  23527296.96745  23527286.79048
   4925227.24149   3837838.30546         0.00041  21553308.68146  21553303.55549
  -5638372.10449  -4393529.26746         0.00041  21832888.67446  21832883.60849
 02 07 05 16 30 30.0000000  0  8 06 15 17 18 21 22 23 26
    951857.69249    741705.28047         0.00041  20535162.76947  20535157.97749
  -6396891.00049  -4984586.26846         0.00041  21099305.59246  21099298.91549
  -1877714.04649  -1463152.66247         0.00041  20894709.22447  20894703.35749
 -10429898.97149  -8127185.19047         0.00041  21047692.51547  21047687.51449
  -8154313.58548  -6353999.22545         0.00041  23519466.54845  23519455.87548
  -4829956.39048  -3763612.33045         0.00041  23526602.85145  23526591.93048
   4986992.50749   3885967.05646         0.00041  21565062.31246  21565057.43249
  -5644181.47148  -4398056.01046         0.00041  21831783.04046  21831777.63748
 02 07 05 16 31 00.0000000  0  8 06 15 17 18 21 22 23 26
    990378.38549    771721.35047         0.00041  20542493.13247  20542488.11649
  -6433952.66449  -5013465.44546         0.00041  21092252.73146  21092246.39049
  -1898357.55449  -1479238.48946         0.00041  20890780.35546  20890774.94349
 -10483891.48749  -8169257.23847         0.00041  21037417.70847  21037412.80449
  -8233582.07648  -6415766.77045         0.00041  23504380.75945  23504370.83048
  -4833151.95148  -3766102.41645         0.00041  23525994.10645  23525983.68148
   5048961.00649   3934254.16946         0.00041  21576854.94246  21576849.55149
  -5649422.16848  -4402139.64046         0.00041  21830785.69446  21830780.29848
 02 07 05 16 31 30.0000000  0  8 06 15 17 18 21 22 23 26
   1029360.01849    802096.59647         0.00041  20549911.22947  20549906.05949
  -6470866.08649  -5042229.11446         0.00041  21085228.48946  21085222.13549
  -1918875.27849  -1495226.30146         0.00041  20886876.37346  20886870.63949
 -10537486.91349  -8211019.85947         0.00041  21027218.81047  21027214.40349
  -8312639.13748  -6477369.55645         0.00041  23489335.86345  23489327.42448
  -4835847.86448         0.00041         0.00041         0.00041  23525470.62348
   5111173.51149   3982731.41446         0.00041  21588693.67046  21588688.14249
  -5654050.59648  -4405746.16746         0.00041  21829904.99846  21829899.81148
 02 07 05 16 32 00.0000000  0  8 06 15 17 18 21 22 23 26
   1068847.06449    832865.67247         0.00041  20557425.62747  20557420.44549
  -6507586.49349  -5070842.37646         0.00041  21078240.60346  21078234.40649
  -1939222.30749  -1511081.10846         0.00041  20883004.25546  20882998.43449
 -10590639.85749  -8252437.69147         0.00041  21017104.33947  21017099.88449
  -8391439.61748  -6538772.39845         0.00041  23474342.62645  23474331.70448
  -4838000.00348  -3769880.23545         0.00041  23525071.95245  23525061.03148
   5173672.59549   4031431.96646         0.00041  21600586.57646  21600581.22049
  -5658021.18548  -4408840.09446         0.00041  21829149.35646  21829144.26848
 02 07 05 16 32 30.0000000  0  8 06 15 17 18 21 22 23 26
   1108844.40749    864032.37947         0.00041  20565036.71147  20565031.60149
  -6544108.59549  -5099301.11946         0.00041  21071290.61746  21071284.35649
  -1959393.40349  -1526798.83247         0.00041  20879165.96547  20879160.02549
 -10643344.68949  -8293506.34747         0.00041  21007075.02647  21007070.04849
  -8469977.40648  -6599970.54745         0.00041  23459396.74945  23459385.82848
  -4839603.85048         0.00041         0.00041         0.00041  23524755.42848
   5236461.21049   4080358.13346         0.00041  21612534.95346  21612529.66549
  -5661328.00448  -4411416.79646         0.00041  21828519.99546  21828514.64248
 02 07 05 16 33 00.0000000  0  8 06 15 17 18 21 22 23 26
   1149300.10649    895556.25147         0.00041  20572735.16147  20572730.09249
  -6580483.41249  -5127645.09046         0.00041  21064368.60246  21064362.60649
  -1979439.71249  -1542419.31647         0.00041  20875351.12447  20875345.57049
 -10695652.11749  -8334265.33847         0.00041  20997121.19047  20997116.43349
  -8548303.16048  -6661003.47745         0.00041  23444491.70145  23444481.77348
  -4840711.43148         0.00041         0.00041         0.00041  23524544.32148
   5299485.77149   4129468.15546         0.00041  21624527.92946  21624523.05349
  -5664021.98648  -4413515.96546         0.00041  21828007.85846  21828002.01348
 02 07 05 16 33 30.0000000  0  8 06 15 17 18 21 22 23 26
   1190203.10049    927428.66347         0.00041  20580518.82647  20580513.62849
  -6616721.57149  -5155882.58346         0.00041  21057473.11446  21057466.71649
  -1999371.59849  -1557950.64247         0.00041  20871558.25547  20871552.68049
 -10747572.45949  -8374722.70547         0.00041  20987240.84347  20987236.27349
  -8626426.65848  -6721878.78545         0.00041  23429625.51645  23429614.09848
  -4841334.15948         0.00041         0.00041         0.00041  23524426.52048
   5362733.32549   4178751.94146         0.00041  21636563.41046  21636558.64549
  -5666113.14849  -4415145.41046         0.00041  21827609.66846  21827604.26449
 02 07 05 16 34 00.0000000  0  8 06 15 17 18 21 22 23 26
   1231586.58749    959675.48547         0.00041  20588393.88547  20588388.74449
  -6652789.23849  -5183987.22746         0.00041  21050609.63946  21050603.25049
  -2019155.48249  -1573366.64247         0.00041  20867793.75547  20867787.98549
 -10799071.68549  -8414851.92847         0.00041  20977440.73447  20977435.87549
  -8704313.49148         0.00041         0.00041         0.00041  23414791.46548
  -4841439.19148         0.00041         0.00041         0.00041  23524406.60748
   5426235.28049   4228233.95846         0.00041  21648647.65546  21648642.59349
  -5667567.34149  -4416278.51246         0.00041  21827332.35146  21827327.51249
 02 07 05 16 34 30.0000000  0  8 06 15 17 18 21 22 23 26
   1273452.73949    992298.40947         0.00041  20596360.86047  20596355.63549
  -6688683.66649  -5211956.87946         0.00041  21043778.96246  21043772.72449
  -2038788.65149  -1588665.20247         0.00041  20864057.46447  20864051.79649
 -10850146.88549  -8454650.73847         0.00041  20967721.60147  20967716.74849
  -8781960.33348  -6843073.61345         0.00041  23400027.41045  23400015.99248
  -4841024.78948         0.00041         0.00041         0.00041  23524485.28848
   5489991.81049   4277914.34146         0.00041  21660780.49746  21660775.09549
  -5668381.59448  -4416912.96146         0.00041  21827177.19946  21827172.31148
 02 07 05 16 35 00.0000000  0  8 06 15 17 18 21 22 23 26
   1315838.84449   1025326.49647         0.00041  20604426.86847  20604421.70849
  -6724366.96549  -5239762.01546         0.00041  21036988.87946  21036982.27949
  -2058233.11049  -1603816.71747         0.00041  20860357.21547  20860351.63849
 -10900759.96349  -8494089.45647         0.00041  20958090.34647  20958085.45849
  -8859328.28848         0.00041         0.00041         0.00041  23385293.28648
  -4840054.05148         0.00041         0.00041         0.00041  23524670.31948
   5554038.30749   4327820.67146         0.00041  21672968.33346  21672962.67049
  -5668517.56649  -4417018.88046         0.00041  21827151.45346  21827146.41949
 02 07 05 16 35 30.0000000  0  8 06 15 17 18 21 22 23 26
   1358712.67449   1058734.62647         0.00041  20612585.56147  20612580.17249
  -6759870.85949  -5267427.35346         0.00041  21030232.59246  21030226.03749
  -2077520.41849  -1618845.77647         0.00041  20856687.00947  20856681.25949
 -10950942.06649  -8533192.35347         0.00041  20948541.03547  20948535.75849
  -8936448.41548         0.00041         0.00041         0.00041  23370618.28848
  -4838559.33548  -3770316.38745         0.00041  23524965.08845  23524954.91148
   5618340.97149   4377926.61246         0.00041  21685204.54646  21685199.20849
  -5668006.43049  -4416620.57046         0.00041  21827249.35346  21827243.87849
 02 07 05 16 36 00.0000000  0  8 06 15 17 18 21 22 23 26
   1402088.80549   1092534.15947         0.00041  20620839.73347  20620834.37549
  -6795179.91949  -5294940.87346         0.00041  21023513.36646  21023506.80949
  -2096635.15649  -1633740.36947         0.00041  20853049.49347  20853043.77749
 -11000677.64549  -8571947.31247         0.00041  20939076.58847  20939071.45949
  -9013304.94548         0.00041         0.00041         0.00041  23355992.79648
  -4836526.44148  -3768732.34545         0.00041  23525352.54545  23525341.87248
   5682912.76149   4428242.26246         0.00041  21697491.77746  21697486.69249
  -5666832.69849  -4415705.94746         0.00041  21827471.96846  21827467.13949
 02 07 05 16 36 30.0000000  0  8 06 15 17 18 21 22 23 26
   1445976.40449   1126732.23747         0.00041  20629191.26247  20629185.89349
  -6830284.22349  -5322294.84446         0.00041  21016833.52346  21016826.77649
  -2115567.64149  -1648492.94347         0.00041  20849446.66347  20849441.08349
 -11049956.56849  -8610346.42747         0.00041  20929699.04147  20929694.20049
  -9089887.31248  -7083016.24346         0.00041  23341431.13046  23341419.46448
  -4833946.54848  -3766722.09145         0.00041  23525843.90245  23525832.73248
   5747760.95149   4478773.29246         0.00041  21709832.41646  21709826.70849
  -5664986.40248  -4414267.25446         0.00041  21827823.26346  21827818.43348
 02 07 05 16 37 00.0000000  0  8 06 15 17 18 21 22 23 26
   1490333.07549   1161295.82647         0.00041  20637632.22947  20637626.81549
  -6865225.27749  -5349521.60646         0.00041  21010184.23146  21010177.55049
  -2134359.16149  -1663135.67647         0.00041  20845870.94947  20845865.15849
 -11098820.35249  -8648422.06447         0.00041  20920400.52847  20920395.74649
  -9166237.12348  -7142509.49346         0.00041  23326901.63746  23326890.96448
  -4830862.12748  -3764318.69745         0.00041  23526429.58645  23526419.40948
   5812841.71249   4529485.54546         0.00041  21722216.81746  21722211.39049
  -5662508.75148  -4412336.59646         0.00041  21828295.18346  21828289.69848
 02 07 05 16 37 30.0000000  0  8 06 15 17 18 21 22 23 26
   1535165.20649   1196229.91047         0.00041  20646163.53047  20646158.09949
  -6899996.24549  -5376615.83046         0.00041  21003567.21946  21003560.76649
  -2153002.85049  -1677663.22047         0.00041  20842323.19647  20842317.26349
 -11147261.73049  -8686168.54947         0.00041  20911182.31547  20911177.62949
  -9242346.53748  -7201815.43846         0.00041  23312419.12746  23312407.46048
  -4827267.56248  -3761517.80045         0.00041  23527114.23445  23527103.56148
   5878159.52649   4580382.51546         0.00041  21734646.59046  21734641.11149
  -5659392.59748  -4409908.41146         0.00041  21828888.10346  21828882.77048
 02 07 05 16 38 00.0000000  0  8 06 15 17 18 21 22 23 26
   1580465.21849   1231528.57547         0.00041  20654783.86947  20654778.37349
  -6934603.81349  -5403582.72746         0.00041  20996981.83546  20996975.34749
  -2171505.43049  -1692080.80947         0.00041  20838802.23747  20838796.32749
 -11195287.47849  -8723591.17347         0.00041  20902043.27347  20902038.43349
  -9318221.23648         0.00041         0.00041         0.00041  23297968.89348
  -4823170.55948         0.00041         0.00041         0.00041  23527883.77448
   5943705.28949   4631457.10746         0.00041  21747119.38846  21747114.00949
  -5655644.78349  -4406988.01546         0.00041  21829600.73446  21829595.95149
 02 07 05 16 38 30.0000000  0  8 06 15 17 18 21 22 23 26
   1626219.86149   1267181.48747         0.00041  20663490.53447  20663485.36349
  -6969060.40849  -5430431.98446         0.00041  20990424.61646  20990418.49949
  -2189879.21449  -1706398.03747         0.00041  20835305.88147  20835299.97749
 -11242909.84949  -8760699.47847         0.00041  20892980.93047  20892976.19949
  -9393872.79348  -7319887.63346         0.00041  23283584.29346  23283572.87548
  -4818584.76248         0.00041         0.00041         0.00041  23528756.21348
   6009464.13349   4682697.73346         0.00041  21759632.96246  21759627.45349
  -5651277.42448  -4403584.86746         0.00041  21830431.97846  21830427.06448
 02 07 05 16 39 00.0000000  0  8 06 15 17 18 21 22 23 26
   1672464.26049   1303216.02947         0.00041  20672290.58547  20672285.17149
  -7003329.88649  -5457135.43646         0.00041  20983903.61246  20983897.22149
  -2208088.31849  -1720586.94447         0.00041  20831840.96547  20831835.09249
 -11290092.87549  -8797465.43147         0.00041  20884002.12647  20883997.75049
  -9469265.52448  -7378635.13746         0.00041  23269236.96646  23269226.04448
  -4813475.17948  -3750770.55044         0.00041  23529733.30744  23529728.36848
   6075469.59949   4734130.53546         0.00041  21772193.72946  21772187.77549
  -5646254.71348  -4399671.06546         0.00041  21831388.04046  21831382.72448
 02 07 05 16 39 30.0000000  0  8 06 15 17 18 21 22 23 26
   1719182.20849   1339619.57247         0.00041  20681180.96947  20681175.49549
  -7037427.85349  -5483705.24646         0.00041  20977414.61446  20977408.32549
  -2226148.23849  -1734659.60047         0.00041  20828404.05847  20828398.45749
 -11336851.99249  -8833901.07147         0.00041  20875104.20847  20875099.49949
  -9544414.41548         0.00041         0.00041         0.00041  23254925.18548
  -4807858.78948  -3746395.41344         0.00041  23530803.99144  23530796.93948
   6141703.59449   4785741.41446         0.00041  21784797.44846  21784791.80249
  -5640592.08448  -4395258.62046         0.00041  21832465.50846  21832460.37948
 02 07 05 16 40 00.0000000  0  8 06 15 17 18 21 22 23 26
   1766365.87449   1376386.01747         0.00041  20690159.68047  20690154.38849
  -7071360.90149  -5510146.54846         0.00041  20970957.41446  20970951.11549
  -2244065.78049  -1748621.31047         0.00041  20824994.21747  20824988.86149
 -11383193.94049  -8870011.64247         0.00041  20866285.69447  20866280.91149
  -9619325.97048  -7495565.17646         0.00041  23240681.27946  23240670.85448
  -4801743.49948         0.00041         0.00041         0.00041  23531959.82148
   6208156.91849   4837523.19746         0.00041  21797442.98446  21797437.53049
  -5634296.43649  -4390352.90846         0.00041  21833663.93946  21833658.81249
 02 07 05 16 40 30.0000000  0  8 06 15 17 18 21 22 23 26
   1814049.69649   1413542.18947         0.00041  20699233.80247  20699228.32249
  -7105093.71749  -5536431.82446         0.00041  20964538.13046  20964531.94549
  -2261805.34849  -1762444.34447         0.00041  20821618.45547  20821613.13749
 -11429083.24449  -8905769.50647         0.00041  20857553.23347  20857548.46049
  -9693964.14348  -7553724.72146         0.00041  23226477.67346  23226467.99348
  -4795095.30448         0.00041         0.00041         0.00041  23533225.62148
   6274862.61449   4889501.63646         0.00041  21810136.67746  21810131.22349
  -5627332.35249  -4384926.35046         0.00041  21834988.36346  21834983.64649
 02 07 05 16 41 00.0000000  0  8 06 15 17 18 21 22 23 26
   1862250.71549   1451101.37147         0.00041  20708406.13847  20708400.62849
  -7138608.65549  -5562547.32246         0.00041  20958160.12646  20958154.37449
  -2279349.06649  -1776114.76747         0.00041  20818280.05647  20818274.54549
 -11474501.89149  -8941160.62847         0.00041  20848910.17547  20848905.82549
  -9768310.45448  -7611656.83246         0.00041  23212330.01046  23212319.58548
  -4787897.33848  -3730841.16245         0.00041  23534606.17045  23534596.24148
   6341836.26949   4941688.87546         0.00041  21822881.25546  21822875.96849
  -5619682.06848  -4378965.08446         0.00041  21836444.49846  21836439.23848
 02 07 05 16 41 30.0000000  0  8 06 15 17 18 21 22 23 26
   1910959.39649   1489056.13447         0.00041  20717675.14447  20717669.73649
  -7171914.23849  -5588499.68646         0.00041  20951822.39946  20951816.40149
  -2296705.55749  -1789639.30047         0.00041  20814977.29647  20814971.82049
 -11519458.70149  -8976191.87247         0.00041  20840355.30847  20840350.89649
  -9842372.81648  -7669367.66746         0.00041  23198236.09146  23198225.91448
  -4780159.70748         0.00041         0.00041         0.00041  23536068.17848
   6409066.60449   4994076.11946         0.00041  21835674.78146  21835669.59049
  -5611354.38849  -4372475.99046         0.00041  21838029.82946  21838024.23149
 02 07 05 16 42 00.0000000  0  8 06 15 17 18 21 22 23 26
   1960137.38549   1527376.59347         0.00041  20727033.14647  20727028.04149
  -7205047.83549  -5614318.04046         0.00041  20945517.53846  20945511.34249
  -2313912.17449  -1803047.04647         0.00041  20811702.84647  20811697.39149
 -11563990.88749  -9010892.24147         0.00041  20831881.13547  20831876.27449
  -9916188.58248  -7726886.36446         0.00041  23184190.16446  23184179.49148
  -4771920.98548         0.00041         0.00041         0.00041  23537635.33348
   6476513.85149   5046632.39146         0.00041  21848509.66846  21848504.45949
  -5602386.90149  -4365488.34946         0.00041  21839735.69246  21839731.02449
 02 07 05 16 42 30.0000000  0  8 06 15 17 18 21 22 23 26
   2009724.21949   1566015.63447         0.00041  20736469.72747  20736464.39249
  -7238068.85249  -5640048.66746         0.00041  20939233.82146  20939227.67449
  -2331028.42649  -1816384.37547         0.00041  20808445.82647  20808440.28549
 -11608158.09449  -9045308.21247         0.00041  20823476.19347  20823471.66849
  -9989816.71548         0.00041         0.00041         0.00041  23170168.18448
  -4763242.22548         0.00041         0.00041         0.00041  23539287.01348
   6544115.94949   5099309.32246         0.00041  21861373.86146  21861368.50749
  -5592839.27049  -4358048.64846         0.00041  21841551.83146  21841547.74449
 02 07 05 16 43 00.0000000  0  8 06 15 17 18 21 22 23 26
   2059771.18849   1605013.22147         0.00041  20745993.31147  20745987.74849
  -7270925.16749  -5665650.95546         0.00041  20932981.36946  20932975.43549
  -2348001.92249  -1829610.46947         0.00041  20805216.13847  20805210.34049
 -11651907.97449  -9079398.99047         0.00041  20815150.75547  20815146.71849
 -10063204.24248  -7841443.84746         0.00041  23156214.05846  23156202.64048
  -4754072.39948  -3704484.25945         0.00041  23541043.54645  23541032.12848
   6611922.93549   5152145.91046         0.00041  21874277.23846  21874271.76049
  -5582659.39149  -4350116.28246         0.00041  21843489.89546  21843484.79649
 02 07 05 16 43 30.0000000  0  8 06 15 17 18 21 22 23 26
   2110313.54249   1644396.82247         0.00041  20755611.34647  20755605.67349
  -7303580.27849  -5691096.46246         0.00041  20926767.42646  20926761.33349
  -2364796.11349  -1842696.84747         0.00041  20802020.26947  20802014.36149
 -11695204.41649  -9113136.43847         0.00041  20806911.90847  20806907.25149
 -10136315.03348  -7898413.21946         0.00041  23142300.50046  23142290.57148
  -4744376.52948         0.00041         0.00041         0.00041  23542877.70848
   6679968.75749   5205168.59946         0.00041  21887226.16146  21887220.37749
  -5571811.20849  -4341663.16646         0.00041  21845554.09046  21845549.11549
 02 07 05 16 44 00.0000000  0  8 06 15 17 18 21 22 23 26
   2161398.46349   1684203.20447         0.00041  20765332.22947  20765326.85149
  -7335985.98749  -5716347.62946         0.00041  20920601.13246  20920594.54049
  -2381362.87749  -1855606.01047         0.00041  20798867.80847  20798861.81549
 -11737999.18149  -9146482.97347         0.00041  20798768.28647  20798763.54749
 -10209100.10048  -7955128.76446         0.00041  23128450.56046  23128440.38448
  -4734107.94448  -3688927.67845         0.00041  23544842.57245  23544831.89948
   6748299.07949   5258412.97746         0.00041  21900228.87046  21900223.31849
  -5560246.79649  -4332651.95146         0.00041  21847754.51546  21847750.14749
 02 07 05 16 44 30.0000000  0  8 06 15 17 18 21 22 23 26
   2212969.15149   1724388.09847         0.00041  20775145.76747  20775140.44049
  -7368197.96849  -5741447.83946         0.00041  20914471.04846  20914464.70649
  -2397757.88649  -1868381.33647         0.00041  20795747.67747  20795742.02849
 -11780348.17549  -9179482.15147         0.00041  20790709.53447  20790705.18949
 -10281615.04948  -8011633.82546         0.00041  23114651.08146  23114641.15348
  -4723323.81548         0.00041         0.00041         0.00041  23546884.59448
   6816855.60549   5311833.61746         0.00041  21913274.79346  21913269.51149
  -5548022.31949  -4323126.39746         0.00041  21850081.11846  21850076.24449
 02 07 05 16 45 00.0000000  0  8 06 15 17 18 21 22 23 26
   2265001.63849   1764932.83647         0.00041  20785047.60147  20785041.85549
  -7400239.10649  -5766414.92446         0.00041  20908373.99046  20908367.36449
  -2414004.01049  -1881040.64747         0.00041  20792656.14947  20792650.61949
 -11822274.52049  -9212151.98947         0.00041  20782730.88147  20782726.69049
 -10353882.20848  -8067945.81346         0.00041  23100898.93146  23100889.00348
  -4712048.51348  -3671738.62245         0.00041  23549040.73445  23549030.55748
   6885612.95449   5365410.74246         0.00041  21926358.74246  21926353.72249
  -5535161.10049  -4313104.67746         0.00041  21852527.94846  21852523.42249
 02 07 05 16 45 30.0000000  0  8 06 15 17 18 21 22 23 26
   2317527.96649   1805862.38847         0.00041  20795043.18947  20795037.53649
  -7432076.09749  -5791222.93546         0.00041  20902315.48946  20902309.07649
  -2430068.00549  -1893558.03947         0.00041  20789599.10447  20789593.63549
 -11863745.11449  -9244466.70147         0.00041  20774839.47747  20774834.89749
 -10425868.27848  -8124038.76346         0.00041  23087199.81346  23087190.38048
  -4700250.38348  -3662545.32645         0.00041  23551286.46045  23551275.53948
   6954602.08549   5419168.47946         0.00041  21939487.16246  21939481.86749
  -5521630.29249  -4302561.20046         0.00041  21855103.42746  21855098.38249
 02 07 05 16 46 00.0000000  0  8 06 15 17 18 21 22 23 26
   2370549.38149   1847177.72547         0.00041  20805133.20547  20805127.33749
  -7463706.48649  -5815869.96246         0.00041  20896296.09746  20896290.16949
  -2445947.41049  -1905931.59547         0.00041  20786577.53447  20786571.91949
 -11904757.68949  -9276424.51647         0.00041  20767035.06747  20767030.34749
 -10497570.12348  -8179910.23146         0.00041  23073555.68646  23073546.25448
  -4687928.45948         0.00041         0.00041         0.00041  23553619.74648
   7023822.98149   5473106.80846         0.00041  21952659.44746  21952653.93849
  -5507427.97248  -4291494.47746         0.00041  21857806.20746  21857800.94048
 02 07 05 16 46 30.0000000  0  8 06 15 17 18 21 22 23 26
   2424044.33949   1888862.05547         0.00041  20815312.74547  20815306.89149
  -7495150.78349  -5840371.97546         0.00041  20890312.44846  20890306.61849
  -2461662.49549  -1918177.10747         0.00041  20783586.78147  20783581.55549
 -11945333.01149  -9308041.61647         0.00041  20759313.55047  20759309.03449
 -10569007.83648  -8235575.88846         0.00041  23059961.85246  23059951.42748
  -4675104.71148         0.00041         0.00041         0.00041  23556059.83148
   7093252.65549   5527207.81946         0.00041  21965871.29546  21965865.68449
  -5492575.03748  -4279920.77746         0.00041  21860632.47246  21860627.21048
 02 07 05 16 47 00.0000000  0  8 06 15 17 18 21 22 23 26
   2477966.24549   1930879.07147         0.00041  20825574.03147  20825567.84849
  -7526454.18449  -5864764.20346         0.00041  20884355.37646  20884349.72249
  -2477258.55749  -1930329.87447         0.00041  20780618.98547  20780613.51949
 -11985516.62549  -9339353.48647         0.00041  20751666.86247  20751662.46549
 -10640226.57148  -8291070.91346         0.00041  23046408.56346  23046399.13048
  -4661826.21348  -3632604.59545         0.00041  23558597.56345  23558587.63548
   7162843.32549   5581434.28046         0.00041  21979114.13946  21979108.74949
  -5477117.35749  -4267875.84946         0.00041  21863573.89446  21863568.72449
 02 07 05 16 47 30.0000000  0  7 06 15 17 18 21 23 26
   2532295.87449   1973213.79447         0.00041  20835912.39447  20835906.50549
  -7557634.91349  -5889060.84546         0.00041  20878422.06246  20878416.07149
  -2492753.52549  -1942403.86547         0.00041  20777670.39847  20777664.97149
 -12025326.46149  -9370374.10647         0.00041  20744091.37947  20744086.74649
 -10711244.45948  -8346409.43746         0.00041  23032893.80646  23032885.11948
   7232574.58049   5635770.29146         0.00041  21992383.42846  21992378.25549
  -5461073.41649  -4255374.09546         0.00041  21866626.70846  21866622.02249
 02 07 05 16 48 00.0000000  0  7 06 15 17 18 21 23 26
   2587022.44649   2015857.82147         0.00041  20846326.60447  20846320.75149
  -7588702.29549  -5913269.17146         0.00041  20872510.15546  20872504.19149
  -2508157.06949  -1954406.62247         0.00041  20774739.51847  20774733.68649
 -12064772.64649  -9401111.35947         0.00041  20736585.08747  20736580.38249
 -10782070.98648  -8401598.83746         0.00041  23019417.00846  23019407.32848
   7302434.34349   5690206.43946         0.00041  22005677.49946  22005672.16349
  -5444453.54849  -4242423.56646         0.00041  21869789.86046  21869784.59749
 02 07 05 16 48 30.0000000  0  7 06 15 17 18 21 23 26
   2642247.87149   2058890.57047         0.00041  20856835.66547  20856829.82849
  -7619553.40949  -5937308.97446         0.00041  20866639.30846  20866633.47649
  -2523365.88249  -1966257.64047         0.00041  20771845.26947  20771839.36849
 -12103752.23549  -9431485.03647         0.00041  20729167.43647  20729163.00449
 -10852602.50948  -8456558.36846         0.00041  23005995.41546  23005985.23848
   7372523.26549   5744821.14946         0.00041  22019015.07046  22019009.65549
  -5427155.21048  -4228944.35646         0.00041  21873081.53646  21873076.29748
 02 07 05 16 49 00.0000000  0  7 06 15 17 18 21 23 26
   2697918.39849   2102270.14447         0.00041  20867429.57947  20867423.78549
  -7650240.33849  -5961220.84246         0.00041  20860799.73546  20860793.56049
  -2538432.35349  -1977997.74247         0.00041  20768978.00747  20768972.46849
 -12142318.01949  -9461536.26647         0.00041  20721828.40947  20721824.13049
 -10922890.93548  -8511328.47346         0.00041  22992619.34046  22992609.66048
   7442786.55849   5799571.73546         0.00041  22032386.23746  22032380.38649
  -5409231.38449  -4214977.75646         0.00041  21876492.32746  21876487.35749
 02 07 05 16 49 30.0000000  0  7 06 15 17 18 21 23 26
   2754084.88249   2146036.18347         0.00041  20878117.68747  20878111.83349
  -7680711.10149  -5984964.27446         0.00041  20855001.26846  20854995.07649
  -2553304.15149  -1989586.15247         0.00041  20766148.28847  20766142.51149
 -12180418.14349  -9491224.64747         0.00041  20714578.41947  20714573.77549
 -10992884.13548  -8565868.53546         0.00041  22979300.71646  22979290.29148
   7513273.86449   5854496.87546         0.00041  22045799.14246  22045793.83149
  -5390630.70549  -4200483.73246         0.00041  21880031.75446  21880026.71849
 02 07 05 16 50 00.0000000  0  7 06 15 17 18 21 23 26
   2810769.30149   2190205.80547         0.00041  20888904.36847  20888898.33849
  -7710942.43049  -6008521.13346         0.00041  20849248.71146  20849242.44049
  -2567958.06849  -2001004.78547         0.00041  20763359.35347  20763354.00949
 -12218029.73049  -9520532.35147         0.00041  20707421.01147  20707416.46549
 -11062559.03948  -8620160.57846         0.00041  22966042.08746  22966031.41448
   7584005.96349   5909612.76346         0.00041  22059259.10846  22059253.74249
  -5371330.70348  -4185444.78046         0.00041  21883704.26546  21883699.32348
 02 07 05 16 50 30.0000000  0  7 06 15 17 18 21 23 26
   2867993.63049   2234796.13847         0.00041  20899793.84347  20899788.07749
  -7740910.68449  -6031873.00246         0.00041  20843546.03446  20843539.55749
  -2582370.67649  -2012235.38247         0.00041  20760617.13747  20760611.45649
 -12255129.83049  -9549441.49247         0.00041  20700360.86347  20700356.60649
 -11131891.83748  -8674186.05446         0.00041  22952847.77146  22952837.59448
   7655003.92049   5964935.81946         0.00041  22072769.60546  22072764.00349
  -5351308.60249  -4169843.15746         0.00041  21887514.60746  21887509.76649
 02 07 05 16 51 00.0000000  0  7 06 15 17 18 21 23 26
   2925686.76849   2279751.77247         0.00041  20910772.65047  20910766.76349
  -7770685.59649  -6055074.21547         0.00041  20837880.02947  20837873.50649
  -2596611.41649  -2023332.05847         0.00041  20757907.29047  20757901.49249
 -12291788.27949  -9578006.48547         0.00041  20693385.14847  20693380.61149
 -11200951.99348  -8727999.07246         0.00041  22939706.35746  22939695.68448
   7726195.62049   6020409.83746         0.00041  22086316.89546  22086311.32549
  -5330635.04149  -4153733.90546         0.00041  21891448.43346  21891443.74449
 02 07 05 16 51 30.0000000  0  8 03 06 15 17 18 21 23 26
        -0.62358         0.00051         0.00051         0.00051  25131509.10558
   2983857.65749   2325079.67847         0.00041  20921842.24847  20921836.49349
  -7800256.83249  -6078116.71346         0.00041  20832252.67146  20832246.27549
  -2610670.17449  -2034286.92947         0.00041  20755231.67547  20755226.15049
 -12327995.34049  -9606219.75347         0.00041  20686495.17847  20686490.65049
 -11269728.63948  -8781591.17446         0.00041  22926618.08946  22926608.40848
   7797588.73849   6076040.80046         0.00041  22099902.45746  22099896.95849
  -5309300.59449  -4137109.68046         0.00041  21895508.28746  21895503.58549
 02 07 05 16 52 00.0000000  0  8 03 06 15 17 18 21 23 26
   -103223.24748         0.00041         0.00041         0.00041  25111866.70048
   3042465.13049   2370747.77747         0.00041  20932994.94947  20932989.04349
  -7829664.28049  -6101031.59047         0.00041  20826656.82947  20826650.27849
  -2624586.36049  -2045130.70847         0.00041  20752583.38547  20752577.95449
 -12363791.30549  -9634112.69047         0.00041  20679683.62347  20679679.09649
 -11338261.98548  -8834993.69446         0.00041  22913577.53246  22913567.10748
   7869140.96149   6131795.74746         0.00041  22113518.55046  22113512.77449
  -5287345.89349  -4120002.14146         0.00041  21899686.50446  21899681.65849
 02 07 05 16 52 30.0000000  0  8 03 06 15 17 18 21 23 26
   -206477.06948         0.00041         0.00041         0.00041  25092217.32548
   3101431.18749   2416695.28947         0.00041  20944215.86147  20944209.85649
  -7858984.67049  -6123878.63247         0.00041  20821077.20247  20821070.83649
  -2638436.77049  -2055923.23247         0.00041  20749947.78647  20749942.19549
 -12399252.98749  -9661745.14647         0.00041  20672935.33647  20672930.86349
 -11406628.56548  -8888266.27546         0.00041  22900567.15546  22900556.48248
   7940773.33449   6187613.14046         0.00041  22127149.81046  22127144.18549
  -5264848.52149  -4102471.73846         0.00041  21903967.72646  21903962.52749
 02 07 05 16 53 00.0000000  0  8 03 06 15 17 18 21 23 26
   -309734.34348         0.00041         0.00041         0.00041  25072566.48548
   3160780.22949   2462941.23547         0.00041  20955509.69647  20955503.71949
  -7888191.98649  -6146637.56347         0.00041  20815519.21047  20815512.98649
  -2652195.12849  -2066644.02947         0.00041  20747329.90447  20747324.12149
 -12434355.13349  -9689097.44347         0.00041  20666255.72347  20666251.26149
 -11474802.27548  -8941388.55946         0.00041  22887594.10746  22887583.43448
   8012509.35849   6243511.30346         0.00041  22140800.38646  22140794.93149
  -5241783.42148  -4084498.95246         0.00041  21908356.30346  21908351.45548
 02 07 05 16 53 30.0000000  0  8 03 06 15 17 18 21 23 26
   -412933.85848   -321767.16241         0.00041         0.00041  25052928.40548
   3220570.36249   2509530.88547         0.00041  20966887.29747  20966881.37449
  -7917226.56449  -6169261.89847         0.00041  20809994.10547  20809987.94949
  -2665801.95349  -2077246.74747         0.00041  20744740.45147  20744734.97249
 -12469038.37649  -9716123.32547         0.00041  20659655.77047  20659651.13449
 -11542723.12548  -8994313.81546         0.00041  22874668.75846  22874658.33248
   8084406.28149   6299534.83846         0.00041  22154482.49046  22154476.62349
  -5218091.89348  -4066038.03746         0.00041  21912864.97346  21912859.93948
 02 07 05 16 54 00.0000000  0  8 03 06 15 17 18 21 23 26
   -516025.51248   -402098.40741         0.00041         0.00041  25033311.12448
   3280848.45949   2556500.76447         0.00041  20978358.12547  20978352.11649
  -7946039.93549  -6191713.85847         0.00041  20804510.92747  20804504.93049
  -2679208.93849  -2087693.74547         0.00041  20742189.39047  20742183.74049
 -12503254.97449  -9742785.58747         0.00041  20653144.33447  20653139.94949
 -11610342.76648  -9047004.36246         0.00041  22861801.09346  22861790.91648
   8156509.80249   6355719.36146         0.00041  22168203.08946  22168197.53949
  -5193726.83949  -4047052.30346         0.00041  21917502.04646  21917496.59449
 02 07 05 16 54 30.0000000  0  8 03 06 15 17 18 21 23 26
   -618942.99548         0.00041         0.00041         0.00041  25013727.25648
   3341677.11849   2603899.65147         0.00041  20989933.32947  20989927.32449
  -7974567.85849  -6213943.39447         0.00041  20799082.49547  20799076.31649
  -2692351.55649  -2097934.74647         0.00041  20739688.18347  20739682.82249
 -12536941.36349  -9769034.69547         0.00041  20646733.74447  20646729.57349
 -11677597.27648  -9099410.38846         0.00041  22849002.92646  22848992.99748
   8228881.80249   6412113.09146         0.00041  22181975.62546  22181969.70749
  -5168624.92048  -4027492.38646         0.00041  21922278.47146  21922273.07948
 02 07 05 16 55 00.0000000  0  8 03 06 15 17 18 21 23 26
   -721740.42648   -562395.83044         0.00041  24994176.39244  24994165.22348
   3402999.14949   2651682.97947         0.00041  21001602.72047  21001596.49049
  -8002865.98949  -6235993.87647         0.00041  20793697.26047  20793691.31649
  -2705285.45449  -2108013.10647         0.00041  20737227.05847  20737221.60849
 -12570153.64549  -9794914.37047         0.00041  20640413.90147  20640409.43749
 -11744541.93948  -9151574.97946         0.00041  22836264.47946  22836253.06148
   8301464.03849   6468670.63946         0.00041  22195787.18446  22195781.62849
  -5142843.02348  -4007402.62346         0.00041  21927184.22446  21927179.40248
 02 07 05 16 55 30.0000000  0  8 03 06 15 17 18 21 23 26
   -824473.40048   -642447.50344         0.00041  24974624.10344  24974615.41648
   3464755.73349   2699804.92346         0.00041  21013354.51446  21013348.43249
  -8030991.52849  -6257909.86647         0.00041  20788345.10447  20788339.11849
  -2718067.87749  -2117973.43447         0.00041  20734794.63647  20734789.13349
 -12602949.61649  -9820469.64847         0.00041  20634172.93947  20634168.64249
 -11811234.18148  -9203542.87446         0.00041  22823572.47946  22823561.80648
   8374197.03549   6525345.66246         0.00041  22209627.50146  22209622.05049
  -5116439.51249  -3986828.48946         0.00041  21932209.12646  21932203.93849
 02 07 05 16 56 00.0000000  0  8 03 06 15 17 18 21 23 26
   -927139.40148   -722447.03544         0.00041  24955086.30844  24955078.65148
   3526945.70649   2748264.56846         0.00041  21025188.93246  21025183.05649
  -8058943.91349  -6279690.92947         0.00041  20783025.77447  20783019.98349
  -2730698.23749  -2127815.26947         0.00041  20732391.02547  20732385.62949
 -12635329.53149  -9845700.72447         0.00041  20628011.31047  20628007.03149
 -11877673.74348  -9255313.88546         0.00041  22810929.76846  22810919.59148
   8447078.79849   6582136.60546         0.00041  22223496.96446  22223491.11549
  -5089415.06648  -3965770.49646         0.00041  21937351.86846  21937346.53448
 02 07 05 16 56 30.0000000  0  8 03 06 15 17 18 21 23 26
  -1029741.84348   -802396.98444         0.00041  24935564.64844  24935554.22348
   3589562.43249   2797056.74846         0.00041  21037104.49246  21037098.71149
  -8086728.25449  -6301341.04747         0.00041  20777738.47547  20777732.81349
  -2743181.43249  -2137542.43147         0.00041  20730015.42547  20730009.96649
 -12667298.97749  -9870611.95647         0.00041  20621927.39047  20621923.18449
 -11943865.38848  -9306891.71046         0.00041  22798333.15346  22798323.72148
   8520101.79349   6639037.60446         0.00041  22237392.78646  22237386.82949
  -5061775.82848  -3944233.44046         0.00041  21942611.22446  21942605.85248
 02 07 05 16 57 00.0000000  0  8 03 06 15 17 18 21 23 26
  -1132273.80848   -882291.97044         0.00041  24916051.43244  24916042.74548
   3652609.46849   2846184.23646         0.00041  21049102.31746  21049095.90049
  -8114339.23949  -6322856.08047         0.00041  20772484.28447  20772478.58549
  -2755512.23149  -2147150.84547         0.00041  20727668.97447  20727663.37749
 -12698853.04449  -9895199.51247         0.00041  20615923.20547  20615918.77149
 -12009803.67748  -9358272.11046         0.00041  22785785.38446  22785775.95148
   8593268.58149   6696050.64746         0.00041  22251316.25246  22251310.11949
  -5033517.81948  -3922214.22146         0.00041  21947988.25646  21947983.12048
 02 07 05 16 57 30.0000000  0  8 03 06 15 17 18 21 23 26
  -1234702.20648         0.00041         0.00041         0.00041  24896551.16848
   3716116.21749   2895669.94046         0.00041  21061187.34746  21061180.97949
  -8141746.02349  -6344211.99947         0.00041  20767268.85947  20767263.18449
  -2767659.62649  -2156616.34547         0.00041  20725357.24147  20725351.75849
 -12729961.85949  -9919440.11947         0.00041  20610003.05647  20609998.74949
 -12075458.05448  -9409431.28546         0.00041  22773292.34546  22773281.92048
   8666607.67849   6753197.95546         0.00041  22265272.09546  22265266.03049
  -5004611.46448  -3899689.80946         0.00041  21953489.51346  21953484.31648
 02 07 05 16 58 00.0000000  0  8 03 06 15 17 18 21 23 26
  -1337039.39248  -1041849.57644         0.00041  24877089.24044  24877077.57448
   3780067.10049   2945501.72046         0.00041  21073356.78546  21073350.45449
  -8168962.32449  -6365419.48947         0.00041  20762090.10347  20762084.12949
  -2779637.24049  -2165949.54847         0.00041  20723078.04747  20723072.67849
 -12760639.69649  -9943344.89947         0.00041  20604165.38247  20604161.03849
 -12140842.00948  -9460379.73946         0.00041  22760849.68346  22760839.50648
   8740102.79749   6810466.84246         0.00041  22279257.61746  22279251.61549
  -4975071.89848  -3876671.98446         0.00041  21959110.21846  21959105.20848
 02 07 05 16 58 30.0000000  0  8 03 06 15 17 18 21 23 26
  -1439320.65348         0.00041         0.00041         0.00041  24857614.20748
   3844423.27749   2995649.30946         0.00041  21085603.43746  21085597.40349
  -8196025.10749  -6386507.35447         0.00041  20756940.11547  20756934.25749
  -2791482.30649  -2175179.46947         0.00041  20720824.11447  20720818.65649
 -12790924.49349  -9966943.41147         0.00041  20598402.32047  20598397.90749
 -12205993.09148  -9511146.73646         0.00041  22748451.70346  22748441.52648
   8813714.51249   6867826.58246         0.00041  22293265.63946  22293259.77449
  -4944937.53649  -3853190.68046         0.00041  21964844.62746  21964839.75649
 02 07 05 16 59 00.0000000  0  8 03 06 15 17 18 21 23 26
  -1541513.09048         0.00041         0.00041         0.00041  24838167.90948
   3909213.76449   3046135.32346         0.00041  21097932.80546  21097926.39249
  -8222903.64549  -6407451.65847         0.00041  20751825.38047  20751819.31349
  -2803163.77349  -2184281.90747         0.00041  20718601.41847  20718595.94249
 -12820786.18149  -9990212.23147         0.00041  20592719.89947  20592715.42949
 -12270880.58348  -9561708.33246         0.00041  22736103.07046  22736094.38248
   8887471.26749   6925299.33546         0.00041  22307301.02646  22307295.06649
  -4914178.86348  -3829222.90046         0.00041  21970698.03746  21970692.91348
 02 07 05 16 59 30.0000000  0  8 03 06 15 17 18 21 23 26
  -1643624.23548  -1280746.81444         0.00041  24818745.19444  24818736.01048
   3974427.74749   3096951.33646         0.00041  21110342.45346  21110336.22749
  -8249606.87349  -6428259.35447         0.00041  20746743.79247  20746737.80449
  -2814690.66249  -2193263.89847         0.00041  20716407.84347  20716402.37649
 -12850234.34249 -10013158.82347         0.00041  20587115.93147  20587111.69149
 -12335513.74448  -9612071.74946         0.00041  22723804.86146  22723795.42948
   8961361.38749   6982876.01246         0.00041  22321362.00546  22321355.64349
  -4882806.45848  -3804776.89946         0.00041  21976667.85946  21976662.93248
 02 07 05 17 00 00.0000000  0  8 03 06 15 17 18 21 23 26
  -1745635.72748         0.00041         0.00041         0.00041  24799323.15948
   4040080.08849   3148108.93046         0.00041  21122836.19746  21122829.55549
  -8276118.36549  -6448917.64447         0.00041  20741698.90847  20741692.89549
  -2826046.17249  -2202112.34747         0.00041  20714247.17047  20714241.48749
 -12879253.21249 -10035770.90147         0.00041  20581593.60647  20581589.57749
 -12399876.04648  -9662224.10246         0.00041  22711557.20346  22711547.27548
   9035399.02249   7040567.63146         0.00041  22335450.85946  22335444.50549
  -4850805.14848  -3779840.82846         0.00041  21982757.51346  21982752.18348
 02 07 05 17 00 30.0000000  0  8 03 06 15 17 18 21 23 26
  -1847507.67048         0.00041         0.00041         0.00041  24779936.13848
   4106206.82149   3199636.16446         0.00041  21135419.72246  21135413.19849
  -8302400.05649  -6469396.87147         0.00041  20736697.80547  20736691.67649
  -2837192.63549  -2210797.90647         0.00041  20712126.05047  20712120.36249
 -12907805.93849 -10058019.74847         0.00041  20576160.29147  20576156.07949
 -12463930.03548  -9712136.20946         0.00041  22699367.09746  22699357.91348
   9109619.64749   7098401.84446         0.00041  22349574.40746  22349568.40849
  -4818138.67148  -3754386.45346         0.00041  21988974.13546  21988968.65148
 02 07 05 17 01 00.0000000  0  8 03 06 15 17 18 21 23 26
  -1949274.01248         0.00041         0.00041         0.00041  24760570.23948
   4172770.62749   3251503.97846         0.00041  21148086.21946  21148080.11149
  -8328487.54949  -6489724.77047         0.00041  20731733.35947  20731727.36149
  -2848165.21649  -2219347.97047         0.00041  20710038.09147  20710032.37249
 -12935928.63749 -10079933.50947         0.00041  20570808.85347  20570804.57549
 -12527711.19648  -9761835.73146         0.00041  22687230.63946  22687220.46248
   9183985.21949   7156349.00246         0.00041  22363725.79946  22363719.91449
  -4784843.87548  -3728442.47746         0.00041  21995309.42346  21995304.48548
 02 07 05 17 01 30.0000000  0  8 03 06 15 17 18 21 23 26
  -2050939.13348         0.00041         0.00041         0.00041  24741222.74648
   4239763.30249   3303705.97446         0.00041  21160834.42946  21160828.14149
  -8354387.24349  -6509906.33747         0.00041  20726804.84147  20726798.87949
  -2858970.30349  -2227767.51747         0.00041  20707981.57547  20707976.22749
 -12963628.26549 -10101517.60747         0.00041  20565537.78447  20565533.36649
 -12591225.47948  -9811327.28646         0.00041  22675144.56746  22675134.39048
   9258487.03449   7214402.32146         0.00041  22377902.93246  22377896.96449
  -4750928.53048  -3702014.95246         0.00041  22001763.54846  22001758.57548
 02 07 05 17 02 00.0000000  0  8 03 06 15 17 18 21 23 26
  -2152484.02448         0.00041         0.00041         0.00041  24721900.35848
   4307200.02349   3356253.98346         0.00041  21173667.44646  21173661.26649
  -8380082.09149  -6529928.28347         0.00041  20721915.24847  20721909.36149
  -2869590.49349  -2236042.99247         0.00041  20705960.79847  20705955.42849
 -12990888.63149 -10122759.42647         0.00041  20560350.23947  20560345.85449
 -12654456.74848  -9860598.32146         0.00041  22663111.41746  22663101.73748
   9333139.75249   7272573.22446         0.00041  22392108.81246  22392102.87049
  -4716377.32148  -3675091.95946         0.00041  22008338.15046  22008333.25448
 02 07 05 17 02 30.0000000  0  8 03 06 15 17 18 21 23 26
  -2253900.60248         0.00041         0.00041         0.00041  24702601.81948
   4375085.73949   3409151.85246         0.00041  21186585.86246  21186579.48449
  -8405565.12649  -6549785.18047         0.00041  20717065.92947  20717059.92449
  -2880019.29549  -2244169.33147         0.00041  20703976.28147  20703970.69649
 -13017703.90149 -10143654.41947         0.00041  20555247.44747  20555243.18449
 -12717397.94148  -9909643.32146         0.00041  22651134.09646  22651123.91948
   9407947.59949   7330865.00446         0.00041  22406344.99846  22406338.70949
  -4681185.09948  -3647669.47246         0.00041  22015035.90446  22015030.28548
 02 07 05 17 03 00.0000000  0  8 03 06 15 17 18 21 23 26
  -2355185.79648         0.00041         0.00041         0.00041  24683327.92348
   4443419.48749   3462398.84146         0.00041  21199589.28646  21199583.02149
  -8430834.98649  -6569475.97047         0.00041  20712257.19747  20712251.35049
  -2890255.42449  -2252145.53647         0.00041  20702028.21347  20702022.89049
 -13044074.10849 -10164202.61347         0.00041  20550229.06147  20550224.85849
 -12780048.26148  -9958461.66446         0.00041  22639211.66646  22639202.23448
   9482909.28449   7389276.65946         0.00041  22420609.47246  22420603.40249
  -4645352.37148  -3619747.88646         0.00041  22021854.05646  22021848.61448
 02 07 05 17 03 30.0000000  0  8 03 06 15 17 18 21 23 26
  -2456337.13248  -1914029.42841         0.00041         0.00041  24664079.64248
   4512199.81549   3515993.80546         0.00041  21212678.10146  21212671.42749
  -8455891.48149  -6589000.50147         0.00041  20707488.95647  20707483.25549
  -2900298.44349  -2259971.26447         0.00041  20700117.64547  20700111.80449
 -13069999.62149 -10184404.29147         0.00041  20545295.73147  20545291.57349
 -12842407.95048 -10007053.54846         0.00041  22627344.76946  22627335.58548
   9558022.78149   7447806.61746         0.00041  22434903.04246  22434897.17149
  -4608880.47448  -3591328.24246         0.00041  22028794.33846  22028789.71848
 02 07 05 17 04 00.0000000  0  8 03 06 15 17 18 21 23 26
  -2557385.27848  -1992768.25244         0.00041  24644862.69444  24644851.77348
   4581392.36749   3569909.98346         0.00041  21225844.78846  21225838.27649
  -8480766.96449  -6608383.98347         0.00041  20702755.37047  20702749.52849
  -2910180.40749  -2267671.49547         0.00041  20698237.23247  20698231.37249
 -13095513.46249 -10204285.18447         0.00041  20540440.57547  20540436.41049
 -12904509.18448 -10055444.03446         0.00041  22615527.00346  22615518.06748
   9633253.20949   7506427.68446         0.00041  22449219.14246  22449213.13049
  -4571803.37548  -3562437.02246         0.00041  22035850.15246  22035844.80648
 02 07 05 17 04 30.0000000  0  8 03 06 15 17 18 21 23 26
  -2658319.71048  -2071418.40541         0.00041         0.00041  24625644.71948
   4651003.95649   3624152.68946         0.00041  21239091.92946  21239085.51249
  -8505452.86149  -6627619.73347         0.00041  20698057.60947  20698051.78149
  -2919892.60449  -2275239.44347         0.00041  20696388.84847  20696383.01949
 -13120607.73149 -10223839.13847         0.00041  20535665.45147  20535661.01849
 -12966343.78448 -10103626.74646         0.00041  22603759.94946  22603751.51048
   9708606.88949   7565144.79146         0.00041  22463558.61946  22463552.53949
  -4534114.09648  -3533068.76946         0.00041  22043022.07046  22043016.62948
 02 07 05 17 05 00.0000000  0  8 03 06 15 17 18 21 23 26
  -2759168.99548  -2150002.25241         0.00041         0.00041  24606453.47348
   4721002.36249   3678696.80446         0.00041  21252411.85346  21252405.49649
  -8529979.11349  -6646731.06447         0.00041  20693390.02047  20693384.77149
  -2929465.18449  -2282698.60247         0.00041  20694566.89647  20694561.51449
 -13145313.87849 -10243090.67647         0.00041  20530963.91347  20530959.63449
 -13027942.40148 -10151625.58246         0.00041  22592038.93046  22592029.49848
   9784051.06849   7623932.41746         0.00041  22477915.07146  22477909.16749
  -4495844.70448  -3503248.49646         0.00041  22050304.59546  22050299.50448
 02 07 05 17 05 30.0000000  0  8 03 06 15 17 18 21 23 26
  -2859923.46948  -2228512.17441         0.00041         0.00041  24587281.55548
   4791393.13649   3733546.66046         0.00041  21265807.13846  21265800.46449
  -8554338.00949  -6665712.04247         0.00041  20688755.40147  20688749.43849
  -2938890.43649  -2290042.95747         0.00041  20692773.74147  20692768.03649
 -13169625.21149 -10262034.52847         0.00041  20526337.69547  20526333.61049
 -13089297.04048 -10199434.31546         0.00041  22580363.05846  22580354.37148
   9859590.95249   7682794.61946         0.00041  22492290.08346  22492284.03349
  -4456989.33548  -3472971.60846         0.00041  22057698.21646  22057693.51348
 02 07 05 17 06 00.0000000  0  8 03 06 15 17 18 21 23 26
  -2960517.90148  -2306897.37241         0.00041         0.00041  24568139.62648
   4862238.01149   3788750.35946         0.00041  21279288.64046  21279281.93749
  -8578466.13249  -6684513.15647         0.00041  20684163.91147  20684158.01149
  -2948104.51049  -2297222.75547         0.00041  20691020.34747  20691014.70249
 -13193479.19349 -10280622.03047         0.00041  20521798.54547  20521794.14949
 -13150344.89848 -10247003.98946         0.00041  22568745.85246  22568737.16448
   9935287.76049   7741779.10346         0.00041  22506694.28246  22506688.66749
  -4417486.25448  -3442190.01346         0.00041  22065216.24146  22065210.73348
 02 07 05 17 06 30.0000000  0  8 03 06 15 17 18 21 23 26
  -3060943.16848  -2385150.72741         0.00041         0.00041  24549028.95448
   4933542.01049   3844311.82046         0.00041  21292857.41246  21292850.36749
  -8602356.04149  -6703128.65547         0.00041  20679617.71947  20679611.79249
  -2957100.28449  -2304232.45147         0.00041  20689308.39147  20689302.96149
 -13216869.34649 -10298848.10747         0.00041  20517347.63047  20517343.22849
 -13211078.93648 -10294329.13046         0.00041  22557189.04146  22557179.60848
  10011146.33149   7800889.63646         0.00041  22521130.16746  22521124.11249
  -4377329.94748  -3410899.41046         0.00041  22072857.04146  22072852.36248
 02 07 05 17 07 00.0000000  0  8 03 06 15 17 18 21 23 26
  -3161235.45448  -2463300.48944         0.00041  24529951.25744  24529943.69848
   5005265.35349   3900200.03546         0.00041  21306506.14046  21306499.39349
  -8626045.70649  -6721588.12447         0.00041  20675109.50247  20675103.81149
  -2965915.52049  -2311101.46647         0.00041  20687631.25347  20687625.48849
 -13239834.62349 -10316743.11147         0.00041  20512977.30347  20512973.10149
 -13271537.38448 -10341439.52846         0.00041  22545684.03946  22545674.60748
  10087126.21449   7860094.68846         0.00041  22535588.79646  22535582.51549
  -4336560.28948  -3379130.87146         0.00041  22080615.15746  22080610.14248
 02 07 05 17 07 30.0000000  0  8 03 06 15 17 18 21 23 26
  -3261425.66448  -2541370.69044         0.00041  24510883.77544  24510879.10848
   5077373.06949   3956387.76846         0.00041  21320227.25246  21320220.82149
  -8649567.93749  -6739917.11747         0.00041  20670633.53147  20670627.79649
  -2974582.84849  -2317855.22747         0.00041  20685981.45047  20685976.04049
 -13262408.70849 -10334333.29147         0.00041  20508681.42447  20508677.36049
 -13331753.27848 -10388360.93046         0.00041  22534225.24146  22534215.80948
  10163192.37149   7919366.97446         0.00041  22550063.43046  22550057.53049
  -4295212.15648  -3346911.57746         0.00041  22088483.97846  22088478.43848
 02 07 05 17 08 00.0000000  0  8 03 06 15 17 18 21 23 26
  -3361504.17448  -2619353.86244         0.00041  24491842.47044  24491835.12748
   5149870.72249   4012879.35046         0.00041  21334023.52846  21334016.95249
  -8672914.81849  -6758109.47647         0.00041  20666190.75247  20666184.89149
  -2983094.47249  -2324487.65747         0.00041  20684361.72647  20684356.44549
 -13284585.24049 -10351613.68747         0.00041  20504461.67047  20504457.41349
 -13391719.39848 -10435087.69346         0.00041  22522814.45646  22522804.77548
  10239350.06048   7978710.58746         0.00041  22564555.66146  22564549.70648
  -4253279.53448  -3314236.83546         0.00041  22096463.73146  22096458.05248
 02 07 05 17 08 30.0000000  0  8 03 06 15 17 18 21 23 26
  -3461428.51548  -2697216.86244         0.00041  24472830.06744  24472820.38748
   5222796.92349   4069704.86246         0.00041  21347901.11846  21347894.41949
  -8696045.86349  -6776133.65047         0.00041  20661788.95047  20661783.18249
  -2991409.58749  -2330966.95847         0.00041  20682779.48947  20682774.01349
 -13306324.60149 -10368553.43147         0.00041  20500324.60147  20500320.52749
 -13451395.34648 -10481588.35446         0.00041  22511458.43846  22511448.50948
  10315637.53548   8038155.33046         0.00041  22579072.58546  22579066.86348
  -4210723.85648  -3281076.58646         0.00041  22104561.79746  22104556.15348
 02 07 05 17 09 00.0000000  0  8 03 06 15 17 18 21 23 26
  -3561191.87348  -2774954.46644         0.00041  24453841.70544  24453834.93548
   5296154.67049   4126866.63846         0.00041  21361860.74046  21361853.77549
  -8718955.77949  -6793985.51847         0.00041  20657429.51747  20657423.62649
  -2999523.09949  -2337289.16747         0.00041  20681235.22447  20681229.92849
 -13327622.59449 -10385149.25547         0.00041  20496271.75747  20496267.54549
 -13510776.39048 -10527859.22046         0.00041  22500157.70246  22500148.51848
  10392057.47848   8097703.29046         0.00041  22593615.53346  22593609.26048
  -4167541.95848  -3247428.37346         0.00041  22112778.79046  22112773.67748
 02 07 05 17 09 30.0000000  0  8 03 06 15 17 18 21 23 26
  -3660802.23248  -2852572.85144         0.00041  24434887.19044  24434880.03948
   5369931.89449   4184355.28146         0.00041  21375900.35246  21375893.64849
  -8741654.22449  -6811672.59947         0.00041  20653110.09247  20653104.20949
  -3007444.53349  -2343461.70347         0.00041  20679728.14047  20679722.69849
 -13348489.93449 -10401409.50247         0.00041  20492300.53647  20492296.53049
 -13569873.00748 -10573908.44146         0.00041  22488912.66446  22488902.98348
  10468597.58748   8157344.88346         0.00041  22608180.39746  22608174.08448
  -4123745.80248  -3213301.51846         0.00041  22121112.85946  22121107.45348
 02 07 05 17 10 00.0000000  0  8 03 06 15 17 18 21 23 26
  -3760234.23248  -2930052.25344         0.00041  24415964.52244  24415958.43848
   5444149.91749   4242187.40446         0.00041  21390023.49346  21390016.57449
  -8764117.71949  -6829176.60547         0.00041  20648835.56747  20648829.69049
  -3015150.45249  -2349466.30447         0.00041  20678261.88347  20678256.38049
 -13368904.57749 -10417316.99847         0.00041  20488415.97347  20488411.72949
 -13628662.35448 -10619718.23046         0.00041  22477725.17046  22477715.73748
  10545279.08748   8217096.64846         0.00041  22622772.37546  22622766.20048
  -4079313.94148  -3178679.32346         0.00041  22129567.94646  22129562.39348
 02 07 05 17 10 30.0000000  0  8 03 06 15 17 18 21 23 26
  -3859483.37048  -3007389.16544         0.00041  24397078.10044  24397072.00448
   5518809.28949   4300363.42646         0.00041  21404231.15146  21404223.96449
  -8786343.55449  -6846495.42247         0.00041  20644606.07147  20644600.07649
  -3022638.00449  -2355300.74947         0.00041  20676837.31547  20676831.53749
 -13388864.88149 -10432870.46647         0.00041  20484617.71947  20484613.50149
 -13687141.74048 -10665286.50446         0.00041  22466597.28146  22466586.85648
  10622102.32548   8276958.86646         0.00041  22637390.53746  22637385.30748
  -4034245.71048  -3143561.25146         0.00041  22138144.33546  22138139.41348
 02 07 05 17 11 00.0000000  0  8 03 06 15 17 18 21 23 26
  -3958573.10348  -3084601.84244         0.00041  24378223.12544  24378215.71848
   5593882.48549   4358861.91246         0.00041  21418517.07746  21418510.22749
  -8808357.01949  -6863648.75747         0.00041  20640417.00947  20640411.06449
  -3029932.28049  -2360984.59247         0.00041  20675448.80747  20675443.41649
 -13408397.40349 -10448090.60147         0.00041  20480900.52647  20480896.40949
 -13745337.18648 -10710633.52146         0.00041  22455523.07846  22455512.90148
  10699039.45448   8336909.82446         0.00041  22652032.26246  22652026.01048
  -3988568.63548  -3107968.75646         0.00041  22146836.87846  22146831.08248
 02 07 05 17 11 30.0000000  0  8 03 06 15 17 18 21 23 26
  -4057510.15448  -3161695.56544         0.00041  24359398.43144  24359388.00648
   5669358.70249   4417674.43746         0.00041  21432879.64146  21432872.76649
  -8830166.68249  -6880643.28547         0.00041  20636266.73247  20636261.03049
  -3037041.70349  -2366524.39347         0.00041  20674095.84047  20674090.47549
 -13427511.62149 -10462984.78347         0.00041  20477263.35547  20477259.27549
 -13803257.05648 -10755765.80446         0.00041  22444500.09346  22444491.15748
  10776079.72648   8396941.15846         0.00041  22666692.80646  22666686.37148
  -3942293.29548  -3071910.07446         0.00041  22155643.02146  22155637.01048
 02 07 05 17 12 00.0000000  0  8 03 06 15 17 18 21 23 26
  -4156302.24448  -3238676.34644         0.00041  24340597.99044  24340588.06148
   5745226.05749   4476791.74846         0.00041  21447316.96346  21447310.22149
  -8851781.87949  -6897486.28447         0.00041  20632153.18947  20632147.81549
  -3043975.84749  -2371927.61547         0.00041  20672776.41547  20672771.12249
 -13446218.33349 -10477561.43047         0.00041  20473703.64747  20473699.55549
 -13860911.96748 -10800691.61946         0.00041  22433528.41046  22433519.72248
  10853211.03648   8457043.43046         0.00041  22681370.60746  22681363.95948
  -3895431.57448  -3035394.46446         0.00041  22164560.23346  22164554.68048
 02 07 05 17 12 30.0000000  0  8 03 06 15 17 18 21 23 26
  -4254982.93548  -3315570.28844         0.00041  24321820.55444  24321809.88148
   5821447.18249   4536184.71946         0.00041  21461821.62646  21461814.62949
  -8873237.81549  -6914205.18047         0.00041  20628070.39647  20628064.92749
  -3050769.87149  -2377221.64847         0.00041  20671483.53347  20671478.31049
 -13464553.94049 -10491848.90347         0.00041  20470214.49547  20470210.18849
 -13918337.44248 -10845438.66246         0.00041  22422601.46646  22422591.78548
  10930395.72948   8517187.30746         0.00041  22696057.47046  22696051.88648
  -3848020.92448  -2998451.12346         0.00041  22173582.11446  22173576.64648
 02 07 05 17 13 00.0000000  0  8 03 06 15 17 18 21 23 26
  -4353533.34448  -3392362.74644         0.00041  24303066.23444  24303055.80948
   5898036.67649   4595864.72846         0.00041  21476395.94646  21476389.00549
  -8894517.92349  -6930787.06647         0.00041  20624021.12247  20624015.40149
  -3057406.66549  -2382393.16147         0.00041  20670220.62947  20670215.24549
 -13482503.00249 -10505835.17047         0.00041  20466798.89647  20466794.90849
 -13975517.22149 -10889994.26146         0.00041  22411720.33946  22411710.90749
  11007648.37348   8577384.13146         0.00041  22710758.90146  22710752.43048
  -3800046.67848  -2961068.61446         0.00041  22182712.01446  22182705.61748
 02 07 05 17 13 30.0000000  0  8 03 06 15 17 18 21 23 26
  -4451916.70848  -3469025.01444         0.00041  24284345.44244  24284333.77548
   5975026.97749   4655857.05946         0.00041  21491047.17046  21491040.08949
  -8915587.11849  -6947204.60847         0.00041  20620011.84747  20620005.88449
  -3063851.23149  -2387414.88747         0.00041  20668994.18947  20668988.89349
 -13500031.62049 -10519493.81547         0.00041  20463463.16347  20463459.18049
 -14032417.07349 -10934331.72746         0.00041  22400892.59946  22400883.41549
  11085001.39148   8637659.17946         0.00041  22725477.91246  22725472.53748
  -3751476.13048  -2923221.45246         0.00041  22191954.45346  22191948.13148
 02 07 05 17 14 00.0000000  0  8 03 06 15 17 18 21 23 26
  -4550111.13048         0.00041         0.00041         0.00041  24265648.03148
   6052436.08849   4716175.74546         0.00041  21505777.80346  21505770.62649
  -8936425.04149  -6963441.93847         0.00041  20616046.30447  20616040.36149
  -3070083.24349  -2392270.98647         0.00041  20667808.21847  20667802.92749
 -13517120.73949 -10532809.99647         0.00041  20460211.28747  20460207.09449
 -14089017.03149 -10978435.50946         0.00041  22390121.59846  22390112.41449
  11162472.63648   8698026.27346         0.00041  22740221.48546  22740214.62848
  -3702291.30248  -2884895.63746         0.00041  22201313.24646  22201307.91148
 02 07 05 17 14 30.0000000  0  8 03 06 15 17 18 21 23 26
  -4648113.27248  -3621905.26844         0.00041  24247007.75844  24246998.32648
   6130263.30949   4776820.20346         0.00041  21520587.32446  21520580.51949
  -8957029.85049  -6979497.62347         0.00041  20612125.22547  20612119.36149
  -3076100.97149  -2396960.11347         0.00041  20666663.41947  20666657.55949
 -13533770.14449 -10545783.54147         0.00041  20457043.17647  20457038.98349
 -14145316.04149 -11022304.78846         0.00041  22379408.09846  22379398.91449
  11240061.40248   8758485.04946         0.00041  22754985.09446  22754979.04248
  -3652493.03948  -2846091.81646         0.00041  22210790.23646  22210784.32448
 02 07 05 17 15 00.0000000  0  8 03 06 15 17 18 21 23 26
  -4745885.27648  -3698091.20144         0.00041  24228402.15044  24228393.71148
   6208541.90549   4837816.39546         0.00041  21535483.86946  21535476.78549
  -8977365.69549  -6995343.72347         0.00041  20608255.58247  20608249.57049
  -3081868.39849  -2401454.20247         0.00041  20665565.78247  20665560.08849
 -13549945.20749 -10558387.47347         0.00041  20453965.03347  20453960.89449
 -14201278.70548 -11065911.98146         0.00041  22368758.64446  22368749.21248
  11317801.14548   8819061.43146         0.00041  22769778.48546  22769772.49248
  -3602047.87948  -2806783.91346         0.00041  22220388.82946  22220383.73448
 02 07 05 17 15 30.0000000  0  8 03 06 15 17 18 21 23 26
  -4843526.73948         0.00041         0.00041         0.00041  24209813.06248
   6287168.07349   4899083.41646         0.00041  21550445.74446  21550438.66149
  -8997534.08549  -7011059.33847         0.00041  20604417.55247  20604411.64849
  -3087486.95649  -2405832.29347         0.00041  20664496.52847  20664491.04949
 -13565748.75849 -10570701.91547         0.00041  20450957.77947  20450953.54649
 -14257007.46548 -11109336.91546         0.00041  22358154.12246  22358144.19448
  11395588.10248   8879674.60346         0.00041  22784580.90346  22784574.79648
  -3551059.61748  -2767052.82146         0.00041  22230091.55646  22230086.68748
 02 07 05 17 16 00.0000000  0  8 03 06 15 17 18 21 23 26
  -4940990.23448  -3850120.86344         0.00041  24191276.12044  24191265.44748
   6366185.11249   4960655.00946         0.00041  21565482.11346  21565475.25549
  -9017489.47949  -7026608.98147         0.00041  20600619.95847  20600614.59849
  -3092910.97649  -2410058.79647         0.00041  20663463.99247  20663458.68449
 -13581136.68249 -10582692.49347         0.00041  20448029.32147  20448025.06249
 -14312456.78148 -11152544.10246         0.00041  22347602.00546  22347592.57348
  11473465.45848   8940358.22446         0.00041  22799400.74046  22799394.16448
  -3499485.25248  -2726865.03046         0.00041  22239906.07346  22239901.27348
 02 07 05 17 16 30.0000000  0  8 03 06 15 17 18 21 23 26
  -5038194.79748         0.00041         0.00041         0.00041  24172768.18248
   6445669.76949   5022590.98446         0.00041  21580608.10746  21580600.84049
  -9037152.64349  -7041930.90947         0.00041  20596877.92347  20596872.64149
  -3098061.20749  -2414071.95247         0.00041  20662483.75547  20662478.78649
 -13596030.99849 -10594298.44347         0.00041  20445195.07947  20445190.72849
 -14367548.61849 -11195472.73346         0.00041  22337118.67146  22337109.23949
  11551509.98148   9001172.09846         0.00041  22814251.94046  22814245.75848
  -3447247.97248  -2686160.67446         0.00041  22249846.09946  22249841.34348
 02 07 05 17 17 00.0000000  0  8 03 06 15 17 18 21 23 26
  -5135228.81348         0.00041         0.00041         0.00041  24154302.70548
   6525529.69049   5084819.36346         0.00041  21595805.51446  21595797.58949
  -9056613.50749  -7057095.20147         0.00041  20593174.82547  20593169.43349
  -3103027.49949  -2417941.77847         0.00041  20661539.03047  20661533.92249
 -13610523.27449 -10605591.11547         0.00041  20442437.38647  20442433.23849
 -14422373.58448 -11238193.40546         0.00041  22326685.42446  22326675.99248
  11629629.29048   9062044.24046         0.00041  22829117.53246  22829111.51948
  -3394440.15848  -2645011.75346         0.00041  22259895.64446  22259890.34048
 02 07 05 17 17 30.0000000  0  8 03 06 15 17 18 21 23 26
  -5232148.69448         0.00041         0.00041         0.00041  24135860.48648
   6605703.96449   5147292.69146         0.00041  21611061.45646  21611054.43949
  -9075930.41949  -7072147.32247         0.00041  20589498.95747  20589493.56049
  -3107868.02549  -2421713.60747         0.00041  20660617.78247  20660612.69249
 -13624672.97449 -10616616.84447         0.00041  20439744.46147  20439740.24749
 -14476990.80649 -11280752.20746         0.00041  22316292.25446  22316282.82249
  11707762.64648   9122927.33546         0.00041  22843986.49146  22843979.83248
  -3341122.83148  -2603465.80346         0.00041  22270041.34046  22270036.35648
 02 07 05 17 18 00.0000000  0  8 03 06 15 17 18 21 23 26
  -5328929.94848         0.00041         0.00041         0.00041  24117444.14148
   6686212.92249   5210026.81446         0.00041  21626381.80546  21626374.93149
  -9095080.53049  -7087069.46847         0.00041  20585854.74147  20585849.12249
  -3112559.89849  -2425369.60747         0.00041  20659725.14747  20659719.54049
 -13638458.84249 -10627359.06547         0.00041  20437121.40147  20437117.24749
 -14531377.86049 -11323131.64646         0.00041  22305941.66446  22305933.79249
  11785930.67148   9183837.43946         0.00041  22858860.86546  22858854.83548
  -3287275.56048  -2561506.91046         0.00041  22280287.55546  22280283.02548
 02 07 05 17 18 30.0000000  0  8 03 06 15 17 18 21 23 26
  -5425501.90148  -4227661.88144         0.00041  24099077.58444  24099067.15948
   6767122.48849   5273073.09946         0.00041  21641778.57846  21641771.50949
  -9113994.97349  -7101807.97847         0.00041  20582255.50347  20582249.91149
  -3117034.40649  -2428856.23747         0.00041  20658873.98547  20658868.11749
 -13651813.51249 -10637765.28947         0.00041  20434580.00347  20434575.78649
 -14585466.51249 -11365278.56746         0.00041  22295649.52246  22295641.08349
  11864199.49148   9244826.09246         0.00041  22873755.23146  22873748.89548
  -3232832.36548  -2519083.66646         0.00041  22290649.08246  22290643.17448
 02 07 05 17 19 00.0000000  0  8 03 06 15 17 18 21 23 26
  -5521924.71648  -4302796.46645         0.00041  24080728.95845  24080719.27748
   6848368.46249   5336381.51846         0.00041  21657239.58346  21657232.29049
  -9132735.53949  -7116411.00347         0.00041  20578689.49347  20578683.76949
  -3121353.25049  -2432221.56847         0.00041  20658051.88747  20658046.17949
 -13664800.31349 -10647884.86047         0.00041  20432108.46947  20432104.39149
 -14639319.29449 -11407241.69746         0.00041  22285401.05846  22285392.61949
  11942504.99648   9305843.32146         0.00041  22888656.32446  22888650.08548
  -3177857.65148  -2476246.25146         0.00041  22301110.37046  22301104.46048
 02 07 05 17 19 30.0000000  0  8 03 06 15 17 18 21 23 26
  -5618212.83848  -4377826.02345         0.00041  24062406.70345  24062396.52748
   6929932.21549   5399937.55546         0.00041  21672761.01246  21672753.55949
  -9151318.76049  -7130891.41947         0.00041  20575153.11547  20575147.48149
  -3125532.45249  -2435478.08947         0.00041  20657256.81247  20657251.19149
 -13677436.81349 -10657731.46847         0.00041  20429704.15947  20429700.16349
 -14692953.17849 -11449034.25646         0.00041  22275195.13046  22275186.44249
  12020828.65348   9366874.70646         0.00041  22903560.55946  22903554.44848
  -3122370.23848  -2433009.33546         0.00041  22311668.29346  22311663.40048
 02 07 05 17 20 00.0000000  0  8 03 06 15 17 18 21 23 26
  -5714322.12748  -4452716.27445         0.00041  24044116.21045  24044107.02648
   7011853.30149   5463772.03146         0.00041  21688350.15946  21688342.75949
  -9169702.25449  -7145216.20347         0.00041  20571654.99747  20571649.31649
  -3129529.88149  -2438592.96747         0.00041  20656496.19547  20656490.62049
 -13689682.39949 -10667273.46747         0.00041  20427373.76047  20427369.55549
 -14746327.30749 -11490624.41146         0.00041  22265038.23746  22265029.55049
  12099210.20848   9427951.19446         0.00041  22918476.73946  22918470.07648
  -3066330.56948  -2389342.08546         0.00041  22322332.79046  22322327.21448
 02 07 05 17 20 30.0000000  0  8 03 06 15 17 18 21 23 26
  -5810219.56648  -4527441.43545         0.00041  24025867.64445  24025858.70948
   7094160.43049   5527907.32246         0.00041  21704012.88446  21704005.34749
  -9187854.47449  -7159360.76947         0.00041  20568200.86447  20568194.97949
  -3133313.97449  -2441541.60747         0.00041  20655775.78647  20655770.52049
 -13701507.19149 -10676487.57747         0.00041  20425123.64047  20425119.40249
 -14799410.56849 -11531987.91346         0.00041  22254936.91846  22254928.47949
  12177678.61048   9489095.34646         0.00041  22933408.44646  22933401.69148
  -3009710.11148  -2345222.27946         0.00041  22333107.48346  22333102.09848
 02 07 05 17 21 00.0000000  0  8 03 06 15 17 18 21 23 26
  -5905899.74248  -4601997.29945         0.00041  24007659.03745  24007650.34948
   7176854.63149   5592344.22946         0.00041  21719748.87546  21719741.73249
  -9205771.99749  -7173322.45647         0.00041  20564791.23747  20564785.35849
  -3136881.32849  -2444321.35947         0.00041  20655096.92647  20655091.69049
 -13712909.35349 -10685372.36347         0.00041  20422953.76747  20422949.82549
 -14852200.30649 -11573122.69346         0.00041  22244891.48146  22244883.29049
  12256235.02648   9550308.08446         0.00041  22948356.79846  22948350.63148
  -2952507.89748  -2300649.14846         0.00041  22343992.65746  22343987.15748
 02 07 05 17 21 30.0000000  0  8 03 06 15 17 18 21 23 26
  -6001371.98848  -4676391.12145         0.00041  23989490.37145  23989482.56948
   7259922.14949   5657072.02346         0.00041  21735556.60446  21735548.66149
  -9223465.87749  -7187109.87847         0.00041  20561423.91847  20561418.29049
  -3140242.79149  -2446940.67547         0.00041  20654457.25647  20654451.90649
 -13723901.20849 -10693937.42047         0.00041  20420862.03747  20420858.01249
 -14904708.55349 -11614038.13546         0.00041  22234899.14246  22234890.95149
  12334866.05848   9611578.97246         0.00041  22963320.79346  22963314.01548
  -2894737.82848  -2255633.53446         0.00041  22354986.39446  22354980.20448
 02 07 05 17 22 00.0000000  0  8 03 06 15 17 18 21 23 26
  -6096626.12948  -4750615.01545         0.00041  23971364.02045  23971355.82948
   7343368.86849   5722095.30146         0.00041  21751436.60646  21751428.41549
  -9240927.62649  -7200716.41547         0.00041  20558100.88547  20558095.42949
  -3143389.78549  -2449392.87447         0.00041  20653858.31947  20653853.03349
 -13734475.78849 -10702177.33547         0.00041  20418849.98847  20418845.59949
 -14956927.07949 -11654727.82046         0.00041  22224962.07946  22224953.64049
  12413578.03848   9672912.93546         0.00041  22978298.94446  22978292.68048
  -2836394.10748  -2210170.91546         0.00041  22366088.47446  22366082.91448
 02 07 05 17 22 30.0000000  0  8 03 06 15 17 18 21 23 26
  -6191650.46348  -4824659.84345         0.00041  23953282.01845  23953273.33148
   7427202.11249   5787419.77446         0.00041  21767388.75346  21767381.39149
  -9258147.27949  -7214134.30747         0.00041  20554824.41147  20554818.62849
  -3146312.24049  -2451670.10847         0.00041  20653302.28247  20653296.86549
 -13744624.92949 -10710085.74347         0.00041  20416918.61847  20416914.10049
 -15008847.26149 -11695185.03546         0.00041  22215082.10746  22215073.66749
  12492378.40848   9734315.77146         0.00041  22993294.34546  22993288.05048
  -2777469.64748  -2164255.78646         0.00041  22377301.33446  22377296.24148
 02 07 05 17 23 00.0000000  0  8 03 06 15 17 18 21 23 26
  -6286470.36548  -4898545.36745         0.00041  23935238.76645  23935230.07948
   7511392.14749   5853022.25446         0.00041  21783409.73646  21783402.10249
  -9275151.94349  -7227384.67447         0.00041  20551588.48347  20551582.95149
  -3149037.08949  -2453793.36547         0.00041  20652783.87647  20652778.37049
 -13754377.14649 -10717684.85647         0.00041  20415062.74647  20415058.61549
 -15060496.86849 -11735431.40946         0.00041  22205253.76846  22205245.08149
  12571237.74948   9795764.55446         0.00041  23008300.42946  23008294.29048
  -2717994.29148  -2117911.38246         0.00041  22388619.03046  22388613.97048
 02 07 05 17 23 30.0000000  0  8 03 06 15 17 18 21 23 26
  -6381055.11648  -4972247.64745         0.00041  23917239.40045  23917230.71348
   7595965.19749   5918923.18246         0.00041  21799503.83246  21799496.38549
  -9291912.43149  -7240444.77547         0.00041  20548398.84547  20548393.42649
  -3151535.45749  -2455740.14847         0.00041  20652308.60047  20652303.14649
 -13763705.18349 -10724953.43947         0.00041  20413287.59147  20413283.38949
 -15111847.54849 -11775444.85846         0.00041  22195482.15146  22195472.96749
  12650182.59948   9857279.97246         0.00041  23023323.49146  23023317.17448
  -2657941.93248  -2071117.37646         0.00041  22400046.56346  22400041.18148
 02 07 05 17 24 00.0000000  0  8 03 06 15 17 18 21 23 26
  -6475409.27748  -5045770.24745         0.00041  23899284.53745  23899275.60148
   7680911.85349   5985115.23946         0.00041  21815669.13546  21815661.44449
  -9308435.64049  -7253319.98647         0.00041  20545254.41047  20545248.99749
  -3153813.84749  -2457515.51947         0.00041  20651875.06847  20651869.65649
 -13772617.09549 -10731897.76947         0.00041  20411591.54047  20411587.50249
 -15162906.96049 -11815231.34846         0.00041  22185766.03646  22185756.85249
  12729204.16748   9918855.17546         0.00041  23038360.19146  23038354.47048
  -2597322.05248  -2023881.14446         0.00041  22411583.14946  22411577.18948
 02 07 05 17 24 30.0000000  0  8 03 06 15 17 18 21 23 26
  -6569510.69048  -5119095.89645         0.00041  23881378.52445  23881368.34848
   7766249.77949   6051612.17546         0.00041  21831908.27446  21831900.62249
  -9324701.03849  -7265994.30847         0.00041  20542159.57247  20542153.91449
  -3155851.62849  -2459103.40047         0.00041  20651487.31247  20651481.61349
 -13781093.98249 -10738503.12147         0.00041  20409978.57847  20409974.54049
 -15213655.54549 -11854775.62246         0.00041  22176108.34446  22176100.15349
  12808320.50648   9980504.22146         0.00041  23053415.95646  23053410.01948
  -2536117.07148  -1976188.98546         0.00041  22423229.20746  22423224.46148
 02 07 05 17 25 00.0000000  0  8 03 06 15 17 18 21 23 26
  -6663351.45948         0.00041         0.00041         0.00041  23863510.51048
   7851982.47149   6118416.71746         0.00041  21848222.48246  21848215.02449
  -9340702.32749  -7278462.83047         0.00041  20539114.81147  20539108.91549
  -3157642.43049  -2460498.83447         0.00041  20651146.17547  20651140.72949
 -13789131.42049 -10744766.04247         0.00041  20408449.04147  20408445.17949
 -15264087.76949 -11894073.39146         0.00041  22166511.32846  22166503.13749
  12887535.43948  10042230.09446         0.00041  23068490.09346  23068483.87448
  -2474323.66248  -1928038.30746         0.00041  22434988.48146  22434983.32648
 02 07 05 17 25 30.0000000  0  8 03 06 15 17 18 21 23 26
  -6756940.50648  -5265144.84545         0.00041  23845711.30145  23845700.87648
   7938096.60549   6185518.49346         0.00041  21864610.10646  21864601.91549
  -9356450.17449  -7290733.86447         0.00041  20536117.87847  20536112.11849
  -3159196.98549  -2461710.17747         0.00041  20650850.36847  20650845.02649
 -13796741.69349 -10750696.10747         0.00041  20407000.76647  20406996.86449
 -15314215.23949 -11933133.69346         0.00041  22156972.08046  22156963.88949
  12966836.09148  10104022.75346         0.00041  23083581.35846  23083573.87648
  -2411955.34248  -1879439.65846         0.00041  22446856.70146  22446850.74048
 02 07 05 17 26 00.0000000  0  8 03 06 15 17 18 21 23 26
  -6850265.28448         0.00041         0.00041         0.00041  23827941.66848
   8024600.47449   6252923.94446         0.00041  21881071.02846  21881063.29849
  -9371933.64149  -7302798.88747         0.00041  20533171.58947  20533165.76249
  -3160504.23549  -2462728.81947         0.00041  20650601.71847  20650596.35049
 -13803915.85149 -10756286.34447         0.00041  20405635.66847  20405631.71349
 -15364027.90149 -11971948.68746         0.00041  22147492.46846  22147484.64849
  13046231.11348  10165888.94946         0.00041  23098688.58446  23098682.08948
  -2349004.44648  -1830387.06546         0.00041  22458836.33146  22458830.44848
 02 07 05 17 26 30.0000000  0  8 03 06 15 17 18 21 23 26
  -6943367.59448  -5410412.46945         0.00041  23810235.13045  23810224.70548
   8111447.52449   6320596.80946         0.00041  21897597.92246  21897590.09749
  -9387196.45149  -7314691.97447         0.00041  20530267.12947  20530261.31749
  -3161607.84749  -2463588.78247         0.00041  20650391.46747  20650386.30849
 -13810698.88049 -10761571.80447         0.00041  20404344.76247  20404340.90849
 -15413570.52649 -12010553.25846         0.00041  22138065.15046  22138057.25849
  13125674.48448  10227792.81746         0.00041  23113806.64046  23113800.21848
  -2285517.46048  -1780916.72746         0.00041  22470916.69246  22470911.87548
 02 07 05 17 27 00.0000000  0  8 03 06 15 17 18 21 23 26
  -7036255.49648  -5482792.54145         0.00041  23792558.08445  23792548.90048
   8198625.17249   6388527.28046         0.00041  21914187.84846  21914179.40949
  -9402248.29949  -7326420.67647         0.00041  20527402.57547  20527397.09849
  -3162517.44549  -2464297.56547         0.00041  20650218.51247  20650213.42149
 -13817102.18349 -10766561.37347         0.00041  20403126.23247  20403122.22049
 -15462853.68249 -12048955.65346         0.00041  22128687.68446  22128678.74849
  13205154.12448  10289724.93446         0.00041  23128931.62246  23128925.22348
  -2221507.13248  -1731038.58746         0.00041  22483098.39146  22483092.61048
 02 07 05 17 27 30.0000000  0  8 03 06 15 17 18 21 23 26
  -7129047.74348  -5555098.08545         0.00041  23774898.70145  23774891.30948
   8286010.04948   6456619.22846         0.00041  21930816.33946  21930807.65248
  -9417209.70549  -7338078.90947         0.00041  20524555.60047  20524550.02249
  -3163353.42349  -2464948.98147         0.00041  20650059.22347  20650054.08049
 -13823248.10449 -10771350.38547         0.00041  20401956.69847  20401952.37449
 -15511999.06249 -12087250.68746         0.00041  22119334.95246  22119326.26549
  13284547.23548  10351589.64746         0.00041  23144039.93646  23144033.27248
  -2157097.09048  -1680848.97646         0.00041  22495354.65046  22495349.15348
 02 07 05 17 28 00.0000000  0  8 03 06 15 17 18 21 23 26
  -7221671.66648  -5627272.46145         0.00041  23757275.66645  23757265.49048
   8373670.23649   6524925.71146         0.00041  21947498.06346  21947489.37549
  -9432009.97649  -7349611.57947         0.00041  20521739.01047  20521733.58749
  -3164044.80749  -2465487.72846         0.00041  20649927.68946  20649922.31549
 -13829067.52849 -10775884.98547         0.00041  20400849.67547  20400845.35049
 -15560936.55149 -12125383.72246         0.00041  22110022.33346  22110013.89449
  13363922.32348  10413440.30846         0.00041  23159144.09846  23159137.77648
  -2092219.56048  -1630295.09446         0.00041  22507700.60646  22507694.97848
 02 07 05 17 28 30.0000000  0  8 03 06 15 17 18 21 23 26
  -7314025.85548  -5699236.65845         0.00041  23739699.29745  23739690.85848
   8461702.69249   6593522.26546         0.00041  21964250.26646  21964241.82649
  -9446549.07649  -7360940.74147         0.00041  20518972.41847  20518966.91849
  -3164491.93749  -2465836.14946         0.00041  20649842.69046  20649837.23349
 -13834462.64149 -10780088.95047         0.00041  20399822.69547  20399818.79449
 -15609567.58949 -12163277.96946         0.00041  22100768.20846  22100759.76949
  13443376.81848  10475352.83946         0.00041  23174263.21946  23174257.31748
  -2026777.72248  -1579301.49646         0.00041  22520154.16646  22520148.26948
 02 07 05 17 29 00.0000000  0  7 03 06 15 17 18 21 23
  -7406116.81248  -5770995.71944         0.00041  23722172.71644  23722166.55648
   8550096.54549   6662400.43246         0.00041  21981071.16546  21981062.72649
  -9460835.25449  -7372072.82047         0.00041  20516254.07947  20516248.47749
  -3164702.55349  -2466000.27646         0.00041  20649802.68546  20649797.24449
 -13839442.89749 -10783969.65247         0.00041  20398875.20147  20398871.15149
 -15657900.59349 -12200939.98146         0.00041  22091569.97346  22091562.42949
  13522900.53748  10537319.32846         0.00041  23189397.31146  23189390.20548
 02 07 05 17 29 30.0000000  0  7 03 06 15 17 18 21 23
  -7497890.48648  -5842507.60145         0.00041  23704712.01645  23704702.83248
   8638900.85348   6731598.42446         0.00041  21997970.29446  21997961.60648
  -9474816.24449  -7382967.08947         0.00041  20513593.56247  20513587.97049
  -3164624.71749  -2465939.63346         0.00041  20649817.31246  20649812.11549
 -13843958.05449 -10787487.94447         0.00041  20398015.91147  20398011.72549
 -15705885.13249 -12238330.45746         0.00041  22082439.43846  22082431.24749
  13602543.08748  10599378.39746         0.00041  23204552.21046  23204545.42948
 02 07 05 17 30 00.0000000  0  7 03 06 15 17 18 21 23
  -7589410.68648  -5913821.93345         0.00041  23687294.27645  23687286.71748
   8728047.32848   6801063.04346         0.00041  22014934.14846  22014925.70948
  -9488557.57149  -7393674.60847         0.00041  20510978.59747  20510973.13449
  -3164323.96549  -2465705.29146         0.00041  20649874.60846  20649869.30349
 -13848075.38349 -10790696.23647         0.00041  20397232.41847  20397228.17549
 -15753587.51649 -12275501.08846         0.00041  22073361.66846  22073353.22949
  13682236.59648  10661477.17246         0.00041  23219718.22746  23219710.74748
 02 07 05 17 30 30.0000000  0  7 03 06 15 17 18 21 23
  -7680695.87148  -5984953.13645         0.00041  23669924.29645  23669916.10548
   8817512.88348   6870776.28546         0.00041  22031959.26546  22031950.57848
  -9502079.57849  -7404211.22747         0.00041  20508405.14847  20508399.79349
  -3163820.26949  -2465312.80646         0.00041  20649970.39046  20649965.25449
 -13851817.13449 -10793611.87447         0.00041  20396520.23447  20396516.16749
 -15801029.10449 -12312468.49946         0.00041  22064333.95546  22064325.51549
  13761958.66948  10723598.20146         0.00041  23234888.55746  23234881.21548
 02 07 05 17 31 00.0000000  0  7 03 06 15 17 18 21 23
  -7771787.62648  -6055933.62245         0.00041  23652589.80745  23652581.36848
   8907251.13248   6940702.02246         0.00041  22049036.42546  22049026.99348
  -9515425.47349  -7414610.61947         0.00041  20505865.49947  20505859.95349
  -3163156.87449  -2464795.88247         0.00041  20650096.90847  20650091.59749
 -13855228.36749 -10796269.96247         0.00041  20395871.10747  20395866.97549
 -15848254.38849 -12349267.35946         0.00041  22055346.78546  22055339.23049
  13841663.56948  10785705.86546         0.00041  23250055.96546  23250048.50248
 02 07 05 17 31 30.0000000  0  8 03 06 14 15 17 18 21 23
  -7862585.99348  -6126685.51545         0.00041  23635313.99845  23635303.07748
   8997357.62948   7010914.70446         0.00041  22066183.46246  22066174.27848
        -0.34257         0.00051         0.00051         0.00051  25191257.86857
  -9528496.96849  -7424796.19347         0.00041  20503378.48047  20503372.65449
  -3162235.38049  -2464077.84447         0.00041  20650272.19747  20650266.96849
 -13858212.53349 -10798595.27747         0.00041  20395303.35447  20395299.11149
 -15895165.93749 -12385821.75246         0.00041  22046419.77946  22046412.18349
  13921447.52348  10847875.11646         0.00041  23265239.30546  23265230.86548
 02 07 05 17 32 00.0000000  0  8 03 06 14 15 17 18 21 23
  -7953100.26948  -6197216.00945         0.00041  23618086.30045  23618078.80848
   9087818.12648   7081403.22546         0.00041  22083397.38346  22083388.19948
   -113180.37247         0.00041         0.00041         0.00041  25169720.36747
  -9541305.16749  -7434776.60247         0.00041  20500940.81547  20500935.32149
  -3161067.01649  -2463167.44247         0.00041  20650494.45547  20650489.38549
 -13860782.38349 -10800597.75047         0.00041  20394814.16247  20394810.05349
 -15941775.76149 -12422141.03446         0.00041  22037550.13946  22037542.57049
  14001296.87748  10910095.32846         0.00041  23280432.62846  23280426.05448
 02 07 05 17 32 30.0000000  0  7 03 06 15 17 18 21 23
  -8043354.69248  -6267544.01445         0.00041  23600913.77145  23600903.34648
   9178603.93748   7152145.23346         0.00041  22100673.06846  22100664.62848
  -9553875.77449  -7444571.87347         0.00041  20498548.80647  20498543.29149
  -3159677.30249  -2462084.55947         0.00041  20650759.15347  20650753.90649
 -13862965.72649 -10802299.04847         0.00041  20394398.79047  20394394.73649
 -15988110.69149 -12458246.11346         0.00041  22028732.88946  22028725.10149
  14081183.65948  10972344.70846         0.00041  23295634.88946  23295628.11948
 02 07 05 17 33 00.0000000  0  7 03 06 15 17 18 21 23
  -8133364.65048  -6337681.54045         0.00041  23583784.64845  23583775.71348
   9269694.68348   7223124.85046         0.00041  22118007.46546  22117998.77748
  -9566225.94849  -7454195.38047         0.00041  20496198.68247  20496193.15349
  -3158083.51749  -2460842.66247         0.00041  20651062.26047  20651056.94849
 -13864781.79849 -10803714.16147         0.00041  20394053.09947  20394049.06549
 -16034188.79449 -12494151.06746         0.00041  22019965.11346  22019956.92249
  14161088.49248  11034608.13446         0.00041  23310840.62146  23310833.55348
 02 07 05 17 33 30.0000000  0  7 03 06 15 17 18 21 23
  -8223064.24548  -6407577.23245         0.00041  23566713.69845  23566705.83748
   9361151.82448   7294389.96646         0.00041  22135411.61246  22135402.42848
  -9578291.69249  -7463597.25347         0.00041  20493902.70147  20493896.83149
  -3156221.20149  -2459391.52247         0.00041  20651416.60447  20651411.44849
 -13866167.99949 -10804794.31147         0.00041  20393789.42547  20393785.15249
 -16079947.26949 -12529806.96346         0.00041  22011257.52946  22011249.08949
  14241073.43748  11096934.00746         0.00041  23326061.37046  23326054.15348
 02 07 05 17 34 00.0000000  0  7 03 06 15 17 18 21 23
  -8312479.31748  -6477251.19245         0.00041  23549698.62145  23549690.87848
   9452944.98748   7365916.91846         0.00041  22152879.34046  22152870.15648
  -9590100.47649  -7472798.89947         0.00041  20491655.61447  20491649.77149
  -3154117.69149  -2457752.43447         0.00041  20651817.14047  20651812.01249
 -13867153.79849 -10805562.46147         0.00041  20393601.64547  20393597.47149
 -16125414.70049 -12565236.06946         0.00041  22002605.15146  22002597.34549
  14321108.85748  11159299.19746         0.00041  23341291.49946  23341284.70248
 02 07 05 17 34 30.0000000  0  7 03 06 15 17 18 21 23
  -8401602.59048  -6546697.80745         0.00041  23532740.33045  23532731.39448
   9545076.57248   7437707.58046         0.00041  22170411.68446  22170402.50048
  -9601646.75849  -7481795.99647         0.00041  20489458.49647  20489452.66149
  -3151767.73649  -2455921.31647         0.00041  20652264.19047  20652258.98649
 -13867735.62349 -10806015.82447         0.00041  20393490.88947  20393486.86849
 -16170586.66149 -12600434.94646         0.00041  21994008.99246  21994000.80149
  14401197.84048  11221706.12946         0.00041  23356531.81846  23356525.29448
 02 07 05 17 35 00.0000000  0  7 03 06 15 17 18 21 23
  -8490433.26748  -6615916.41745         0.00041  23515834.88345  23515827.28448
   9637542.53648   7509758.78646         0.00041  22188007.56046  22187998.37648
  -9612931.78149  -7490589.51247         0.00041  20487310.94447  20487305.18849
  -3149172.00849  -2453898.68747         0.00041  20652758.53547  20652753.06149
 -13867916.20849 -10806156.53247         0.00041  20393456.44347  20393452.66849
 -16215465.29249 -12635405.24946         0.00041  21985469.29846  21985460.61049
  14481337.23248  11284152.34545         0.00041  23371782.11745  23371775.35248
 02 07 05 17 35 30.0000000  0  7 03 06 15 17 18 21 23
  -8579000.57248  -6684929.77845         0.00041  23498983.00145  23498973.07248
   9730309.20148   7582044.30046         0.00041  22205660.46546  22205651.53048
  -9623986.05849  -7499203.23047         0.00041  20485207.01347  20485201.68349
  -3146361.35649  -2451708.58147         0.00041  20653293.19347  20653287.83749
 -13867728.44049 -10806010.21347         0.00041  20393492.36347  20393488.25449
 -16260082.26949 -12670171.66946         0.00041  21976978.76146  21976970.32249
  14561493.99548  11346612.07346         0.00041  23387036.00346  23387028.58048
 02 07 05 17 36 00.0000000  0  7 03 06 15 17 18 21 23
  -8667368.27648  -6753787.64445         0.00041  23482164.29445  23482157.09048
   9823307.90548   7654510.63246         0.00041  22223357.67246  22223348.98548
  -9634874.91449  -7507688.04447         0.00041  20483135.09247  20483129.75849
  -3143401.04649  -2449401.85947         0.00041  20653856.61147  20653851.11949
 -13867239.46949 -10805629.19147         0.00041  20393585.33347  20393581.35749
 -16304504.41949 -12704786.27946         0.00041  21968525.09546  21968517.31649
  14641600.41848  11409032.57546         0.00041  23402280.02646  23402272.51548
 02 07 05 17 36 30.0000000  0  7 03 06 15 17 18 21 23
  -8755444.38148  -6822418.26845         0.00041  23465406.08845  23465396.65548
   9916625.85048   7727225.71746         0.00041  22241116.22046  22241107.03648
  -9645508.25149  -7515973.75447         0.00041  20481111.57947  20481106.18349
  -3140200.80049  -2446908.17747         0.00041  20654465.56847  20654460.11049
 -13866361.09949 -10804944.74247         0.00041  20393752.43547  20393748.48849
 -16348642.57349 -12739179.59146         0.00041  21960125.84146  21960117.92349
  14721744.51548  11471482.45846         0.00041  23417529.88846  23417523.34548
 02 07 05 17 37 00.0000000  0  7 03 06 15 17 18 21 23
  -8843261.22548  -6890846.86445         0.00041  23448695.33945  23448685.41048
  10010226.04948   7800160.74946         0.00041  22258927.60646  22258918.42248
  -9655920.05749  -7524086.84747         0.00041  20479130.19547  20479124.72149
  -3136794.58149  -2444253.99847         0.00041  20655113.83547  20655108.27649
 -13865129.44349 -10803985.00647         0.00041  20393986.80747  20393982.95949
 -16392532.41249 -12773379.41146         0.00041  21951774.06046  21951765.62049
  14801889.94148  11533933.37046         0.00041  23432781.07346  23432774.66148
 02 07 05 17 37 30.0000000  0  8 03 06 14 15 17 18 21 23
  -8930806.40848  -6959063.79745         0.00041  23432035.35245  23432025.42448
  10104116.29548   7873321.78346         0.00041  22276795.02046  22276785.09248
        -0.12158         0.00051         0.00051         0.00051  24932251.38458
  -9666099.31649  -7532018.73747         0.00041  20477193.35647  20477187.63949
  -3133171.73249  -2441431.01447         0.00041  20655803.06847  20655797.65949
 -13863535.55749 -10802743.01447         0.00041  20394290.05447  20394286.05549
 -16436163.65849 -12807377.73146         0.00041  21943471.57546  21943463.13649
  14882045.60848  11596392.25845         0.00041  23448034.96245  23448027.89648
 02 07 05 17 38 00.0000000  0  8 03 06 14 15 17 18 21 23
  -9018114.55948  -7027096.01345         0.00041  23415420.84845  23415410.42248
  10198257.13648   7946678.08346         0.00041  22294709.32246  22294699.64248
   -113771.16448         0.00041         0.00041         0.00041  24910602.92848
  -9676082.39649  -7539797.76247         0.00041  20475293.66747  20475287.89249
  -3129368.19549  -2438467.23847         0.00041  20656526.82247  20656521.36649
 -13861617.61749 -10801248.51447         0.00041  20394655.18847  20394651.14649
 -16479574.40049 -12841204.23246         0.00041  21935210.15846  21935202.22349
  14962173.03548  11658829.13045         0.00041  23463282.36745  23463275.09048
 02 07 05 17 38 30.0000000  0  8 03 06 14 15 17 18 21 23
  -9105200.05948  -7094954.74645         0.00041  23398848.82045  23398838.64348
  10292629.18248   8020214.55246         0.00041  22312667.07746  22312658.14148
   -227636.40648         0.00041         0.00041         0.00041  24888933.45048
  -9685885.71349  -7547436.71747         0.00041  20473428.05647  20473422.48949
  -3125400.26249  -2435375.35947         0.00041  20657282.07047  20657276.70949
 -13859393.96849 -10799515.80147         0.00041  20395078.24247  20395074.29049
 -16522782.09749 -12874872.51946         0.00041  21926987.65846  21926980.06349
  15042253.75748  11721229.61145         0.00041  23478521.52845  23478514.57748
 02 07 05 17 39 00.0000000  0  8 03 06 14 15 17 18 21 23
  -9191992.66048  -7162585.23845         0.00041  23382331.83745  23382323.15048
  10387298.39448   8093982.58046         0.00041  22330682.68946  22330673.25748
   -341524.97548         0.00041         0.00041         0.00041  24867259.62448
  -9695440.18249  -7554881.76447         0.00041  20471609.92847  20471604.53349
  -3121198.77049  -2432101.48546         0.00041  20658081.47446  20658076.12649
 -13856797.50849 -10797492.58547         0.00041  20395572.35347  20395568.39549
 -16565718.54149 -12908329.43946         0.00041  21918817.08746  21918809.41049
  15122354.54548  11783645.73445         0.00041  23493764.42245  23493757.37248
 02 07 05 17 39 30.0000000  0  8 03 06 14 15 17 18 21 23
  -9278461.43048  -7229963.40345         0.00041  23365879.29145  23365868.86648
  10482290.57448   8168002.26346         0.00041  22348759.84646  22348750.16548
   -455406.11747         0.00041         0.00041         0.00041  24845588.04447
  -9704716.69549  -7562110.22047         0.00041  20469844.51047  20469839.12249
  -3116734.69049  -2428622.99747         0.00041  20658930.94647  20658925.62349
 -13853801.28149 -10795157.86147         0.00041  20396142.41747  20396138.72449
 -16608356.15549 -12941553.50546         0.00041  21910703.92446  21910695.73349
  15202502.19748  11846098.36745         0.00041  23509015.80245  23509008.92848
 02 07 05 17 40 00.0000000  0  8 03 06 14 15 17 18 21 23
  -9364620.92048  -7297100.55645         0.00041  23349482.91645  23349473.23648
  10577586.24148   8242258.42746         0.00041  22366894.01646  22366884.33648
   -569294.76448         0.00041         0.00041         0.00041  24823916.33948
  -9713731.76749  -7569134.95747         0.00041  20468129.17347  20468123.72549
  -3112024.34649  -2424952.61646         0.00041  20659827.45746  20659821.98149
 -13850423.55149 -10792525.86347         0.00041  20396785.45847  20396781.37649
 -16650712.12049 -12974558.10946         0.00041  21902643.80546  21902635.36649
  15282678.28248  11908573.17545         0.00041  23524272.64945  23524266.35548
 02 07 05 17 40 30.0000000  0  8 03 06 14 15 17 18 21 23
  -9450447.09048  -7363977.99845         0.00041  23333150.58545  23333140.90548
  10673204.79448   8316766.18546         0.00041  22385089.11446  22385079.93048
   -683166.59048         0.00041         0.00041         0.00041  24802248.48148
  -9722462.82649  -7575938.38647         0.00041  20466467.65347  20466462.32749
  -3107045.24449  -2421072.81846         0.00041  20660774.86146  20660769.44449
 -13846644.04249 -10789580.79047         0.00041  20397504.55247  20397500.30049
 -16692765.40049 -13007326.85046         0.00041  21894640.97046  21894632.77849
  15362903.01148  11971085.86345         0.00041  23539539.92945  23539532.44148
 02 07 05 17 41 00.0000000  0  8 03 06 14 15 17 18 21 23
  -9535910.41348  -7430572.69045         0.00041  23316886.43045  23316878.23848
  10769170.95548   8391544.81146         0.00041  22403351.62746  22403341.69948
   -796743.34447         0.00041         0.00041         0.00041  24780588.71847
  -9730881.94849  -7582498.74647         0.00041  20464865.47847  20464860.10649
  -3101769.39549  -2416961.78846         0.00041  20661778.93546  20661773.59249
 -13842436.76449 -10786302.39347         0.00041  20398305.09747  20398300.98749
 -16734489.46849 -13039839.06546         0.00041  21886701.35346  21886693.16249
  15443202.18848  12033656.57945         0.00041  23554820.04145  23554812.70048
 02 07 05 17 41 30.0000000  0  8 03 06 14 15 17 18 21 23
  -9621065.89748  -7496927.53045         0.00041  23300681.80045  23300673.36148
  10865425.12548   8466547.86146         0.00041  22421668.52246  22421658.59448
   -909827.28547         0.00041         0.00041         0.00041  24758927.82647
  -9739045.64149  -7588860.07447         0.00041  20463311.87947  20463306.56449
  -3096253.05549  -2412663.36446         0.00041  20662828.48146  20662823.30049
 -13837860.16749 -10782736.21147         0.00041  20399176.10747  20399172.05649
 -16775941.98949 -13072139.68046         0.00041  21878813.00946  21878804.81849
  15523517.15948  12096239.58045         0.00041  23570103.24945  23570096.61348
 02 07 05 17 42 00.0000000  0  7 03 06 15 17 18 21 23
  -9705958.98848  -7563077.90545         0.00041  23284529.24645  23284518.82148
  10961916.60548   8541735.83246         0.00041  22440031.34246  22440020.17348
  -9747001.33749  -7595059.32947         0.00041  20461797.71247  20461792.64849
  -3090543.69549  -2408214.53446         0.00041  20663915.03646  20663909.70649
 -13832963.95249 -10778920.98147         0.00041  20400107.82747  20400103.65849
 -16817171.53549 -13104266.55146         0.00041  21870967.55446  21870959.36349
  15603798.49948  12158796.39845         0.00041  23585380.78345  23585373.87248
 02 07 05 17 42 30.0000000  0  8 03 06 14 15 17 18 21 23
  -9790529.29448  -7628976.76845         0.00041  23268433.40545  23268424.96648
  11058701.21748   8617152.21046         0.00041  22458447.85046  22458437.67348
         0.26358         0.00051         0.00051         0.00051  24715585.80958
  -9754690.13849  -7601050.61047         0.00041  20460334.89347  20460329.67049
  -3084582.40549  -2403569.39546         0.00041  20665049.89846  20665044.08849
 -13827691.07249 -10774812.24647         0.00041  20401111.23647  20401107.05749
 -16858120.90149 -13136175.10346         0.00041  21863174.59246  21863167.13949
  15684102.70648  12221371.04045         0.00041  23600661.94645  23600654.81848
 02 07 05 17 43 00.0000000  0  8 03 06 14 15 17 18 21 23
  -9874790.98648  -7694635.14845         0.00041  23252398.68145  23252389.74648
  11155760.16848   8692782.35346         0.00041  22476917.44246  22476908.01048
   -113888.89648         0.00041         0.00041         0.00041  24693912.36648
  -9762127.67549  -7606846.10147         0.00041  20458919.63647  20458914.40349
  -3078384.85549  -2398740.15846         0.00041  20666229.05446  20666223.44249
 -13822059.28749 -10770423.84847         0.00041  20402182.84047  20402178.85749
 -16898806.89849 -13167878.42646         0.00041  21855432.80146  21855424.60949
  15764412.07848  12283949.66145         0.00041  23615943.55145  23615937.39448
 02 07 05 17 43 30.0000000  0  8 03 06 14 15 17 18 21 23
  -9958806.23548  -7760101.49545         0.00041  23236411.98445  23236402.30448
  11253026.44448   8768574.05646         0.00041  22495426.56146  22495417.62548
   -227847.68248         0.00041         0.00041         0.00041  24672226.73648
  -9769377.89949  -7612495.63747         0.00041  20457539.99447  20457534.71849
  -3072014.78149  -2393776.48746         0.00041  20667441.14346  20667435.83049
 -13816134.51149 -10765807.14347         0.00041  20403310.38547  20403306.32249
 -16939294.38449 -13199427.07846         0.00041  21847728.40946  21847719.96949
  15844660.67748  12346480.98845         0.00041  23631215.64745  23631208.43348
 02 07 05 17 44 00.0000000  0  8 03 06 14 15 17 18 21 23
 -10042558.58348  -7825362.97745         0.00041  23220475.16945  23220465.24148
  11350511.33248   8844536.08946         0.00041  22513977.89546  22513968.46248
   -341860.17048         0.00041         0.00041         0.00041  24650532.09548
  -9776426.23849  -7617987.85947         0.00041  20456198.84647  20456193.29049
  -3065457.37549  -2388666.85546         0.00041  20668688.99446  20668683.51649
 -13809904.30949 -10760952.44447         0.00041  20404495.83747  20404491.85349
 -16979570.02849 -13230810.65646         0.00041  21840063.65646  21840055.81449
  15924860.97748  12408974.65445         0.00041  23646476.05345  23646469.96448
 02 07 05 17 44 30.0000000  0  8 03 06 14 15 17 18 21 23
 -10125990.50048  -7890374.78445         0.00041  23204599.09245  23204589.16448
  11448267.91148   8920709.83046         0.00041  22532580.22146  22532571.03748
   -455867.98548         0.00041         0.00041         0.00041  24628837.44848
  -9783216.21149  -7623278.76147         0.00041  20454906.95747  20454901.16149
  -3058656.44349  -2383367.45547         0.00041  20669983.14947  20669977.75549
 -13803314.51349 -10755817.54947         0.00041  20405749.98947  20405745.83649
 -17019579.43849 -13261986.77546         0.00041  21832449.91346  21832442.25549
  16005067.24748  12471472.96545         0.00041  23661740.55745  23661732.71048
 02 07 05 17 45 00.0000000  0  8 03 06 14 15 17 18 21 23
 -10209077.94548  -7955118.15845         0.00041  23188786.12345  23188777.68348
  11546315.18048   8997110.08546         0.00041  22551237.98346  22551228.55148
   -569847.14448         0.00041         0.00041         0.00041  24607147.54948
  -9789725.65349  -7628351.07247         0.00041  20453668.34647  20453662.56549
  -3051589.51649  -2377860.76247         0.00041  20671327.54747  20671322.67649
 -13796344.98749 -10750386.77047         0.00041  20407076.32747  20407072.07649
 -17059301.21949 -13292938.76846         0.00041  21824890.79146  21824883.47649
  16085299.75648  12533991.71745         0.00041  23677007.40945  23677000.19648
 02 07 05 17 45 30.0000000  0  8 03 06 14 15 17 18 21 23
 -10291797.22448  -8019574.67745         0.00041  23173046.13745  23173036.45748
  11644672.03848   9073751.56446         0.00041  22569955.87246  22569945.44748
   -683774.07948         0.00041         0.00041         0.00041  24585468.40648
  -9795932.40249  -7633187.51947         0.00041  20452486.92047  20452481.49749
  -3044234.54749  -2372129.72546         0.00041  20672727.79946  20672722.31349
 -13788975.33449 -10744644.16447         0.00041  20408478.59347  20408474.55749
 -17098714.73449 -13323650.55746         0.00041  21817390.89146  21817383.56449
  16165578.28048  12596546.33945         0.00041  23692283.32145  23692277.23048
 02 07 05 17 46 00.0000000  0  8 03 06 14 15 17 18 21 23
 -10374121.45648  -8083723.34245         0.00041  23157380.30445  23157370.37648
  11743360.47648   9150651.42846         0.00041  22588736.79746  22588725.13148
   -797621.63348   -621521.25444         0.00041  24563816.32544  24563804.90748
  -9801810.95949  -7637768.23347         0.00041  20451368.39647  20451362.92149
  -3036566.05149  -2366154.27346         0.00041  20674187.22046  20674181.51549
 -13781182.66949 -10738571.97547         0.00041  20409961.47247  20409957.54149
 -17137796.03149 -13354103.47746         0.00041  21809953.96946  21809946.48649
  16245926.25248  12659155.05345         0.00041  23707573.72345  23707567.27748
 02 07 05 17 46 30.0000000  0  8 03 06 14 15 17 18 21 23
 -10456052.00448  -8147565.26145         0.00041  23141789.05045  23141780.11448
  11842374.55848   9227805.03646         0.00041  22607578.24546  22607567.32348
   -911391.12648         0.00041         0.00041         0.00041  24542153.69448
  -9807364.41949  -7642095.62547         0.00041  20450311.84847  20450306.17649
  -3028586.98949  -2359936.84946         0.00041  20675705.19046  20675699.99749
 -13772972.02949 -10732174.08547         0.00041  20411524.02947  20411519.96249
 -17176549.66649 -13384301.07646         0.00041  21802579.31846  21802571.78549
  16326338.55948  12721813.90645         0.00041  23722875.37645  23722869.33548
 02 07 05 17 47 00.0000000  0  8 03 06 14 15 17 18 21 23
 -10537623.92148  -8211127.72145         0.00041  23126267.43745  23126257.26048
  11941674.32048   9305181.25246         0.00041  22626474.67046  22626463.74848
  -1025117.41948   -798790.16944         0.00041  24520520.44444  24520512.25348
  -9812629.47849  -7646198.28847         0.00041  20449309.70547  20449304.32249
  -3020333.89749  -2353505.89946         0.00041  20677275.90346  20677270.47249
 -13764382.15649 -10725480.68747         0.00041  20413158.44347  20413154.58449
 -17215013.32849 -13414272.72246         0.00041  21795259.82546  21795252.26649
  16406776.46748  12784492.71045         0.00041  23738182.68545  23738176.05948
 02 07 05 17 47 30.0000000  0  8 03 06 14 15 17 18 21 23
 -10618854.62248  -8274424.30045         0.00041  23110808.71045  23110799.52648
  12041237.47448   9382762.68446         0.00041  22645421.32446  22645410.40348
  -1138817.84048         0.00041         0.00041         0.00041  24498874.29548
  -9817625.33349  -7650091.18447         0.00041  20448359.04947  20448353.51849
  -3011825.86249  -2346876.29346         0.00041  20678894.82646  20678889.53749
 -13755434.29449 -10718508.33847         0.00041  20414861.24347  20414857.30849
 -17253207.33549 -13444034.24746         0.00041  21787991.72846  21787984.02349
  16487218.95948  12847175.09445         0.00041  23753490.57945  23753483.11248
 02 07 05 17 48 00.0000000  0  8 03 06 14 15 17 18 21 23
 -10699730.62948  -8337444.49746         0.00041  23095419.26146  23095409.58148
  12141072.66648   9460556.10146         0.00041  22664419.06546  22664408.64048
  -1252478.81548         0.00041         0.00041         0.00041  24477245.91448
  -9822339.84449  -7653764.85147         0.00041  20447461.81647  20447456.44049
  -3003050.72249  -2340038.55346         0.00041  20680564.73946  20680559.51849
 -13746118.51349 -10711249.30247         0.00041  20416633.81847  20416629.93849
 -17291121.07749 -13473577.38246         0.00041  21780777.01646  21780769.38749
  16567675.89648  12909868.72745         0.00041  23768800.83445  23768793.88448
 02 07 05 17 48 30.0000000  0  8 03 06 14 15 17 18 21 23
 -10780198.65548  -8400146.77746         0.00041  23080106.50646  23080097.07448
  12241228.13648   9538599.08046         0.00041  22683478.55446  22683467.63248
  -1366046.96948         0.00041         0.00041         0.00041  24455634.34748
  -9826721.38649  -7657179.06147         0.00041  20446627.99647  20446622.80249
  -2993956.99049  -2332952.56246         0.00041  20682295.46046  20682289.89849
 -13736385.59949 -10703665.22747         0.00041  20418485.92247  20418482.06949
 -17328704.32549 -13502862.99246         0.00041  21773624.85846  21773617.28049
  16648196.81548  12972612.18845         0.00041  23784122.47545  23784116.17748
 02 07 05 17 49 00.0000000  0  8 03 06 14 15 17 18 21 23
 -10860262.78748  -8462534.35246         0.00041  23064870.35946  23064860.67848
  12341694.71148   9616884.47246         0.00041  22702596.01946  22702585.34648
  -1479526.47948         0.00041         0.00041         0.00041  24434039.21748
  -9830775.76249  -7660338.33547         0.00041  20445856.59647  20445851.25549
  -2984550.54649  -2325622.90046         0.00041  20684085.21146  20684079.82949
 -13726243.23049 -10695762.09547         0.00041  20420416.08847  20420412.07849
 -17365964.39249 -13531896.77746         0.00041  21766534.28846  21766526.73449
  16728773.75248  13035399.33845         0.00041  23799456.06245  23799449.43948
 02 07 05 17 49 30.0000000  0  8 03 06 14 15 17 18 21 23
 -10940054.59948  -8524709.70946         0.00041  23049686.16246  23049676.73048
  12442336.39648         0.00041         0.00041         0.00041  22721737.45348
  -1593048.41248         0.00041         0.00041         0.00041  24412436.19348
  -9834636.03749  -7663346.36347         0.00041  20445121.88447  20445116.62649
  -2974963.81049  -2318152.74946         0.00041  20685909.29946  20685904.15149
 -13715826.50449 -10687645.17747         0.00041  20422398.33047  20422394.38049
 -17403035.47249 -13560783.29046         0.00041  21759479.96846  21759472.62249
  16809271.88648  13098125.05945         0.00041  23814776.05545  23814767.61648
 02 07 05 17 50 00.0000000  0  8 03 06 14 15 17 18 21 23
 -11019796.16248  -8586845.91146         0.00041  23034510.87646  23034502.18848
  12542926.07248   9773687.60146         0.00041  22740889.99246  22740879.31948
  -1706835.03348         0.00041         0.00041         0.00041  24390782.56848
  -9838525.80949  -7666377.37647         0.00041  20444381.84547  20444376.38949
  -2965420.88849  -2310716.73646         0.00041  20687725.48146  20687720.19449
 -13705361.39949 -10679490.56347         0.00041  20424389.75847  20424385.63349
 -17440143.02349 -13589698.22746         0.00041  21752418.63546  21752411.52749
  16889465.38348  13160613.41045         0.00041  23830035.13845  23830027.49348
 02 07 05 17 50 30.0000000  0  8 03 06 14 15 17 18 21 23
 -11099177.36348  -8648701.31646         0.00041  23019405.46846  23019396.53248
  12643769.20648   9852266.40946         0.00041  22760080.25746  22760069.08848
  -1820575.81948         0.00041         0.00041         0.00041  24369137.07148
  -9842136.34649  -7669190.80747         0.00041  20443694.69247  20443689.37749
  -2955612.57149  -2303073.92446         0.00041  20689592.08246  20689586.60849
 -13694541.57849 -10671059.54647         0.00041  20426448.64747  20426444.59549
 -17476979.66949 -13618402.06746         0.00041  21745408.67146  21745401.59749
  16969661.17148  13223103.54645         0.00041  23845297.21045  23845288.77148
 02 07 05 17 51 00.0000000  0  8 03 06 14 15 17 18 21 23
 -11178226.48248  -8710297.97046         0.00041  23004363.57946  23004353.89948
  12744832.48848   9931016.76046         0.00041  22779312.73346  22779301.06748
  -1934298.72748         0.00041         0.00041         0.00041  24347495.61648
  -9845497.70849  -7671810.07447         0.00041  20443055.34447  20443049.56549
  -2945569.09649  -2295247.87546         0.00041  20691503.29146  20691497.91349
 -13683398.72249 -10662376.81247         0.00041  20428569.12547  20428565.22249
 -17513576.97049 -13646919.40846         0.00041  21738444.72546  21738437.57049
  17049827.21848  13285570.49945         0.00041  23860550.95745  23860544.16648
 02 07 05 17 51 30.0000000  0  8 03 06 14 15 17 18 21 23
 -11256936.87548  -8771630.67746         0.00041  22989385.08046  22989375.89648
  12846117.77748  10009940.09046         0.00041  22798586.53246  22798575.11448
  -2047997.19248         0.00041         0.00041         0.00041  24325858.95548
  -9848604.39849  -7674230.89947         0.00041  20442464.16247  20442458.34949
  -2935285.07349  -2287234.38846         0.00041  20693460.25346  20693454.93349
 -13671930.11249 -10653440.24447         0.00041  20430751.56347  20430747.70549
 -17549930.49149 -13675246.78946         0.00041  21731526.65746  21731519.19749
  17129966.67648  13348016.74845         0.00041  23875802.57745  23875794.13748
 02 07 05 17 52 00.0000000  0  8 03 06 14 15 17 18 21 23
 -11335309.63548  -8832700.28946         0.00041  22974472.25246  22974462.07548
  12947619.28148  10089031.90246         0.00041  22817901.74346  22817890.82148
  -2161671.98548         0.00041         0.00041         0.00041  24304227.93348
  -9851459.24649  -7676455.48247         0.00041  20441920.97147  20441915.09149
  -2924763.22149  -2279035.58146         0.00041  20695462.75146  20695457.15249
 -13660140.56949 -10644253.59847         0.00041  20432995.06747  20432991.04549
 -17586044.79149 -13703387.76346         0.00041  21724654.61646  21724646.85849
  17210074.80848  13410438.57845         0.00041  23891045.80445  23891038.45548
 02 07 05 17 52 30.0000000  0  8 03 06 14 15 17 18 21 23
 -11413319.85548  -8893487.40146         0.00041  22959626.82146  22959616.89248
  13049356.99948  10168307.78246         0.00041  22837261.16746  22837250.99048
  -2275297.96548         0.00041         0.00041         0.00041  24282604.98548
  -9854038.78949  -7678465.54047         0.00041  20441430.06647  20441424.35349
  -2913979.89849  -2270633.03346         0.00041  20697514.70046  20697508.98149
 -13648008.72649 -10634800.22647         0.00041  20435303.74547  20435299.70149
 -17621897.64449 -13731325.01946         0.00041  21717832.06246  21717824.55049
  17290173.28648  13472852.88345         0.00041  23906289.44745  23906280.76048
 02 07 05 17 53 00.0000000  0  8 03 06 14 15 17 18 21 23
 -11490949.76248  -8953978.16646         0.00041  22944852.98446  22944844.04848
  13151343.72348  10247777.68546         0.00041  22856670.43046  22856658.76448
  -2388856.95848         0.00041         0.00041         0.00041  24260995.30948
  -9856326.81749  -7680248.44347         0.00041  20440994.57947  20440989.10749
  -2902918.89949  -2262014.11446         0.00041  20699619.65746  20699614.13549
 -13635520.77249 -10625069.36247         0.00041  20437679.87047  20437675.99449
 -17657474.44749 -13759047.16546         0.00041  21711061.96746  21711054.38049
  17370276.36348  13535270.77245         0.00041  23921533.26745  23921524.33148
 02 07 05 17 53 30.0000000  0  8 03 06 14 15 17 18 21 23
 -11568181.25748  -9014158.47746         0.00041  22930156.88446  22930147.45248
  13253592.44648  10327451.73746         0.00041  22876127.52746  22876116.10948
  -2502331.10548         0.00041         0.00041         0.00041  24239401.67848
  -9858306.99149  -7681791.46347         0.00041  20440617.71447  20440612.30849
  -2891563.97149  -2253166.16246         0.00041  20701780.19546  20701774.87049
 -13622662.53749 -10615049.96647         0.00041  20440126.75547  20440122.91449
 -17692760.30649 -13786542.59846         0.00041  21704347.23346  21704339.48649
  17450398.23748  13597703.30345         0.00041  23936779.77245  23936771.33248
 02 07 05 17 54 00.0000000  0  8 03 06 14 15 17 18 21 23
 -11645007.55048  -9074023.04946         0.00041  22915536.64646  22915527.95848
  13356105.60448  10407331.82846         0.00041  22895635.04146  22895623.37448
  -2615713.23148         0.00041         0.00041         0.00041  24217825.21648
  -9859973.38349  -7683089.97847         0.00041  20440300.67647  20440295.24749
  -2879909.35349  -2244084.68846         0.00041  20703998.01746  20703992.71649
 -13609430.34249 -10604739.17247         0.00041  20442644.80347  20442640.97049
 -17727751.06349 -13813808.08246         0.00041  21697688.72546  21697681.00549
  17530542.77448  13660153.50145         0.00041  23952029.93845  23952022.88548
 02 07 05 17 54 30.0000000  0  8 03 06 14 15 17 18 21 23
 -11721394.53548  -9133545.30846         0.00041  22901000.77146  22900992.08448
  13458912.33348  10487440.68946         0.00041  22915199.26646  22915187.84848
  -2728968.83448         0.00041         0.00041         0.00041  24196273.75548
  -9861293.75149  -7684118.86847         0.00041  20440049.60147  20440043.93749
  -2867922.47849  -2234744.31246         0.00041  20706279.07946  20706273.92549
 -13595793.86449 -10594113.35547         0.00041  20445239.84047  20445235.92149
 -17762415.86049 -13840819.57446         0.00041  21691091.94546  21691084.54349
  17610740.52148  13722645.16245         0.00041  23967290.64645  23967283.73548
 02 07 05 17 55 00.0000000  0  8 03 06 14 15 17 18 21 23
 -11797402.38948  -9192772.14646         0.00041  22886535.48346  22886528.48248
  13561947.76448  10567727.76646         0.00041  22934806.57146  22934794.90548
  -2842157.86348         0.00041         0.00041         0.00041  24174734.60648
  -9862329.75249  -7684926.17147         0.00041  20439852.35047  20439846.66649
  -2855664.63849  -2225192.78946         0.00041  20708611.91246  20708606.46949
 -13581817.35549 -10583222.57747         0.00041  20447899.66347  20447895.60049
 -17796817.31749 -13867625.86446         0.00041  21684545.77046  21684538.01249
  17690927.91148  13785128.76445         0.00041  23982550.57645  23982542.76948
 02 07 05 17 55 30.0000000  0  8 03 06 14 15 17 18 21 23
 -11873019.08248  -9251694.17646         0.00041  22872148.22746  22872139.04348
  13665219.13248         0.00041         0.00041         0.00041  22954446.40748
  -2955267.98648         0.00041         0.00041         0.00041  24153209.75648
  -9863070.80349  -7685503.64547         0.00041  20439711.48347  20439705.96449
  -2843125.57949  -2215422.14146         0.00041  20710998.05446  20710992.43149
 -13567492.09849 -10572060.04947         0.00041  20450625.54247  20450621.71049
 -17830946.31749 -13894219.84746         0.00041  21678050.80846  21678043.47549
  17771113.56648  13847610.99045         0.00041  23997810.13745  23997801.69848
 02 07 05 17 56 00.0000000  0  8 03 06 14 15 17 18 21 23
 -11948190.60148  -9310269.33146         0.00041  22857842.92946  22857834.49048
  13768775.27348         0.00041         0.00041         0.00041  22974152.38348
  -3068245.23048         0.00041         0.00041         0.00041  24131710.57648
  -9863464.57649  -7685810.51347         0.00041  20439636.48447  20439631.29049
  -2830252.78749  -2205391.44246         0.00041  20713447.78346  20713442.21949
 -13552768.10849 -10560586.82047         0.00041  20453427.47347  20453423.38749
 -17864752.37049 -13920562.19046         0.00041  21671617.85246  21671610.42049
  17851347.91648  13910131.17145         0.00041  24013078.60445  24013069.42048
 02 07 05 17 56 30.0000000  0  8 03 06 14 15 17 18 21 23
 -12023127.68048  -9368661.81146         0.00041  22843582.36746  22843574.78048
  13872400.75848         0.00041         0.00041         0.00041  22993872.33448
  -3181299.82148         0.00041         0.00041         0.00041  24110197.02148
  -9863723.06949  -7686011.96747         0.00041  20439587.05547  20439581.93749
  -2817258.44849  -2195266.03446         0.00041  20715920.29446  20715915.03049
 -13537859.81849 -10548969.98447         0.00041  20456263.93547  20456260.08549
 -17898448.86549 -13946819.15946         0.00041  21665205.44946  21665198.24649
  17931416.94848  13972522.51645         0.00041  24028315.12445  24028306.43648
 02 07 05 17 57 00.0000000  0  8 03 06 14 15 17 18 21 23
 -12097751.63548  -9426810.30146         0.00041  22829383.03746  22829373.85348
  13976169.33748         0.00041         0.00041         0.00041  23013619.85248
  -3294353.07848         0.00041         0.00041         0.00041  24088684.24948
  -9863769.24049  -7686047.97347         0.00041  20439578.54947  20439573.01349
  -2804065.22549  -2184985.65046         0.00041  20718431.39146  20718425.47649
 -13522692.25349 -10537151.11647         0.00041  20459150.39847  20459146.65749
 -17931960.62849 -13972932.18246         0.00041  21658828.23946  21658821.12249
  18011395.88748  14034843.66145         0.00041  24043533.26645  24043525.44048
 02 07 05 17 57 30.0000000  0  8 03 06 14 15 17 18 21 23
 -12171937.53248  -9484617.44146         0.00041  22815265.94646  22815256.01748
  14080201.33148  10971560.24445         0.00041  23033426.88945  23033416.46448
  -3407279.35748         0.00041         0.00041         0.00041  24067195.49848
  -9863479.21049  -7685822.00347         0.00041  20439633.64847  20439628.15749
  -2790549.39349  -2174453.88046         0.00041  20721003.37446  20720997.46749
 -13507143.99549 -10525035.60347         0.00041  20462109.35647  20462105.47549
 -17965165.37649 -13998805.97346         0.00041  21652509.72746  21652502.47549
  18091406.51348  14097189.49045         0.00041  24058758.11745  24058750.84548
 02 07 05 17 58 00.0000000  0  8 03 06 14 15 17 18 21 23
 -12245738.22548  -9542124.43246         0.00041  22801222.33246  22801212.15548
  14184439.11548  11052784.19245         0.00041  23053263.63645  23053252.96248
  -3520131.34348         0.00041         0.00041         0.00041  24045719.96848
  -9862907.54749  -7685376.57947         0.00041  20439742.27147  20439737.02649
  -2776765.32149  -2163713.09446         0.00041  20723626.09646  20723620.54949
 -13491271.57449 -10512667.50147         0.00041  20465129.84547  20465125.82649
 -17998118.91049 -14024484.01346         0.00041  21646238.61546  21646231.62449
  18171392.69148  14159516.30045         0.00041  24073980.83445  24073971.40248
 02 07 05 17 58 30.0000000  0  8 03 06 14 15 17 18 21 23
 -12319164.83448  -9599339.91146         0.00041  22787248.89746  22787239.46548
  14288866.69348         0.00041         0.00041         0.00041  23073125.23748
  -3632919.85948         0.00041         0.00041         0.00041  24024256.13048
  -9862066.88549  -7684721.54647         0.00041  20439902.47647  20439897.21449
  -2762725.48249  -2152773.01146         0.00041  20726297.70546  20726292.35949
 -13475089.82949 -10500058.36747         0.00041  20468209.01447  20468205.12249
 -18030834.66549 -14049976.77246         0.00041  21640013.29346  21640005.61649
  18251340.03548  14221812.85245         0.00041  24089194.06645  24089185.13048
 02 07 05 17 59 00.0000000  0  8 03 06 14 15 17 18 21 23
 -12392218.48648  -9656264.79146         0.00041  22773347.47346  22773337.54448
  14393478.06048         0.00041         0.00041         0.00041  23093031.33248
  -3745645.81248         0.00041         0.00041         0.00041  24002804.82648
  -9860959.51649  -7683858.69247         0.00041  20440113.24647  20440107.77049
  -2748432.34949  -2141635.55846         0.00041  20729018.07646  20729012.17949
 -13458603.57149 -10487211.94947         0.00041  20471346.06947  20471342.32049
 -18063316.76449 -14075287.46646         0.00041  21633832.05146  21633824.50449
  18331244.02248  14284075.60445         0.00041  24104400.71045  24104391.27848
 02 07 05 17 59 30.0000000  0  8 03 06 14 15 17 18 21 23
 -12464896.34548  -9712896.84746         0.00041  22759516.65246  22759507.46848
  14498271.23348         0.00041         0.00041         0.00041  23112972.72348
  -3858305.87948         0.00041         0.00041         0.00041  23981366.30148
  -9859583.96049  -7682786.85547         0.00041  20440375.24947  20440369.54449
  -2733884.59349  -2130299.69746         0.00041  20731786.45346  20731780.48249
 -13441813.61849 -10474128.88747         0.00041  20474541.38747  20474537.25149
 -18095566.35749 -14100416.98846         0.00041  21627694.96346  21627687.63649
  18411104.20748  14346304.22645         0.00041  24119597.73745  24119588.30548
 02 07 05 18 00 00.0000000  0  8 03 06 14 15 17 18 21 23
 -12537166.12948  -9769210.91946         0.00041  22745764.40946  22745755.97048
  14603273.66248         0.00041         0.00041         0.00041  23132954.06348
  -3970867.71948         0.00041         0.00041         0.00041  23959946.17048
  -9857909.80949  -7681482.35147         0.00041  20440693.92947  20440688.15049
  -2719051.38349  -2118741.40446         0.00041  20734609.16446  20734603.21749
 -13424691.53149 -10460787.02247         0.00041  20477799.70847  20477795.48149
 -18127553.10949 -14125341.69846         0.00041  21621608.29346  21621600.90249
  18490949.47048  14408521.23844         0.00041  24134790.55644  24134782.11748
 02 07 05 18 00 30.0000000  0  8 03 06 14 15 17 18 21 23
 -12608991.07448  -9825178.37046         0.00041  22732095.82946  22732088.37248
  14708517.04948         0.00041         0.00041         0.00041  23152981.23348
  -4083294.25648         0.00041         0.00041         0.00041  23938551.87248
  -9855901.83149  -7679917.72547         0.00041  20441075.97147  20441070.37649
  -2703897.59149  -2106933.30446         0.00041  20737492.84746  20737486.93749
 -13407204.31849 -10447160.64647         0.00041  20481127.38847  20481123.45049
 -18159243.80749 -14150035.71746         0.00041  21615577.69346  21615570.09049
  18570813.24648  14470752.61845         0.00041  24149988.26345  24149979.08048
 02 07 05 18 01 00.0000000  0  8 03 06 14 15 17 18 21 23
 -12680413.97348  -9880832.54146         0.00041  22718503.95046  22718496.84948
  14813954.00648         0.00041         0.00041         0.00041  23173046.19148
  -4195627.71748         0.00041         0.00041         0.00041  23917175.62648
  -9853603.82049  -7678127.09647         0.00041  20441513.44647  20441507.62549
  -2688467.10249  -2094909.59546         0.00041  20740429.23646  20740423.33249
 -13389398.32249 -10433285.86747         0.00041  20484515.82947  20484511.80249
 -18190684.08149 -14174534.60846         0.00041  21609594.84546  21609587.31749
  18650649.63348  14532962.70544         0.00041  24165178.32644  24165172.33348
 02 07 05 18 01 30.0000000  0  8 03 06 14 15 17 18 21 23
 -12751510.41048  -9936232.31646         0.00041  22704974.81946  22704967.72948
  14919504.17648         0.00041         0.00041         0.00041  23193131.89248
  -4307943.51448         0.00041         0.00041         0.00041  23895803.07348
  -9851092.73249  -7676170.43747         0.00041  20441991.18047  20441985.29549
  -2672836.88249  -2082730.25046         0.00041  20743403.72746  20743397.79349
 -13371352.84249 -10419224.47747         0.00041  20487949.71647  20487945.62349
 -18221952.21849 -14198899.35946         0.00041  21603644.74246  21603637.11349
  18730379.76348  14595089.97844         0.00041  24180353.07044  24180344.87948
 02 07 05 18 02 00.0000000  0  8 03 06 14 15 17 18 21 23
 -12822240.34348  -9991346.51646         0.00041  22691515.83446  22691508.17148
  15025202.95148         0.00041         0.00041         0.00041  23213246.39948
  -4420201.01648         0.00041         0.00041         0.00041  23874441.49648
  -9848329.83849  -7674017.56247         0.00041  20442516.87547  20442511.23349
  -2656968.06549  -2070364.98846         0.00041  20746423.35846  20746417.48449
 -13353031.23049 -10404947.92147         0.00041  20491436.40247  20491432.18449
 -18253011.40949 -14223101.29946         0.00041  21597734.11046  21597727.08349
  18810040.53148  14657163.19645         0.00041  24195511.18645  24195503.80948
 02 07 05 18 02 30.0000000  0  8 03 06 14 15 17 18 21 23
 -12892599.19748 -10046171.55646         0.00041  22678127.68646  22678119.24748
  15131050.09848  11790400.14345         0.00041  23233400.17145  23233389.49748
  -4532395.13348         0.00041         0.00041         0.00041  23853090.69148
  -9845312.09349  -7671666.10247         0.00041  20443090.85247  20443085.58749
  -2640857.35549  -2057811.22846         0.00041  20749489.35246  20749483.26249
 -13334432.44149 -10390455.38347         0.00041  20494975.64247  20494971.41449
 -18283859.76249 -14247138.94446         0.00041  21591863.78846  21591856.65149
  18889633.57148  14719183.64244         0.00041  24210657.90344  24210650.27448
 02 07 05 18 03 00.0000000  0  8 03 06 14 15 17 18 21 23
 -12962512.05148 -10100649.05646         0.00041  22664822.55746  22664815.08148
  15237115.55148         0.00041         0.00041         0.00041  23253572.64448
  -4644450.74348         0.00041         0.00041         0.00041  23831765.43148
  -9841965.97449  -7669058.76447         0.00041  20443727.63747  20443722.30149
  -2624431.63249  -2045012.00546         0.00041  20752615.07846  20752608.98049
 -13315485.45249 -10375691.51747         0.00041  20498581.19647  20498576.97749
 -18314425.49149 -14270956.37146         0.00041  21586047.35646  21586040.15749
  18969230.49348  14781207.12345         0.00041  24225806.25845  24225797.07448
 02 07 05 18 03 30.0000000  0  8 03 06 14 15 17 18 21 23
 -13031970.27548 -10154772.30846         0.00041  22651605.86246  22651598.12048
  15343403.40548  11955869.52745         0.00041  23273810.53645  23273798.87048
  -4756359.07648         0.00041         0.00041         0.00041  23810469.71348
  -9838284.17649  -7666189.86047         0.00041  20444428.20347  20444422.91349
  -2607683.28549  -2031961.38746         0.00041  20755802.00246  20755796.03049
 -13296185.10249 -10360652.30747         0.00041  20502253.67947  20502249.79949
 -18344702.85849 -14294549.09546         0.00041  21580285.80046  21580278.60849
  19048836.81648  14843237.91044         0.00041  24240954.59344  24240944.91348
 02 07 05 18 04 00.0000000  0  8 03 06 14 15 17 18 21 23
 -13100981.21848 -10208547.02346         0.00041  22638473.86446  22638465.67348
  15449901.52348         0.00041         0.00041         0.00041  23294065.63348
  -4868126.74248         0.00041         0.00041         0.00041  23789200.96148
  -9834275.43149  -7663066.18547         0.00041  20445191.32047  20445185.65649
  -2590621.06149  -2018666.19446         0.00041  20759048.86046  20759042.99049
 -13276542.33049 -10345346.27347         0.00041  20505991.71847  20505987.73149
 -18374702.38649 -14317925.33646         0.00041  21574577.19546  21574569.80749
  19128442.13948  14905267.94744         0.00041  24256101.09644  24256092.65748
 02 07 05 18 04 30.0000000  0  8 03 06 14 15 17 18 21 23
 -13169532.43248 -10261963.50146         0.00041  22625428.55146  22625420.36048
  15556617.70848         0.00041         0.00041         0.00041  23314372.49248
  -4979740.89248         0.00041         0.00041         0.00041  23767961.35448
  -9829928.63549  -7659679.10047         0.00041  20446018.53447  20446012.80249
  -2573233.80349  -2005117.72846         0.00041  20762357.42846  20762351.75649
 -13256548.62249 -10329766.78547         0.00041  20509796.51747  20509792.34349
 -18404414.24049 -14341077.41146         0.00041  21568923.23146  21568915.50149
  19208055.80948  14967304.47544         0.00041  24271252.32644  24271243.39048
 02 07 05 18 05 00.0000000  0  8 03 06 14 15 17 18 21 23
 -13237648.47648 -10315040.88746         0.00041  22612466.18846  22612458.25148
  15663522.53848         0.00041         0.00041         0.00041  23334715.54248
  -5091225.82048         0.00041         0.00041         0.00041  23746746.37248
  -9825269.57449  -7656048.69047         0.00041  20446904.97347  20446899.45649
  -2555547.36449  -1991336.13446         0.00041  20765723.27246  20765717.37549
 -13236231.98149 -10313935.66047         0.00041  20513662.45347  20513658.45749
 -18433865.73449 -14364026.60846         0.00041  21563318.59846  21563311.00849
  19287650.25148  15029326.00544         0.00041  24286397.89744  24286390.29948
 02 07 05 18 05 30.0000000  0  8 03 06 14 15 17 18 21 23
 -13305347.28648 -10367793.15846         0.00041  22599583.81746  22599575.37748
  15770593.45148         0.00041         0.00041         0.00041  23355090.72448
  -5202598.53148         0.00041         0.00041         0.00041  23725552.87448
  -9820317.48949  -7652189.94747         0.00041  20447847.65247  20447841.79849
  -2537580.91549  -1977336.34946         0.00041  20769142.25046  20769136.34549
 -13215613.86349 -10297869.61647         0.00041  20517585.92447  20517582.07849
 -18463077.50749 -14386789.00446         0.00041  21557759.87746  21557752.58849
  19367204.47948  15091316.21345         0.00041  24301537.25245  24301528.81248
 02 07 05 18 06 00.0000000  0  8 03 06 14 15 17 18 21 23
 -13372669.29248 -10420251.82046         0.00041  22586772.37246  22586764.44148
  15877785.10148         0.00041         0.00041         0.00041  23375488.27148
  -5313899.49848         0.00041         0.00041         0.00041  23704373.61748
  -9815114.08749  -7648135.37447         0.00041  20448837.62447  20448831.99249
  -2519376.24049  -1963150.92946         0.00041  20772606.66046  20772600.71849
 -13194738.12449 -10281602.82647         0.00041  20521558.37247  20521554.55349
 -18492092.95649 -14409398.41746         0.00041  21552238.15046  21552230.87149
  19446674.80848  15153241.04044         0.00041  24316659.91944  24316651.72848
 02 07 05 18 06 30.0000000  0  8 03 06 14 15 17 18 21 23
 -13439622.87348 -10472423.38546         0.00041  22574031.71846  22574023.52748
  15985084.46548         0.00041         0.00041         0.00041  23395907.65948
  -5425136.40348         0.00041         0.00041         0.00041  23683205.36048
  -9809669.09649  -7643892.54947         0.00041  20449874.00247  20449868.30249
  -2500942.91549  -1948787.34146         0.00041  20776114.38546  20776108.43549
 -13173616.85649 -10265144.71547         0.00041  20525577.79747  20525573.87449
 -18520923.52849 -14431863.77146         0.00041  21546752.02246  21546744.62849
  19526049.92948  15215091.68245         0.00041  24331765.19945  24331756.51248
 02 07 05 18 07 00.0000000  0  8 03 06 14 15 17 18 21 23
 -13506187.49448 -10524291.87246         0.00041  22561364.77546  22561356.58448
  16092507.34248         0.00041         0.00041         0.00041  23416350.53848
  -5536288.39748         0.00041         0.00041         0.00041  23662053.55648
  -9803963.24449  -7639446.45747         0.00041  20450959.67647  20450954.25549
  -2482261.79449  -1934230.66746         0.00041  20779668.85846  20779663.18549
 -13152233.03149 -10248482.01547         0.00041  20529647.05647  20529643.10449
 -18549551.59449 -14454171.33146         0.00041  21541304.28246  21541297.03549
  19605347.40748  15276881.81745         0.00041  24346853.43745  24346846.40748
 02 07 05 18 07 30.0000000  0  8 03 06 14 15 17 18 21 23
 -13572376.15148 -10575867.40646         0.00041  22548769.79346  22548761.10648
  16200036.07348         0.00041         0.00041         0.00041  23436812.76648
  -5647367.81448  -4400531.69045         0.00041  23640927.66845  23640916.00248
  -9798010.57649  -7634808.04047         0.00041  20452092.48847  20452086.88149
  -2463346.85949  -1919491.79746         0.00041  20783268.66146  20783262.64449
 -13130603.06649 -10231627.51547         0.00041  20533763.12547  20533759.14549
 -18577993.01349 -14476333.45046         0.00041  21535891.71246  21535884.85049
  19684551.50248  15338599.17145         0.00041  24361925.91745  24361918.73448
 02 07 05 18 08 00.0000000  0  8 03 06 14 15 17 18 21 23
 -13638142.81548 -10627114.11746         0.00041  22536254.59446  22536246.40348
  16307711.89648         0.00041         0.00041         0.00041  23457302.60048
  -5758328.47248         0.00041         0.00041         0.00041  23619801.24748
  -9791766.69049  -7629942.70347         0.00041  20453280.59447  20453275.02049
  -2444153.88149  -1904536.27246         0.00041  20786921.04546  20786915.02449
 -13108684.88349 -10214548.43047         0.00041  20537933.95547  20537929.77649
 -18606204.46449 -14498316.37546         0.00041  21530523.27646  21530516.24649
  19763705.02748  15400277.12445         0.00041  24376989.63045  24376980.94248
 02 07 05 18 08 30.0000000  0  8 03 06 14 15 17 18 21 23
 -13703396.87948 -10677961.39346         0.00041  22523838.28646  22523828.85348
  16415621.01548         0.00041         0.00041         0.00041  23477838.04348
  -5869078.79248         0.00041         0.00041         0.00041  23598725.81548
  -9785142.05449  -7624780.67847         0.00041  20454541.29047  20454535.58549
  -2424593.10149  -1889294.15046         0.00041  20790643.35646  20790637.34249
 -13086391.18849 -10197176.74147         0.00041  20542176.23847  20542172.34949
 -18634098.42549 -14520051.90846         0.00041  21525215.21946  21525208.21349
  19842895.63148  15461983.98745         0.00041  24392060.90245  24392050.47748
 02 07 05 18 09 00.0000000  0  8 03 06 14 15 17 18 21 23
 -13768168.37448 -10728432.65646         0.00041  22511511.70446  22511503.01648
  16523728.56048         0.00041         0.00041         0.00041  23498410.63048
  -5979648.37048         0.00041         0.00041         0.00041  23577684.33148
  -9778168.00649  -7619346.38547         0.00041  20455868.56147  20455862.95349
  -2404695.95049  -1873789.92346         0.00041  20794429.77946  20794423.59749
 -13063755.52949 -10179538.58347         0.00041  20546483.94347  20546479.94949
 -18661707.34049 -14541565.33046         0.00041  21519961.66446  21519954.09049
  19922090.41748  15523694.11444         0.00041  24407128.18144  24407120.86248
 02 07 05 18 09 30.0000000  0  8 03 06 14 15 17 18 21 23
 -13832506.31348 -10778566.06946         0.00041  22499268.88546  22499259.70148
  16631980.78348         0.00041         0.00041         0.00041  23519010.24048
  -6090086.02148         0.00041         0.00041         0.00041  23556669.07248
  -9770895.09049  -7613679.20847         0.00041  20457252.75347  20457246.90249
  -2384512.66649  -1858062.73646         0.00041  20798270.76746  20798264.45949
 -13040830.65749 -10161675.06747         0.00041  20550846.37947  20550842.16449
 -18689083.38849 -14562897.30046         0.00041  21514751.83146  21514744.73949
  20001237.33848  15585366.93045         0.00041  24422189.96845  24422182.66148
 02 07 05 18 10 00.0000000  0  8 03 06 14 15 17 18 21 23
 -13896384.94348 -10828341.58346         0.00041  22487113.25846  22487103.82648
  16740398.74448         0.00041         0.00041         0.00041  23539642.66548
  -6200365.38848         0.00041         0.00041         0.00041  23535683.06948
  -9763298.91749  -7607760.14347         0.00041  20458698.24347  20458692.29649
  -2364018.68949  -1842093.44946         0.00041  20802170.16246  20802164.37649
 -13017594.12449 -10143568.70147         0.00041  20555268.25447  20555263.86249
 -18716203.63949 -14584029.94246         0.00041  21509590.79246  21509583.97749
  20080359.42348  15647020.39744         0.00041  24437246.11744  24437238.18348
 02 07 05 18 10 30.0000000  0  8 03 06 14 15 17 18 21 23
 -13959813.58148 -10877766.45946         0.00041  22475042.55646  22475033.86948
  16848968.45348         0.00041         0.00041         0.00041  23560303.12848
  -6310495.11348         0.00041         0.00041         0.00041  23514725.55248
  -9755389.87949  -7601597.28647         0.00041  20460202.99047  20460197.57449
  -2343224.77449  -1825890.44546         0.00041  20806127.33046  20806121.48449
 -12994058.95249 -10125229.63147         0.00041  20559746.77147  20559742.58649
 -18743080.35849 -14604972.81546         0.00041  21504476.82046  21504469.81149
  20159444.28148  15708644.83944         0.00041  24452295.76844  24452287.32848
 02 07 05 18 11 00.0000000  0  8 03 06 14 15 17 18 21 23
 -14022798.22248 -10926845.36246         0.00041  22463057.65546  22463048.47148
  16957679.22348         0.00041         0.00041         0.00041  23580989.91848
  -6420480.94448         0.00041         0.00041         0.00041  23493795.66448
  -9747175.31149  -7595196.35747         0.00041  20461766.17147  20461760.73949
  -2322138.18649  -1809459.38546         0.00041  20810139.87246  20810134.02749
 -12970234.62349 -10106665.23947         0.00041  20564280.43847  20564276.31049
 -18769722.62149 -14625732.99746         0.00041  21499406.57846  21499399.62849
  20238482.98148  15770233.32644         0.00041  24467338.31344  24467328.63348
 02 07 05 18 11 30.0000000  0  8 03 06 14 15 17 18 21 23
 -14085346.31348 -10975584.10146         0.00041  22451154.60946  22451145.92248
  17066519.03348         0.00041         0.00041         0.00041  23601700.95248
  -6530329.46448         0.00041         0.00041         0.00041  23472891.97848
  -9738663.87049  -7588564.09447         0.00041  20463385.95147  20463380.37349
  -2300767.45049  -1792806.90746         0.00041  20814206.75646  20814200.86949
 -12946131.81949 -10087883.85947         0.00041  20568867.07847  20568862.84849
 -18796140.35849 -14646318.22146         0.00041  21494379.58446  21494372.41049
  20317465.49648  15831778.05044         0.00041  24482366.86244  24482359.32148
 02 07 05 18 12 00.0000000  0  8 03 06 14 15 17 18 21 23
 -14147450.29048 -11023976.77346         0.00041  22439336.37946  22439327.94048
  17175491.36348         0.00041         0.00041         0.00041  23622437.92048
  -6640032.27548  -5174034.18745         0.00041  23452026.85845  23452015.68848
  -9729848.77049  -7581695.21647         0.00041  20465063.58347  20465057.68049
  -2279105.73149  -1775927.69146         0.00041  20818328.61846  20818323.18549
 -12921746.26449 -10068882.15447         0.00041  20573507.29247  20573503.34649
 -18822328.37049 -14666724.43746         0.00041  21489396.23246  21489388.74949
  20396396.87748  15893282.95544         0.00041  24497387.95444  24497378.77048
 02 07 05 18 12 30.0000000  0  8 03 06 14 15 17 18 21 23
 -14209065.44648 -11071988.54146         0.00041  22427611.63646  22427602.70148
  17284635.93148         0.00041         0.00041         0.00041  23643207.30548
  -6749544.38848         0.00041         0.00041         0.00041  23431177.13248
  -9720686.76949  -7574556.02447         0.00041  20466807.21047  20466801.24649
  -2257109.85649  -1758788.09346         0.00041  20822514.68846  20822508.73449
 -12897037.16949 -10049628.33647         0.00041  20578209.38347  20578205.28849
 -18848245.47449 -14686919.55846         0.00041  21484464.30846  21484456.88549
  20475318.85348  15954780.49644         0.00041  24512403.09744  24512397.40548
 02 07 05 18 13 00.0000000  0  8 03 06 14 15 17 18 21 23
 -14270244.03648 -11119660.12846         0.00041  22415969.28746  22415960.84848
  17393895.84448         0.00041         0.00041         0.00041  23663999.14948
  -6858917.07448  -5344593.33145         0.00041  23410374.54345  23410364.11848
  -9711231.05149  -7567187.96147         0.00041  20468606.74847  20468600.77649
  -2234833.14849  -1741429.66846         0.00041  20826753.88146  20826747.80049
 -12872059.72349 -10030165.41247         0.00041  20582962.44347  20582958.29049
 -18873946.14649 -14706946.03046         0.00041  21479573.69946  21479566.28049
  20554176.37448  16016227.81344         0.00041  24527412.15544  24527403.46748
 02 07 05 18 13 30.0000000  0  8 03 06 14 15 17 18 21 23
 -14331043.47148 -11167036.27946         0.00041  22404399.97746  22404391.04248
  17503208.98748         0.00041         0.00041         0.00041  23684800.57348
  -6968207.50448  -5429754.47745         0.00041  23389577.71845  23389566.30048
  -9701540.35349  -7559636.79647         0.00041  20470450.68347  20470444.77149
  -2212334.39949  -1723898.21946         0.00041  20831035.33646  20831029.34349
 -12846875.32449 -10010541.22747         0.00041  20587754.90947  20587750.77049
 -18899490.77049 -14726850.90646         0.00041  21474712.53446  21474705.35749
  20632909.18948  16077577.99144         0.00041  24542392.87444  24542385.43348
 02 07 05 18 14 00.0000000  0  8 03 06 14 15 17 18 21 23
 -14391440.22848 -11214098.65146         0.00041  22392906.72746  22392897.29548
  17612594.43248         0.00041         0.00041         0.00041  23705617.00048
  -7077391.57248         0.00041         0.00041         0.00041  23368788.67148
  -9691592.29849  -7551885.09447         0.00041  20472343.57547  20472337.80449
  -2189591.26749  -1706176.34246         0.00041  20835363.38446  20835357.27649
 -12821463.61949  -9990739.92347         0.00041  20592590.62547  20592586.48249
 -18924858.77549 -14746618.16646         0.00041  21469885.18246  21469877.94349
  20711538.15448  16138847.16044         0.00041  24557355.92744  24557348.58148
 02 07 05 18 14 30.0000000  0  8 03 06 14 15 17 18 21 23
 -14451419.84348 -11260835.97246         0.00041  22381492.44046  22381483.25648
  17722062.25648         0.00041         0.00041         0.00041  23726448.37248
  -7186454.01848  -5599816.26845         0.00041  23348046.41845  23348034.75248
  -9681373.57649  -7543922.48247         0.00041  20474288.30147  20474282.56749
  -2166590.25749  -1688253.52046         0.00041  20839740.31146  20839734.20949
 -12795813.23749  -9970752.63447         0.00041  20597471.87447  20597467.76049
 -18950038.36249 -14766238.60246         0.00041  21465093.60246  21465086.55049
  20790075.18048  16200044.76644         0.00041  24572302.10444  24572293.41648
 02 07 05 18 15 00.0000000  0  8 03 06 14 15 17 18 21 23
 -14510950.65748 -11307223.58046         0.00041  22370164.68746  22370155.75148
  17831639.49148         0.00041         0.00041         0.00041  23747300.42448
  -7295362.51648         0.00041         0.00041         0.00041  23327309.50448
  -9670853.52949  -7535725.07147         0.00041  20476289.93847  20476284.31549
  -2143300.78149  -1670105.92146         0.00041  20844172.23546  20844165.97349
 -12769896.04749  -9950557.44447         0.00041  20602403.78647  20602399.58849
 -18975000.40349 -14785689.52146         0.00041  21460343.29646  21460336.23149
  20868549.29248  16261193.30944         0.00041  24587232.76644  24587227.23848
 02 07 05 18 15 30.0000000  0  8 03 06 14 15 17 18 21 23
 -14570005.00448 -11353239.92346         0.00041  22358926.22046  22358918.35248
  17941349.36348         0.00041         0.00041         0.00041  23768177.95648
  -7404088.59548  -5769401.20745         0.00041  23306631.02445  23306619.35848
  -9660005.93049  -7527272.42747         0.00041  20478354.34547  20478348.54949
  -2119696.55349  -1651713.06446         0.00041  20848663.86546  20848657.97349
 -12743687.56549  -9930135.26847         0.00041  20607391.07147  20607386.93449
 -18999719.85249 -14804951.40446         0.00041  21455639.36846  21455632.62049
  20946985.42048  16322312.27644         0.00041  24602163.39744  24602152.72448
 02 07 05 18 16 00.0000000  0  8 03 06 14 15 17 18 21 23
 -14628587.07248 -11398888.25646         0.00041  22347778.26846  22347770.46048
  18051183.21348         0.00041         0.00041         0.00041  23789078.89448
  -7512635.82048         0.00041         0.00041         0.00041  23285963.55248
  -9648835.95949  -7518568.58047         0.00041  20480479.86047  20480474.27649
  -2095782.61049  -1633078.86746         0.00041  20853214.53046  20853208.51549
 -12717195.77449  -9909492.33247         0.00041  20612432.29047  20612428.17049
 -19024203.64449 -14824029.66146         0.00041  21450980.51446  21450973.03149
  21025376.69248  16383396.28744         0.00041  24617077.80044  24617071.00648
 02 07 05 18 16 30.0000000  0  8 03 06 14 15 17 18 21 23
 -14686634.98948 -11444120.36946         0.00041  22336732.51146  22336724.07248
  18161198.21248         0.00041         0.00041         0.00041  23810013.92348
  -7620941.74448         0.00041         0.00041         0.00041  23265353.23248
  -9637283.03049  -7509566.32547         0.00041  20482678.52047  20482672.76749
  -2071498.41449  -1614156.16146         0.00041  20857836.07846  20857829.59649
 -12690362.15649  -9888583.03947         0.00041  20617538.53247  20617534.35049
 -19048393.07649 -14842878.55246         0.00041  21446377.46046  21446370.19549
  21103782.26948  16444491.44744         0.00041  24632000.20544  24631990.52548
 02 07 05 18 17 00.0000000  0  8 03 06 14 15 17 18 21 23
 -14744205.40448 -11488980.39346         0.00041  22325777.04546  22325768.35848
  18271333.29948         0.00041         0.00041         0.00041  23830972.82148
  -7729062.50148         0.00041         0.00041         0.00041  23244778.75548
  -9625404.67449  -7500310.49847         0.00041  20484938.92947  20484933.18649
  -2046901.78549  -1594990.00446         0.00041  20862516.49946  20862510.13249
 -12663246.35749  -9867453.85847         0.00041  20622698.49847  20622694.48949
 -19072347.15449 -14861544.04246         0.00041  21441818.69346  21441811.69149
  21182143.06648  16505551.71944         0.00041  24646912.11344  24646902.43348
 02 07 05 18 17 30.0000000  0  8 03 06 14 15 17 18 21 23
 -14801221.00548 -11533408.09646         0.00041  22314927.03446  22314918.84348
  18381661.35848         0.00041         0.00041         0.00041  23851968.59148
  -7836919.77248         0.00041         0.00041         0.00041  23224253.87748
  -9613124.69849  -7490741.71847         0.00041  20487275.72247  20487269.92649
  -2021916.06449  -1575520.65946         0.00041  20867271.28246  20867264.91749
 -12635774.36749  -9846047.12747         0.00041  20627926.42647  20627922.28049
 -19095991.34849 -14879968.06746         0.00041  21437319.55646  21437312.60349
  21260533.90248  16566635.42044         0.00041  24661830.12744  24661819.70248
 02 07 05 18 18 00.0000000  0  8 03 06 14 15 17 18 21 23
 -14857746.96048 -11577454.26946         0.00041  22304170.09546  22304162.72048
  18492112.55148         0.00041         0.00041         0.00041  23872987.56148
  -7944578.16948         0.00041         0.00041         0.00041  23203766.68048
  -9600509.40949  -7480911.65447         0.00041  20489676.54947  20489670.44749
  -1996608.00149  -1555800.13646         0.00041  20872087.27146  20872080.93749
 -12608015.06249  -9824416.51447         0.00041  20633208.76947  20633204.66749
 -19119393.00749 -14898203.09946         0.00041  21432866.39646  21432859.36649
  21338886.98348  16627689.70544         0.00041  24676740.33544  24676729.66148
 02 07 05 18 18 30.0000000  0  8 03 06 14 15 17 18 21 23
 -14913813.82648 -11621142.70146         0.00041  22293501.02746  22293493.44448
  18602652.24248         0.00041         0.00041         0.00041  23894023.03848
  -8052067.20648         0.00041         0.00041         0.00041  23183312.75048
  -9587590.33849  -7470844.87847         0.00041  20492135.05447  20492128.99749
  -1971009.00149  -1535852.90746         0.00041  20876958.72046  20876952.08549
 -12580001.78449  -9802587.99847         0.00041  20638539.67847  20638535.47749
 -19142585.85449 -14916275.43246         0.00041  21428452.85346  21428445.42049
  21417169.35848  16688688.84144         0.00041  24691637.41544  24691626.49448
 02 07 05 18 19 00.0000000  0  8 03 06 14 15 17 18 21 23
 -14969406.20848 -11664461.40446         0.00041  22282922.21946  22282914.61548
  18713291.18248         0.00041         0.00041         0.00041  23915077.15348
  -8159371.01648  -6357931.25445         0.00041  23162904.99145  23162893.82148
  -9574353.36149  -7460530.38547         0.00041  20494653.88047  20494647.97149
  -1945104.85749  -1515667.90646         0.00041  20881888.12846  20881881.79849
 -12551722.83249  -9780552.46547         0.00041  20643920.79547  20643916.61249
 -19165557.38349 -14934175.29946         0.00041  21424081.47046  21424074.41849
  21495393.71348  16749642.77844         0.00041  24706522.15744  24706512.47648
 02 07 05 18 19 30.0000000  0  8 03 06 14 15 17 18 21 23
 -15024569.29648 -11707445.59546         0.00041  22272425.46346  22272417.27248
  18823979.82448         0.00041         0.00041         0.00041  23936140.67748
  -8266533.95648  -6441434.60546         0.00041  23142510.37346  23142500.94148
  -9560844.52149  -7450004.04847         0.00041  20497224.57047  20497218.58449
  -1918941.62149  -1495281.01446         0.00041  20886866.66446  20886860.49049
 -12523226.39049  -9758347.46047         0.00041  20649343.66947  20649339.41349
 -19188355.24849 -14951939.84646         0.00041  21419743.10746  21419735.82749
  21573512.55448  16810514.47644         0.00041  24721386.38344  24721377.19948
 02 07 05 18 20 00.0000000  0  8 03 06 14 15 17 18 21 23
 -15079374.10348 -11750150.60446         0.00041  22261996.66846  22261987.98048
  18934642.72448         0.00041         0.00041         0.00041  23957199.10148
  -8373626.01448  -6524882.70845         0.00041  23122132.05945  23122121.88248
  -9547135.91449  -7439322.04847         0.00041  20499833.23047  20499827.32349
  -1892591.37549  -1474748.39946         0.00041  20891881.10946  20891874.73749
 -12494586.88349  -9736030.97547         0.00041  20654793.43847  20654789.32749
 -19211052.56549 -14969626.04347         0.00041  21415424.15947  21415417.11149
  21651452.66048  16871246.93644         0.00041  24736218.29444  24736209.60748
 02 07 05 18 20 30.0000000  0  8 03 06 14 15 17 18 21 23
 -15133813.96648 -11792571.24446         0.00041  22251637.34746  22251628.66048
  19045282.22948         0.00041         0.00041         0.00041  23978253.64248
  -8480640.07348  -6608270.02546         0.00041  23101769.22646  23101757.56048
  -9533221.83749  -7428479.94147         0.00041  20502481.05247  20502475.18549
  -1866048.58849  -1454065.75646         0.00041  20896931.86646  20896925.75649
 -12465800.79749  -9713600.26947         0.00041  20660271.28947  20660267.24649
 -19233645.52849 -14987230.92646         0.00041  21411124.25146  21411117.72749
  21729218.13548  16931843.35144         0.00041  24751017.98844  24751007.81148
 02 07 05 18 21 00.0000000  0  8 03 06 14 15 17 18 21 23
 -15187823.90448 -11834656.88346         0.00041  22241359.44746  22241351.00848
  19155959.16848         0.00041         0.00041         0.00041  23999314.21648
  -8587510.13948  -6691545.16445         0.00041  23081431.73245  23081421.05948
  -9519038.21249  -7417427.80047         0.00041  20505180.12847  20505174.19849
  -1839249.14949  -1433183.12446         0.00041  20902031.94646  20902025.45749
 -12436806.04649  -9691006.96747         0.00041  20665788.86247  20665784.85449
 -19256071.81349 -15004705.92946         0.00041  21406856.97246  21406850.41349
  21806871.62048  16992352.46044         0.00041  24765793.69944  24765784.51548
 02 07 05 18 21 30.0000000  0  8 03 06 14 15 17 18 21 23
 -15241249.19748 -11876286.94946         0.00041  22231193.09846  22231184.41148
  19266823.57148         0.00041         0.00041         0.00041  24020411.31448
  -8694080.75848  -6774586.96546         0.00041  23061152.36246  23061140.94448
  -9504431.40249  -7406045.90347         0.00041  20507959.78647  20507953.75649
  -1812039.72749  -1411981.02946         0.00041  20907209.76646  20907203.46549
 -12407451.42049  -9668133.24547         0.00041  20671375.01147  20671370.85049
 -19278179.06149 -15021932.33946         0.00041  21402649.93646  21402643.29849
  21884565.24648  17052892.85944         0.00041  24780578.79344  24780569.36148
 02 07 05 18 22 00.0000000  0  8 03 06 14 15 17 18 21 23
 -15294064.40048 -11917441.62346         0.00041  22221142.78446  22221134.34448
  19377896.54548         0.00041         0.00041         0.00041  24041548.28448
  -8800325.89048  -6857375.13646         0.00041  23040933.92446  23040923.00248
  -9489377.21349  -7394315.40047         0.00041  20510824.61547  20510818.61749
  -1784395.56649  -1390440.17846         0.00041  20912470.34446  20912464.03449
 -12377714.58949  -9644961.70647         0.00041  20677033.77747  20677029.53449
 -19299945.03349 -15038892.82146         0.00041  21398508.13946  21398501.58749
  21962322.08548  17113482.49944         0.00041  24795376.34244  24795366.41348
 02 07 05 18 22 30.0000000  0  8 03 06 14 15 17 18 21 23
 -15346352.86548 -11958185.86446         0.00041  22211192.38846  22211184.19748
  19489090.58348         0.00041         0.00041         0.00041  24062708.42548
  -8906327.75048  -6939973.75146         0.00041  23020762.19446  23020751.52048
  -9473959.73549  -7382301.81647         0.00041  20513758.36047  20513752.29549
  -1756401.13349  -1368626.38846         0.00041  20917797.66546  20917791.18649
 -12347682.00049  -9621559.70647         0.00041  20682748.90847  20682744.45749
 -19321455.30149 -15055654.05846         0.00041  21394414.84446  21394407.83849
  22040056.54548  17174054.74844         0.00041  24810167.84944  24810159.16248
 02 07 05 18 23 00.0000000  0  8 03 06 14 15 17 18 21 23
 -15398183.95848 -11998573.71046         0.00041  22201329.47746  22201321.28648
  19600331.87848         0.00041         0.00041         0.00041  24083877.17748
  -9012154.96948  -7022436.28746         0.00041  23000624.18446  23000612.51848
  -9458249.60149  -7370060.19147         0.00041  20516747.92247  20516741.89049
  -1728126.82249  -1346594.50946         0.00041  20923177.92846  20923171.54949
 -12317426.16549  -9597983.74947         0.00041  20688506.22647  20688501.94349
 -19342781.82649 -15072272.12446         0.00041  21390356.51146  21390349.62349
  22117696.82348  17234553.60544         0.00041  24824941.53144  24824934.00348
 02 07 05 18 23 30.0000000  0  8 03 06 14 15 17 18 21 23
 -15449514.77349 -12038571.73046         0.00041  22191561.14646  22191553.30549
  19711659.24248         0.00041         0.00041         0.00041  24105061.85148
  -9117763.81048         0.00041         0.00041         0.00041  22980515.08648
  -9442204.46949  -7357557.52847         0.00041  20519801.50547  20519795.26549
  -1699530.53149  -1324311.73846         0.00041  20928619.69446  20928613.34149
 -12286907.30949  -9574202.83847         0.00041  20694313.91347  20694309.41949
 -19363884.25449 -15088715.56446         0.00041  21386340.79446  21386333.97849
  22195283.71348  17295010.85344         0.00041  24839708.73544  24839698.55848
 02 07 05 18 24 00.0000000  0  8 03 06 14 15 17 18 21 23
 -15500356.05048 -12078188.29046         0.00041  22181886.85146  22181877.91548
  19823057.57748         0.00041         0.00041         0.00041  24126259.94548
  -9223163.94748         0.00041         0.00041         0.00041  22960457.55748
  -9425836.03449  -7344802.93747         0.00041  20522916.27147  20522910.08649
  -1670624.03049  -1301787.24146         0.00041  20934120.68646  20934114.11649
 -12256139.30249  -9550227.78447         0.00041  20700168.89147  20700164.41949
 -19384775.33849 -15104994.32246         0.00041  21382365.34546  21382358.66549
  22272804.43448  17355416.55744         0.00041  24854458.72744  24854449.04648
 02 07 05 18 24 30.0000000  0  8 03 06 14 15 17 18 21 23
 -15550744.70048 -12117452.13746         0.00041  22172297.58246  22172288.89548
  19934485.66448         0.00041         0.00041         0.00041  24147464.16048
  -9328391.56848         0.00041         0.00041         0.00041  22940433.11548
  -9409182.53749  -7331826.21947         0.00041  20526085.17647  20526079.00249
  -1641445.03749  -1279050.41946         0.00041  20939673.06846  20939666.64349
 -12225162.05749  -9526089.68847         0.00041  20706063.49347  20706059.20149
 -19405495.30049 -15121139.72646         0.00041  21378422.51446  21378416.08749
  22350219.51548  17415739.90144         0.00041  24869191.71844  24869180.54848
 02 07 05 18 25 00.0000000  0  8 03 06 14 15 17 18 21 23
 -15600658.74748 -12156346.17246         0.00041  22162798.83946  22162791.03448
  20045961.35748         0.00041         0.00041         0.00041  24168677.51148
  -9433423.79048         0.00041         0.00041         0.00041  22920446.87048
  -9392222.71949  -7318610.81147         0.00041  20529312.60347  20529306.64549
  -1611972.80549  -1256085.09946         0.00041  20945281.82146  20945275.23849
 -12193956.59449  -9501773.75847         0.00041  20712001.77147  20711997.55249
 -19426023.95249 -15137136.06146         0.00041  21374516.28246  21374509.29149
  22427548.87648  17475996.45044         0.00041  24883906.33144  24883896.40248
 02 07 05 18 25 30.0000000  0  7 03 14 15 17 18 21 23
 -15650131.37948 -12194896.25646         0.00041  22153384.55046  22153376.89448
  -9538292.87448  -7432412.72946         0.00041  22900501.80346  22900490.63348
  -9374990.73049  -7305183.32547         0.00041  20532591.75747  20532585.86749
  -1582241.46449  -1232917.87746         0.00041  20950939.44946  20950932.81249
 -12162559.39749  -9477308.42147         0.00041  20717976.20347  20717972.21249
 -19446397.15449 -15153011.26947         0.00041  21370639.29347  21370632.64949
  22504756.98148  17536158.55844         0.00041  24898599.34344  24898588.91848
 02 07 05 18 26 00.0000000  0  7 03 14 15 17 18 21 23
 -15699042.46449 -12233008.76246         0.00041  22144077.15546  22144069.52149
  -9642877.82548  -7513907.27246         0.00041  22880599.67746  22880588.50748
  -9357367.34149  -7291450.84947         0.00041  20535945.39747  20535939.52149
  -1552131.80549  -1209455.86246         0.00041  20956669.18046  20956662.52349
 -12130853.37249  -9452602.43947         0.00041  20724009.50047  20724005.66049
 -19466497.06549 -15168673.51947         0.00041  21366814.54247  21366807.21049
  22581961.73648  17596318.03544         0.00041  24913290.70544  24913280.52848
 02 07 05 18 26 30.0000000  0  7 03 14 15 17 18 21 23
 -15747420.77749 -12270706.12346         0.00041  22134870.69746  22134863.21549
  -9747206.27148  -7595201.96146         0.00041  22860746.32246  22860735.40148
  -9339381.96949  -7277436.30747         0.00041  20539367.92947  20539362.07349
  -1521673.20349  -1185721.94546         0.00041  20962465.46046  20962458.75549
 -12098869.89549  -9427680.26347         0.00041  20730096.16347  20730091.84949
 -19486355.16049 -15184147.35046         0.00041  21363035.58446  21363028.33449
  22659132.67248  17656451.12144         0.00041  24927975.55244  24927965.12748
 02 07 05 18 27 00.0000000  0  8 03 14 15 17 18 21 23 31
 -15795250.36748 -12307975.91646         0.00041  22125768.94146  22125761.26448
  -9851261.11348         0.00041         0.00041         0.00041  22840933.99248
  -9321019.93249  -7263128.26347         0.00041  20542862.20547  20542856.24949
  -1490850.82049  -1161704.56046         0.00041  20968330.87546  20968324.01549
 -12066596.21049  -9402531.95647         0.00041  20736237.64447  20736233.38549
 -19505957.86049 -15199422.16747         0.00041  21359305.07647  21359298.30949
  22736283.43748  17716568.51144         0.00041  24942657.66944  24942646.74748
         0.01958         0.00051         0.00051         0.00051  24956924.96558
 02 07 05 18 27 30.0000000  0  7 03 14 15 17 18 21 23
 -15842584.99648 -12344860.01846         0.00041  22116762.35146  22116753.66448
  -9955095.33248  -7757193.00446         0.00041  22821185.99146  22821175.56648
  -9302335.62349  -7248569.09847         0.00041  20546417.86147  20546411.78949
  -1459719.16849  -1137446.19246         0.00041  20974254.82446  20974248.21649
 -12034089.03249  -9377201.70647         0.00041  20742423.60647  20742419.49149
 -19525361.14249 -15214541.59347         0.00041  21355612.74247  21355605.97849
  22813358.23048  17776626.69044         0.00041  24957324.91444  24957313.49648
 02 07 05 18 28 00.0000000  0  7 03 14 15 17 18 21 23
 -15889467.88349 -12381392.11546         0.00041  22107840.61446  22107832.42349
 -10058751.34448  -7837963.72546         0.00041  22801460.43046  22801450.50248
  -9283372.91449  -7233792.99647         0.00041  20550026.22647  20550020.20549
  -1428322.54549  -1112981.35946         0.00041  20980229.55246  20980222.95049
 -12001394.48749  -9351725.45647         0.00041  20748645.27047  20748641.02749
 -19544610.46949 -15229541.05947         0.00041  21351949.99947  21351942.86049
  22890311.75748  17836590.37844         0.00041  24971969.25244  24971957.83448
 02 07 05 18 28 30.0000000  0  7 03 14 15 17 18 21 23
 -15935872.48249 -12417551.52946         0.00041  22099010.09546  22099001.90449
 -10162201.58848  -7918574.10546         0.00041  22781774.98446  22781764.55848
  -9264106.24249  -7218780.04447         0.00041  20553692.65147  20553686.48349
  -1396635.14749  -1088289.94246         0.00041  20986259.62346  20986252.92749
 -11968488.93649  -9326084.78447         0.00041  20754906.76747  20754902.71049
 -19563681.67549 -15244401.72947         0.00041  21348320.87947  21348313.54449
  22967168.42348  17896478.60544         0.00041  24986589.71944  24986583.52848
 02 07 05 18 29 00.0000000  0  8 03 14 15 17 18 21 23 31
 -15981727.31049 -12453282.54746         0.00041  22090283.72546  22090275.94849
 -10265373.56748  -7998967.66646         0.00041  22762141.61546  22762131.68648
  -9244464.97949  -7203475.19647         0.00041  20557430.10447  20557424.25649
  -1364586.38849  -1063316.94646         0.00041  20992358.24146  20992351.54549
 -11935303.99349  -9300226.40647         0.00041  20761221.70147  20761217.68949
 -19582506.35949 -15259070.30347         0.00041  21344738.69547  21344731.40449
  23043997.86348  17956345.58944         0.00041  25001213.94544  25001204.26448
        -0.29158         0.00051         0.00051         0.00051  24884235.77158
 02 07 05 18 29 30.0000000  0  8 03 14 15 17 18 21 23 31
 -16026999.81549 -12488559.81046         0.00041  22081668.76846  22081660.92349
 -10368233.62548  -8079118.15946         0.00041  22742566.76346  22742557.57948
  -9224417.51049  -7187853.82447         0.00041  20561245.09347  20561239.22749
  -1332144.62949  -1038037.72246         0.00041  20998531.80946  20998525.04749
 -11901809.81649  -9274127.06247         0.00041  20767595.40147  20767591.37249
 -19601053.76749 -15273522.81447         0.00041  21341209.09947  21341202.10349
  23120830.72448  18016215.29644         0.00041  25015833.12244  25015825.35948
    -94778.40448         0.00041         0.00041         0.00041  24866184.18048
 02 07 05 18 30 00.0000000  0  7 03 14 15 17 18 21 23
 -16071847.74148 -12523506.22946         0.00041  22073135.06446  22073126.37648
 -10470938.63948  -8159147.85446         0.00041  22723022.98146  22723013.30148
  -9204122.26949  -7172039.37947         0.00041  20565107.37547  20565101.28049
  -1299468.35949  -1012575.75946         0.00041  21004750.31546  21004743.13649
 -11868166.90349  -9247911.82147         0.00041  20773997.57147  20773993.34549
 -19619484.35249 -15287884.29547         0.00041  21337702.04047  21337694.80549
  23197507.17748  18075963.10844         0.00041  25030426.39644  25030415.97048
 02 07 05 18 30 30.0000000  0  7 03 14 15 17 18 21 23
 -16116230.36749 -12558090.07946         0.00041  22064688.73746  22064680.82149
 -10573446.43648  -8239023.86546         0.00041  22703517.16046  22703506.23948
  -9183539.02949  -7156000.52047         0.00041  20569024.28047  20569018.07649
  -1266517.64049   -986899.94146         0.00041  21011020.37446  21011013.58249
 -11834337.42449  -9221551.20647         0.00041  20780435.11947  20780430.99749
 -19637758.97149 -15302124.24446         0.00041  21334224.28746  21334217.04449
  23274066.14048  18135619.32144         0.00041  25044989.90044  25044983.65948
 02 07 05 18 31 00.0000000  0  7 03 14 15 17 18 21 23
 -16160088.40249 -12592265.15446         0.00041  22056342.79846  22056335.21349
 -10675696.82648  -8318699.31246         0.00041  22684058.60646  22684048.67748
  -9162609.73849  -7139692.01347         0.00041  20573006.86047  20573000.92849
  -1233234.00449   -960964.70946         0.00041  21017354.17746  21017347.27549
 -11800265.10749  -9195001.36647         0.00041  20786918.83647  20786914.70349
 -19655820.50949 -15316198.15946         0.00041  21330787.21346  21330780.12049
  23350564.98848  18195228.75844         0.00041  25059545.66244  25059541.01248
 02 07 05 18 31 30.0000000  0  7 03 14 15 17 18 21 23
 -16203474.03349 -12626072.12846         0.00041  22048086.89546  22048078.95249
 -10777740.87248  -8398213.96446         0.00041  22664639.14646  22664630.21048
  -9141387.11549  -7123154.93647         0.00041  20577045.60147  20577039.49249
  -1199670.34249   -934811.27946         0.00041  21023740.92346  21023734.41349
 -11766004.69649  -9168304.95847         0.00041  20793438.50147  20793434.36749
 -19673723.75049 -15330148.72447         0.00041  21327380.44447  21327373.42049
  23426949.76148  18254749.33644         0.00041  25074086.46044  25074077.02848
 02 07 05 18 32 00.0000000  0  7 03 14 15 17 18 21 23
 -16246353.53648 -12659484.71446         0.00041  22039927.44246  22039919.00348
 -10879543.71248  -8477540.66846         0.00041  22645266.70046  22645257.26848
  -9119838.09449  -7106363.52047         0.00041  20581146.11047  20581140.05349
  -1165793.67049   -908413.94246         0.00041  21030187.50946  21030180.98149
 -11731525.07249  -9141437.73447         0.00041  20799999.62747  20799995.64649
 -19691437.23349 -15343951.42346         0.00041  21324009.51946  21324002.59149
  23503252.37248  18314205.84741         0.00041         0.00041  25088596.30848
 02 07 05 18 32 30.0000000  0  7 03 14 15 17 18 21 23
 -16288664.99748 -12692454.66946         0.00041  22031876.00246  22031867.06748
 -10981042.44348  -8556630.40346         0.00041  22625953.05846  22625942.63348
  -9097901.57849  -7089270.16047         0.00041  20585320.60147  20585314.36249
  -1131543.10149   -881725.26046         0.00041  21036705.41046  21036698.81749
 -11696767.34449  -9114353.80347         0.00041  20806613.85447  20806609.99449
 -19708901.49249 -15357559.92147         0.00041  21320686.21647  21320679.42249
  23579532.77248  18373645.00044         0.00041  25103124.40544  25103113.73148
 02 07 05 18 33 00.0000000  0  7 03 14 15 17 18 21 23
 -16330425.95048 -12724995.65646         0.00041  22023929.13046  22023920.44248
 -11082253.46048  -8635495.94746         0.00041  22606693.60546  22606683.42848
  -9075595.92949  -7071889.16147         0.00041  20589565.04347  20589559.17849
  -1096936.82049   -854759.39646         0.00041  21043290.95346  21043284.06949
 -11661751.89149  -9087069.04947         0.00041  20813277.12347  20813273.28349
 -19726136.22649 -15370989.56747         0.00041  21317406.62447  21317399.74249
  23655771.70148  18433051.89341         0.00041         0.00041  25117620.08848
 02 07 05 18 33 30.0000000  0  8 03 14 15 17 18 21 23 31
 -16371591.68849 -12757072.84446         0.00041  22016094.44546  22016087.38649
 -11183130.75548  -8714101.44946         0.00041  22587495.71446  22587486.77948
  -9052877.16749  -7054186.25747         0.00041  20593888.44847  20593882.47649
  -1061930.94149   -827482.16046         0.00041  21049952.58346  21049945.33349
 -11626436.41849  -9059550.51747         0.00041  20819997.38747  20819993.43749
 -19743098.34349 -15384206.77547         0.00041  21314178.80547  21314171.63149
  23732012.06148  18492459.81641         0.00041         0.00041  25132129.17648
        -0.14658         0.00051         0.00051         0.00051  24723499.00058
 02 07 05 18 34 00.0000000  0  8 03 14 15 17 18 21 23 31
 -16412164.92049 -12788688.34546         0.00041  22008374.15246  22008366.71949
 -11283676.15748  -8792448.33546         0.00041  22568362.57046  22568353.13848
  -9029748.73149  -7036164.12547         0.00041  20598289.65647  20598283.58449
  -1026528.73149   -799896.09346         0.00041  21056688.78446  21056682.22149
 -11590826.36049  -9031802.44047         0.00041  20826773.77147  20826769.62949
 -19759792.76749 -15397215.39846         0.00041  21311001.92246  21310994.67249
  23808249.42848  18551865.45744         0.00041  25146644.09144  25146637.06548
    -92364.67048         0.00041         0.00041         0.00041  24705922.19448
 02 07 05 18 34 30.0000000  0  8 03 14 15 17 18 21 23 31
 -16452264.47649 -12819934.73646         0.00041  22000743.38446  22000735.63249
 -11384007.44348  -8870628.38346         0.00041  22549269.94446  22549260.51248
  -9006330.17549  -7017915.92747         0.00041  20602746.26047  20602740.05649
   -990849.97949   -772094.60546         0.00041  21063478.44246  21063471.87649
 -11555043.44149  -9003919.65147         0.00041  20833583.25447  20833579.04549
 -19776341.14449 -15410110.21847         0.00041  21307852.89447  21307845.79949
  23884363.16048  18611174.79944         0.00041  25161127.86544  25161120.35348
   -184503.15048         0.00041         0.00041         0.00041  24688389.13048
 02 07 05 18 35 00.0000000  0  8 03 14 15 17 18 21 23 31
 -16491893.90549 -12850814.79646         0.00041  21993201.72146  21993194.29749
 -11484126.89648  -8948643.35946         0.00041  22530217.42246  22530208.98348
  -8982625.72049  -6999444.95447         0.00041  20607257.01447  20607250.79849
   -954898.92949   -744080.77646         0.00041  21070319.07646  21070313.11549
 -11519093.57049  -8975906.79347         0.00041  20840424.40947  20840420.20249
 -19792748.86549 -15422895.43147         0.00041  21304730.33147  21304723.68549
  23960348.01748  18670383.64644         0.00041  25175590.61244  25175579.19448
   -276417.90448         0.00041         0.00041         0.00041  24670901.18648
 02 07 05 18 35 30.0000000  0  8 03 14 15 17 18 21 23 31
 -16530989.10249 -12881278.57946         0.00041  21985762.25646  21985754.89049
 -11583968.99848  -9026442.22446         0.00041  22511218.55146  22511209.11848
  -8958571.90849  -6980701.75647         0.00041  20611834.46447  20611828.17649
   -918612.10649   -715805.39746         0.00041  21077225.19646  21077218.56149
 -11482915.43849  -8947716.06047         0.00041  20847308.90547  20847304.71349
 -19808953.59349 -15435522.47047         0.00041  21301646.93347  21301639.72749
  24036266.60248  18729540.93244         0.00041  25190037.77544  25190026.60548
   -368043.42248   -286785.66444         0.00041  24653473.10944  24653466.37348
 02 07 05 18 36 00.0000000  0  8 03 14 15 17 18 21 23 31
 -16569543.12349 -12911320.67046         0.00041  21978425.52146  21978418.28749
 -11683525.64248  -9104018.65146         0.00041  22492273.52446  22492263.84448
  -8934162.32249  -6961681.32847         0.00041  20616479.49547  20616473.22349
   -881983.27549   -687263.52646         0.00041  21084195.43546  21084188.83049
 -11446504.88749  -8919344.22047         0.00041  20854237.58447  20854233.26049
 -19824951.01549 -15447987.97447         0.00041  21298602.89347  21298595.58549
  24112124.13948  18788650.61044         0.00041  25204473.74144  25204462.32348
   -459371.50648   -357950.40044         0.00041  24636095.05244  24636087.72048
 02 07 05 18 36 30.0000000  0  8 03 14 15 17 18 21 23 31
 -16607554.80049 -12940940.16246         0.00041  21971192.31846  21971184.87449
 -11782794.48848  -9181370.83346         0.00041  22473382.24546  22473373.06248
  -8909396.22949  -6942383.10247         0.00041  20621192.16047  20621186.05549
   -845011.72149   -658454.60146         0.00041  21091231.26046  21091224.15749
 -11409863.05349  -8890792.16247         0.00041  20861210.23147  20861206.11449
 -19840741.70949 -15460292.38947         0.00041  21295597.79047  21295591.00649
  24187920.52348  18847712.63144         0.00041  25218896.47344  25218885.30348
   -550399.55948         0.00041         0.00041         0.00041  24618764.55648
 02 07 05 18 37 00.0000000  0  8 03 14 15 17 18 21 23 31
 -16645087.07249 -12970186.09146         0.00041  21964051.06446  21964042.62549
 -11881837.26348  -9258546.85646         0.00041  22454535.60346  22454525.92348
  -8884337.38849  -6922856.75947         0.00041  20625960.58347  20625954.73249
   -807761.17449   -629428.26646         0.00041  21098320.05046  21098312.68049
 -11373055.12649  -8862110.68247         0.00041  20868214.68647  20868210.36449
 -19856390.79049 -15472486.45447         0.00041  21292620.11247  21292612.84749
  24263591.14748  18906676.69044         0.00041  25233292.38344  25233284.77548
   -641189.20448         0.00041         0.00041         0.00041  24601488.24448
 02 07 05 18 37 30.0000000  0  8 03 14 15 17 18 21 23 31
 -16682145.93549 -12999063.12546         0.00041  21956998.46546  21956990.53849
 -11980658.62348  -9335550.34246         0.00041  22435730.89946  22435720.72248
  -8858992.39149  -6903107.43647         0.00041  20630783.91847  20630777.78349
   -770238.21549   -600189.66246         0.00041  21105460.10446  21105453.15849
 -11336089.90749  -8833306.63447         0.00041  20875248.77447  20875244.76649
 -19871905.74249 -15484576.00447         0.00041  21289667.46347  21289660.41549
  24339128.65548  18965536.98144         0.00041  25247670.94944  25247659.28348
   -731745.07848   -570189.42241         0.00041         0.00041  24584254.74148
 02 07 05 18 38 00.0000000  0  8 03 14 15 17 18 21 23 31
 -16718722.61149 -13027564.43246         0.00041  21950038.02346  21950030.28849
 -12079248.78048  -9412373.68646         0.00041  22416968.47446  22416959.29048
  -8833353.25249  -6883128.91647         0.00041  20635663.00247  20635656.63649
   -732435.06149   -570732.72946         0.00041  21112653.72346  21112647.07549
 -11298961.40049  -8804375.34847         0.00041  20882314.06947  20882310.00949
 -19887280.42949 -15496556.25347         0.00041  21286741.75847  21286734.71649
  24414539.68748  19024298.76344         0.00041  25262017.92444  25262009.73348
   -822057.39947   -640562.59841         0.00041         0.00041  24567068.65447
 02 07 05 18 38 30.0000000  0  8 03 14 15 17 18 21 23 31
 -16754779.03049 -13055660.34446         0.00041  21943176.66946  21943168.84049
 -12177568.14248  -9488986.01346         0.00041  22398259.73146  22398249.80248
  -8807382.17249  -6862891.74047         0.00041  20640604.92647  20640598.68549
   -694314.04449   -541028.11246         0.00041  21119908.30246  21119901.23649
 -11261633.64349  -8775288.80347         0.00041  20889417.28647  20889413.11849
 -19902478.23849 -15508398.67747         0.00041  21283849.47047  21283842.56549
  24489861.19048         0.00041         0.00041         0.00041  25276342.17348
   -912086.47447         0.00041         0.00041         0.00041  24549937.34347
 02 07 05 18 39 00.0000000  0  8 03 14 15 17 18 21 23 31
 -16790173.96349 -13083240.80946         0.00041  21936441.05246  21936433.25149
 -12275474.23148  -9565276.32546         0.00041  22379628.82546  22379618.89748
  -8780938.34249  -6842286.18747         0.00041  20645637.16547  20645631.02049
   -655734.50849   -510966.20646         0.00041  21127250.19046  21127242.86449
 -11223967.75949  -8745938.78347         0.00041  20896584.93547  20896580.69249
 -19917360.36749 -15519995.11547         0.00041  21281017.50547  21281010.71249
  24565232.78848  19141721.78344         0.00041  25290695.81744  25290685.39248
  -1001689.60248   -780535.59041         0.00041         0.00041  24532889.07148
 02 07 05 18 39 30.0000000  0  8 03 14 15 17 18 21 23 31
 -16824957.79649 -13110345.09646         0.00041  21929822.09946  21929814.39249
 -12373016.34448  -9641283.01846         0.00041  22361066.65746  22361056.72948
  -8754073.12149  -6821352.28147         0.00041  20650749.37647  20650743.38449
   -616747.64149   -480586.90246         0.00041  21134668.82546  21134661.86249
 -11186016.83249  -8716366.65347         0.00041  20903806.78647  20903802.62449
 -19931979.28949 -15531386.46347         0.00041  21278235.62647  21278228.69849
  24640602.87348  19200451.62441         0.00041         0.00041  25305027.76548
  -1090915.85148   -850062.53741         0.00041         0.00041  24515907.83148
 02 07 05 18 40 00.0000000  0  8 03 14 15 17 18 21 23 31
 -16859176.40849 -13137008.94846         0.00041  21923310.92146  21923303.06249
 -12470238.91248  -9717040.71746         0.00041  22342564.89046  22342555.95448
  -8726832.86149  -6800126.13847         0.00041  20655932.96747  20655926.88549
   -577399.74049   -449926.27446         0.00041  21142156.38946  21142149.46249
 -11147829.05449  -8686609.97047         0.00041  20911073.87447  20911069.68849
 -19946382.51849 -15542609.74047         0.00041  21275495.05247  21275487.92149
  24715924.05448         0.00041         0.00041         0.00041  25319361.53948
  -1179809.62248   -919330.40344         0.00041  24499001.30344  24498992.86448
 02 07 05 18 40 30.0000000  0  8 03 14 15 17 18 21 23 31
 -16892783.46549 -13163196.26646         0.00041  21916915.73346  21916907.54149
 -12567094.36348  -9792512.36046         0.00041  22324133.68346  22324125.24348
  -8699171.82249  -6778572.11947         0.00041  20661196.74747  20661190.76849
   -537645.24449   -418948.81946         0.00041  21149721.55346  21149714.32049
 -11109360.48049  -8656634.47647         0.00041  20918393.87147  20918389.96549
 -19960525.74649 -15553630.42447         0.00041  21272803.61247  21272796.34149
  24791241.40548         0.00041         0.00041         0.00041  25333694.06548
  -1268323.26948   -988302.06044         0.00041  24482158.61044  24482149.42648
 02 07 05 18 41 00.0000000  0  8 03 14 15 17 18 21 23 31
 -16925932.43349 -13189026.63146         0.00041  21910607.74846  21910599.55749
 -12663735.05048  -9867816.65746         0.00041  22305743.05546  22305735.17048
  -8671243.89749  -6756810.13347         0.00041  20666511.42747  20666505.28149
   -497638.11949   -387774.50846         0.00041  21157334.58846  21157327.66549
 -11070766.95649  -8626561.62147         0.00041  20925738.14547  20925733.98449
 -19974563.83349 -15564569.17847         0.00041  21270131.87147  21270124.82449
  24866399.91048  19376397.07341         0.00041         0.00041  25347995.29748
  -1356608.84848         0.00041         0.00041         0.00041  24465348.58348
 02 07 05 18 41 30.0000000  0  8 03 14 15 17 18 21 23 31
 -16958629.18249 -13214504.61946         0.00041  21904386.11146  21904377.67249
 -12760164.99148  -9942956.73346         0.00041  22287393.90546  22287384.96948
  -8643055.24149  -6734844.98247         0.00041  20671875.58147  20671869.36949
   -457384.77749   -356408.34246         0.00041  21164994.84046  21164987.63749
 -11032056.44649  -8596397.60747         0.00041  20933104.57447  20933100.34649
 -19988504.56049 -15575432.06447         0.00041  21267479.07147  21267472.40449
  24941392.56648  19434832.83641         0.00041         0.00041  25362266.16848
  -1444670.42448         0.00041         0.00041         0.00041  24448589.87848
 02 07 05 18 42 00.0000000  0  8 03 14 15 17 18 21 23 31
 -16990909.55249 -13239658.16046         0.00041  21898243.49046  21898235.05149
 -12856418.77348 -10017959.55746         0.00041  22269077.06046  22269068.37348
  -8614642.25749  -6712705.03047         0.00041  20677282.52647  20677276.19649
   -416921.54649   -324878.62346         0.00041  21172694.93846  21172687.53749
 -10993267.22849  -8566172.26647         0.00041  20940485.85247  20940481.83549
 -20002386.44949 -15586249.09847         0.00041  21264837.60347  21264830.64749
  25016182.16048         0.00041         0.00041         0.00041  25376498.30048
  -1532542.34848         0.00041         0.00041         0.00041  24431868.32148
 02 07 05 18 42 30.0000000  0  8 03 14 15 17 18 21 23 31
 -17022700.32949 -13264430.19746         0.00041  21892193.52246  21892185.33149
 -12952421.81248 -10092766.99446         0.00041  22250808.64846  22250799.71248
  -8585932.45349  -6690333.79047         0.00041  20682745.94047  20682739.57049
   -376175.67849   -293128.67046         0.00041  21180448.66946  21180441.41449
 -10954328.32849  -8535830.28947         0.00041  20947895.85947  20947891.66649
 -20016137.24649 -15596963.98347         0.00041  21262220.66947  21262213.79949
  25090840.59348  19551285.69944         0.00041  25390716.46944  25390705.54748
  -1620150.12148         0.00041         0.00041         0.00041  24415196.40248
 02 07 05 18 43 00.0000000  0  8 03 14 15 17 18 21 23 31
 -17053885.46349 -13288730.30846         0.00041  21886259.73346  21886250.79749
 -13048056.68548 -10167287.55446         0.00041  22232608.94446  22232600.50548
  -8556810.01249  -6667641.01847         0.00041  20688287.50747  20688281.13349
   -335031.70149   -261068.50046         0.00041  21188278.23346  21188270.92149
 -10915125.87849  -8505282.95447         0.00041  20955355.85147  20955351.58649
 -20029642.63549 -15607487.64547         0.00041  21259650.70347  21259644.04049
  25165482.99948         0.00041         0.00041         0.00041  25404909.86748
  -1707376.03548         0.00041         0.00041         0.00041  24398597.73448
 02 07 05 18 43 30.0000000  0  8 03 14 15 17 18 21 23 31
 -17084461.11749 -13312555.49846         0.00041  21880440.51746  21880432.59749
 -13143318.18048 -10241517.16446         0.00041  22214481.13146  22214472.19548
  -8527271.72149  -6644624.20447         0.00041  20693908.75347  20693902.33049
   -293486.39949   -228695.61446         0.00041  21196183.73946  21196176.57649
 -10875658.49149  -8474529.17447         0.00041  20962866.24747  20962862.10149
 -20042900.74749 -15617818.62547         0.00041  21257127.67347  21257121.14649
  25240111.74448         0.00041         0.00041         0.00041  25419110.99048
  -1794214.75348         0.00041         0.00041         0.00041  24382070.37348
 02 07 05 18 44 00.0000000  0  8 03 14 15 17 18 21 23 31
 -17114481.31749 -13335947.87646         0.00041  21874727.87046  21874720.01049
 -13238258.90848 -10315496.82146         0.00041  22196414.91046  22196405.97548
  -8497371.77749  -6621325.58347         0.00041  20699598.34147  20699592.03649
   -251594.18549   -196052.41346         0.00041  21204155.57746  21204148.56049
 -10835982.24049  -8443612.63547         0.00041  20970416.39247  20970412.35349
 -20055967.17449 -15628000.24447         0.00041  21254641.27847  21254634.43549
  25314671.83448         0.00041         0.00041         0.00041  25433299.96148
  -1880718.78047         0.00041         0.00041         0.00041  24365607.99447
 02 07 05 18 44 30.0000000  0  8 03 14 15 17 18 21 23 31
 -17144030.71749 -13358973.38946         0.00041  21869104.45246  21869096.80649
 -13332962.00348 -10389291.31046         0.00041  22178393.33946  22178384.65148
  -8467195.35749  -6597811.53147         0.00041  20705340.92647  20705334.58749
   -209439.99249   -163205.07646         0.00041  21212177.70446  21212170.43149
 -10796183.83449  -8412600.91847         0.00041  20977989.82147  20977985.65849
 -20068928.34449 -15638099.84547         0.00041  21252174.69847  21252167.80749
  25389077.43848         0.00041         0.00041         0.00041  25447459.42948
  -1966971.04847         0.00041         0.00041         0.00041  24349196.20147
 02 07 05 18 45 00.0000000  0  8 03 14 15 17 18 21 23 31
 -17173114.30249 -13381635.93046         0.00041  21863570.22446  21863562.52449
 -13427431.02248 -10462903.40846         0.00041  22160415.95246  22160407.51348
  -8436747.65149  -6574086.08847         0.00041  20711134.80247  20711128.69449
   -167029.44549   -130157.98546         0.00041  21220247.90046  21220240.81549
 -10756270.21449  -8381499.42247         0.00041  20985584.90147  20985580.67749
 -20081791.16649 -15648122.81347         0.00041  21249727.20447  21249720.26849
  25463322.46048         0.00041         0.00041         0.00041  25461588.07848
  -2052974.88947         0.00041         0.00041         0.00041  24332831.23347
 02 07 05 18 45 30.0000000  0  7 03 14 15 17 18 21 31
 -17201544.15449 -13403789.06446         0.00041  21858160.21046  21858152.51449
 -13521476.39548 -10536185.37846         0.00041  22142519.85246  22142511.16448
  -8405841.22549  -6550003.20247         0.00041  20717016.19347  20717009.91649
   -124175.00649    -96765.00546         0.00041  21228403.02246  21228395.70149
 -10716055.70349  -8350163.46547         0.00041  20993237.51247  20993233.40949
 -20094369.19149 -15657923.86247         0.00041  21247333.73047  21247326.92049
  -2138540.70848         0.00041         0.00041         0.00041  24316548.90148
 02 07 05 18 46 00.0000000  0  7 03 14 15 17 18 21 31
 -17229356.87849 -13425461.32446         0.00041  21852867.46946  21852859.76249
 -13615133.41548 -10609164.74846         0.00041  22124698.32846  22124688.64748
  -8374513.19549  -6525591.79547         0.00041  20722977.84047  20722971.47549
    -80913.83249    -63055.09546         0.00041  21236635.58646  21236628.27249
 -10675579.03349  -8318623.22647         0.00041  21000939.94247  21000935.78049
 -20106700.49849 -15667532.66447         0.00041  21244986.89547  21244980.19949
  -2223703.63448  -1732754.32244         0.00041  24300349.23144  24300344.35648
 02 07 05 18 46 30.0000000  0  8 03 09 14 15 17 18 21 31
 -17256626.98149 -13446710.77146         0.00041  21847678.71646  21847670.82549
        -0.79758         0.00051         0.00051         0.00051  23597995.61258
 -13708475.20348 -10681898.47746         0.00041  22106935.46946  22106926.03748
  -8342838.51849  -6500910.27647         0.00041  20729005.48147  20728998.97949
    -37320.84249    -29086.62346         0.00041  21244931.22946  21244923.70549
 -10634916.86449  -8286938.43847         0.00041  21008677.74747  21008673.60849
 -20118861.26449 -15677008.57547         0.00041  21242672.89847  21242666.29749
  -2308536.54048  -1798857.86944         0.00041  24284212.70444  24284202.03148
 02 07 05 18 47 00.0000000  0  8 03 09 14 15 17 18 21 31
 -17283458.94749 -13467618.81346         0.00041  21842572.71546  21842564.52449
    -42229.78048    -32906.61745         0.00041  23589967.96945  23589960.38648
 -13801604.46249 -10754466.60146         0.00041  22089213.12246  22089204.43449
  -8310921.74549  -6476040.11247         0.00041  20735078.78847  20735072.64049
      6499.28049      5058.83146         0.00041  21253270.17546  21253262.60749
 -10594175.39449  -8255191.86047         0.00041  21016430.78747  21016426.52149
 -20130957.53649 -15686434.23147         0.00041  21240370.99447  21240364.49949
  -2393142.06148  -1864784.19844         0.00041  24268113.54144  24268103.36548
 02 07 05 18 47 30.0000000  0  8 03 09 14 15 17 18 21 31
 -17309766.65949 -13488118.34446         0.00041  21837566.71146  21837558.27249
    -84055.34548    -65497.87245         0.00041  23582011.94845  23582000.53048
 -13894433.74349 -10826800.97846         0.00041  22071547.95346  22071539.76249
  -8278677.20849  -6450914.55147         0.00041  20741214.92747  20741208.50949
     50631.90349     39447.79046         0.00041  21261668.57546  21261660.78849
 -10553270.65649  -8223318.05947         0.00041  21024214.63347  21024210.42949
 -20142905.01749 -15695743.95247         0.00041  21238097.40047  21238090.49049
  -2477432.64748  -1930465.13944         0.00041  24252069.87644  24252062.74448
 02 07 05 18 48 00.0000000  0  8 03 09 14 15 17 18 21 31
 -17335465.73949 -13508143.61146         0.00041  21832675.95846  21832668.24449
   -125391.10048    -97707.46445         0.00041  23574145.32445  23574134.65148
 -13986877.08449 -10898834.62446         0.00041  22053956.78546  22053947.84949
  -8246020.90249  -6425468.12747         0.00041  20747429.35547  20747422.83349
     95161.25349     74145.89046         0.00041  21270142.13746  21270134.70149
 -10512120.24449  -8191252.82647         0.00041  21032045.54347  21032041.20349
 -20154620.40349 -15704872.82347         0.00041  21235867.89347  21235861.19049
  -2561322.06548         0.00041         0.00041         0.00041  24236099.11348
 02 07 05 18 48 30.0000000  0  8 03 09 14 15 17 18 21 31
 -17360538.91349 -13527681.16646         0.00041  21827904.90746  21827897.36449
   -166217.96848   -129520.50745         0.00041  23566376.83445  23566365.16848
 -14078915.91249 -10970553.06046         0.00041  22036441.57946  22036433.13949
  -8212936.13249  -6399687.83847         0.00041  20753725.07147  20753718.74249
    140103.99549    109166.11646         0.00041  21278694.49446  21278687.02049
 -10470709.09049  -8158984.41947         0.00041  21039925.62347  21039921.31949
 -20166088.75849 -15713809.20247         0.00041  21233685.70747  21233679.31849
  -2644791.52748  -2060874.48644         0.00041  24220226.42144  24220215.00348
 02 07 05 18 49 00.0000000  0  8 03 09 14 15 17 18 21 31
 -17385044.39249 -13546776.36446         0.00041  21823241.88046  21823233.68849
   -206592.74948   -160981.31045         0.00041  23558692.98745  23558681.32148
 -14170607.21249 -11042000.70546         0.00041  22018993.46846  22018985.02849
  -8179481.44649  -6373619.29947         0.00041  20760091.42347  20760084.94549
    185401.32749    144462.64046         0.00041  21287314.34546  21287306.71349
 -10429097.66149  -8126559.95347         0.00041  21047844.10247  21047839.88249
 -20177369.48549 -15722599.37447         0.00041  21231539.06047  21231532.51749
  -2727897.74548         0.00041         0.00041         0.00041  24204400.47748
 02 07 05 18 49 30.0000000  0  8 03 09 14 15 17 18 21 31
 -17409020.01149 -13565458.67546         0.00041  21818679.61746  21818671.17849
   -246551.15348   -192117.63245         0.00041  23551089.10445  23551077.68648
 -14261986.57549 -11113205.26946         0.00041  22001604.87946  22001596.44049
  -8145694.53749  -6347291.89047         0.00041  20766520.92347  20766514.23649
    231015.41949    180005.99646         0.00041  21295994.51646  21295986.90949
 -10387324.83849  -8094009.72547         0.00041  21055793.26847  21055788.85549
 -20188501.69349 -15731273.81847         0.00041  21229420.71147  21229414.05349
  -2810676.41548         0.00041         0.00041         0.00041  24188647.83948
 02 07 05 18 50 00.0000000  0  8 03 09 14 15 17 18 21 31
 -17432468.69149 -13583730.39246         0.00041  21814216.53246  21814209.31349
   -286094.11248   -222930.26045         0.00041  23543562.04445  23543553.60448
 -14353055.38049 -11184167.84346         0.00041  21984274.58646  21984266.39449
  -8111578.51849  -6320708.03547         0.00041  20773012.94447  20773006.53849
    276943.21949    215793.79546         0.00041  21304734.36046  21304726.80349
 -10345395.55249  -8061337.58447         0.00041  21063772.41847  21063767.95549
 -20199489.60249 -15739835.82047         0.00041  21227329.86347  21227323.16449
  -2893128.48748         0.00041         0.00041         0.00041  24172957.50848
 02 07 05 18 50 30.0000000  0  8 03 09 14 15 17 18 21 31
 -17455368.33649 -13601574.28946         0.00041  21809859.18846  21809851.73349
   -325197.68248   -253400.49145         0.00041  23536121.55445  23536112.86648
 -14443789.80749 -11254869.86346         0.00041  21967008.52346  21966999.58749
  -8077111.57949  -6293850.73747         0.00041  20779572.07347  20779565.36349
    323206.51449    251843.02646         0.00041  21313537.95746  21313530.50949
 -10303289.45749  -8028527.67147         0.00041  21071785.01847  21071780.56149
 -20210313.10449 -15748269.71447         0.00041  21225270.27547  21225263.45649
  -2975230.29148         0.00041         0.00041         0.00041  24157334.77348
 02 07 05 18 51 00.0000000  0  8 03 09 14 15 17 18 21 31
 -17477762.05649 -13619023.95146         0.00041  21805598.74046  21805590.30149
   -363903.37648   -283560.69845         0.00041  23528757.68645  23528746.76548
 -14534231.64849 -11325343.89546         0.00041  21949797.83546  21949789.14749
  -8042337.17249  -6266753.85047         0.00041  20786189.38347  20786182.77749
    369761.58449    288119.61646         0.00041  21322397.00046  21322389.53849
 -10261051.78849  -7995615.23046         0.00041  21079822.30146  21079818.26649
 -20221015.91749 -15756609.56447         0.00041  21223233.51647  21223226.81049
  -3057023.14948         0.00041         0.00041         0.00041  24141770.58548
 02 07 05 18 51 30.0000000  0  8 03 09 14 15 17 18 21 31
 -17499437.99649 -13635914.31546         0.00041  21801473.56646  21801465.37549
   -401997.49648   -313244.37945         0.00041  23521507.75145  23521497.32648
 -14624167.43949 -11395423.60746         0.00041  21932683.24846  21932674.80949
  -8007043.69249  -6239252.48747         0.00041  20792905.26047  20792898.79149
    416819.93249    324788.36846         0.00041  21331352.11446  21331344.61749
 -10218472.28449  -7962436.42246         0.00041  21087925.00346  21087920.65649
 -20231387.76349 -15764691.51647         0.00041  21221260.00247  21221253.32049
  -3138293.44248  -2445420.94244         0.00041  24126315.54244  24126305.61348
 02 07 05 18 52 00.0000000  0  8 03 09 14 15 17 18 21 31
 -17520395.14449 -13652244.57446         0.00041  21797485.46946  21797477.27849
   -439477.12548   -342449.24645         0.00041  23514374.86845  23514364.69148
 -14713594.24149 -11465106.69946         0.00041  21915665.58546  21915657.75249
  -7971230.31349  -6211346.01146         0.00041  20799720.32746  20799714.06749
    464382.60749    361850.09946         0.00041  21340403.38446  21340395.73649
 -10175551.62849  -7928991.78046         0.00041  21096092.30346  21096088.28749
 -20241429.09849 -15772515.92847         0.00041  21219348.87647  21219342.32149
  -3219038.11148  -2508338.82745         0.00041  24110951.71845  24110940.54848
 02 07 05 18 52 30.0000000  0  8 03 09 14 15 17 18 21 31
 -17540732.97449 -13668092.25446         0.00041  21793615.37846  21793606.93949
   -476439.94348   -371251.37845         0.00041  23507341.01545  23507331.08748
 -14802610.08349 -11534469.56246         0.00041  21898726.37846  21898718.54849
  -7934996.31949  -6183111.78046         0.00041  20806615.77546  20806609.23049
    512349.71349    399226.97646         0.00041  21349530.93546  21349523.46349
 -10132390.81549  -7895360.00746         0.00041  21104305.37546  21104301.63049
 -20251240.68949 -15780161.31947         0.00041  21217481.80647  21217475.19049
  -3299354.90548  -2570923.27344         0.00041  24095666.82844  24095657.14848
 02 07 05 18 53 00.0000000  0  8 03 09 14 15 17 18 21 31
 -17560659.26249 -13683619.25346         0.00041  21789823.21746  21789815.31449
   -513092.04948   -399811.39645         0.00041  23500367.93345  23500357.01148
 -14891421.09249 -11603672.81846         0.00041  21881826.31346  21881817.87449
  -7898550.20549  -6154712.26547         0.00041  20813551.21347  20813544.73749
    560513.11949    436756.80546         0.00041  21358695.95546  21358688.25849
 -10089199.60249  -7861704.54246         0.00041  21112524.71746  21112520.36449
 -20261031.87049 -15787790.80547         0.00041  21215618.67747  21215612.20049
  -3379449.87348  -2633334.87644         0.00041  24080423.84644  24080415.40748
 02 07 05 18 53 30.0000000  0  8 03 09 14 15 17 18 21 31
 -17580219.14149 -13698860.73746         0.00041  21786101.50646  21786093.06749
   -549476.53348   -428162.89345         0.00041  23493443.73745  23493433.06448
 -14980070.68649 -11672750.30146         0.00041  21864957.12846  21864948.19249
  -7861937.04449  -6126182.58647         0.00041  20820518.65247  20820512.11049
    608827.46949    474404.26046         0.00041  21367890.87946  21367882.68849
 -10046024.78849  -7828061.86146         0.00041  21120740.68446  21120736.35349
 -20270848.64449 -15795440.23647         0.00041  21213750.71847  21213743.92949
  -3459366.15748  -2695607.27544         0.00041  24065216.90244  24065208.46248
 02 07 05 18 54 00.0000000  0  8 03 09 14 15 17 18 21 31
 -17599234.34549 -13713677.80146         0.00041  21782483.13046  21782474.69149
   -585413.32548         0.00041         0.00041         0.00041  23486594.35248
 -15068379.05449 -11741561.89346         0.00041  21848151.93446  21848143.49449
  -7824978.76649  -6097383.98847         0.00041  20827551.68447  20827545.20349
    657470.77049    512308.03246         0.00041  21377146.83646  21377139.39349
 -10002689.84549  -7794294.40746         0.00041  21128987.20746  21128982.69549
 -20280513.97849 -15802971.65947         0.00041  21211911.38547  21211904.32549
  -3538923.79448  -2757600.16944         0.00041  24050076.51744  24050068.82248
 02 07 05 18 54 30.0000000  0  8 03 09 14 15 17 18 21 31
 -17617684.62149 -13728054.65946         0.00041  21778971.89846  21778963.45949
   -620880.36348   -483802.15245         0.00041  23479855.08545  23479845.90148
 -15156324.04149 -11810090.33146         0.00041  21831416.49646  21831408.05649
  -7787655.33449  -6068300.85247         0.00041  20834654.35547  20834647.44049
    706463.23549    550483.87746         0.00041  21386470.48646  21386462.29549
  -9959175.85149  -7760387.43246         0.00041  21137267.65846  21137263.16849
 -20290008.78349 -15810370.20347         0.00041  21210104.56347  21210097.62849
  -3618100.51148  -2819296.27044         0.00041  24035009.62644  24035001.43548
 02 07 05 18 55 00.0000000  0  8 03 09 14 15 17 18 21 31
 -17635616.45249 -13742027.53846         0.00041  21775559.66446  21775551.22549
   -655922.06948   -511107.33845         0.00041  23473187.03745  23473177.60548
 -15243950.34449 -11878370.44146         0.00041  21814741.54346  21814733.65949
  -7750013.17349  -6038969.35447         0.00041  20841817.57947  20841810.41149
    755758.14249    588895.39446         0.00041  21395851.28146  21395843.09049
  -9915530.82649  -7726378.35646         0.00041  21145573.31146  21145568.77049
 -20299380.84449 -15817673.10547         0.00041  21208321.11347  21208314.41249
  -3696940.70448  -2880730.15044         0.00041  24020004.28044  24019998.13548
 02 07 05 18 55 30.0000000  0  8 03 09 14 15 17 18 21 31
 -17653004.85549 -13755576.96446         0.00041  21772250.54146  21772242.10149
   -690511.69748   -538060.25945         0.00041  23466606.90645  23466595.48848
 -15331231.35949 -11946381.49746         0.00041  21798132.41446  21798124.62449
  -7712027.50149  -6009370.18646         0.00041  20849045.89446  20849038.89349
    805380.09849    627561.75446         0.00041  21405294.28446  21405285.84549
  -9871731.32349  -7692248.90546         0.00041  21153907.76346  21153903.74849
 -20308606.21149 -15824861.69547         0.00041  21206565.40947  21206558.70449
  -3775417.66048  -2941880.96644         0.00041  24005070.31844  24005063.53848
 02 07 05 18 56 00.0000000  0  8 03 09 14 15 17 18 21 31
 -17669869.59649 -13768718.34746         0.00041  21769041.95246  21769032.76849
   -724667.15548   -564674.85845         0.00041  23460106.68345  23460095.26548
 -15418185.18749 -12014137.60546         0.00041  21781585.58246  21781577.39149
  -7673718.13149  -5979518.78446         0.00041  20856335.90346  20856329.01449
    855309.25049    666467.48046         0.00041  21414794.64346  21414787.04449
  -9827798.69649  -7658015.71946         0.00041  21162267.98146  21162263.67649
 -20317705.94349 -15831952.38847         0.00041  21204833.86547  21204827.12949
  -3853549.22948  -3002762.67744         0.00041  23990206.12344  23990195.20248
 02 07 05 18 56 30.0000000  0  8 03 09 14 15 17 18 21 31
 -17686149.42949 -13781403.95446         0.00041  21765943.70446  21765935.01649
   -758325.53248   -590902.10445         0.00041  23453700.44145  23453690.01648
 -15504749.03249 -12081589.83246         0.00041  21765112.91346  21765104.98149
  -7635024.10349  -5949367.65846         0.00041  20863699.07946  20863692.31049
    905606.44749    705659.99146         0.00041  21424365.78446  21424358.32949
  -9783673.50349  -7623632.48346         0.00041  21170664.64246  21170660.54949
 -20326620.32949 -15838898.65447         0.00041  21203137.47647  21203130.87749
  -3931272.24048         0.00041         0.00041         0.00041  23975404.89648
 02 07 05 18 57 00.0000000  0  8 03 09 14 15 17 18 21 31
 -17701770.25049 -13793576.04746         0.00041  21762970.96446  21762962.52549
   -791410.59148   -616682.61745         0.00041  23447405.12645  23447394.45248
 -15590846.61849 -12148678.73946         0.00041  21748729.02446  21748720.58549
  -7595871.22349  -5918858.98946         0.00041  20871149.56746  20871142.86549
    956345.94349    745197.15146         0.00041  21434022.63346  21434013.69749
  -9739282.80249  -7589042.36146         0.00041  21179112.26446  21179107.77749
 -20335275.44449 -15845642.89647         0.00041  21201490.58647  21201483.80249
  -4008510.42648         0.00041         0.00041         0.00041  23960707.12948
